| time (UTC) | temp F | wind direction | speed knots | gust knots | rain 1hr in | rain 24hr in | rain mn in | humidity % | barometer mb |
| 20260507203115 | 67 | 313 | 0.0 | 4.3 | 0.00 | 0.00 | 0.27 | 33 | 1005.1 |
| 20260507203019 | 67 | 317 | 0.0 | 4.3 | 0.00 | 0.31 | 0.27 | 32 | 1004.9 |
| 20260507203015 | 67 | 317 | 0.0 | 4.3 | 0.00 | 0.00 | 0.27 | 32 | 1005.0 |
| 20260507203007 | 67 | 321 | 0.0 | 4.3 | 0.00 | 0.00 | 0.27 | 32 | 1005.0 |
| 20260507202914 | 67 | 222 | 0.0 | 4.3 | 0.00 | 0.00 | 0.27 | 32 | 1005.1 |
| 20260507202813 | 67 | 294 | 0.0 | 4.3 | 0.00 | 0.00 | 0.27 | 32 | 1005.1 |
| 20260507202713 | 67 | 251 | 0.0 | 4.3 | 0.00 | 0.00 | 0.27 | 33 | 1005.2 |
| 20260507202611 | 67 | 293 | 0.0 | 4.3 | 0.00 | 0.00 | 0.27 | 33 | 1005.2 |
| 20260507202545 | 67 | 306 | 0.0 | 0.9 | 0.00 | 0.00 | 0.27 | 32 | 1005.2 |
| 20260507202541 | 67 | 285 | 0.0 | 0.9 | 0.00 | 0.00 | 0.27 | 33 | 1005.1 |
| 20260507202529 | 67 | 297 | 0.0 | 0.9 | 0.00 | 0.00 | 0.27 | 32 | 1005.2 |
| 20260507202519 | 67 | 297 | 0.0 | 0.9 | 0.00 | 0.31 | 0.27 | 32 | 1005.1 |
| 20260507202211 | 67 | 261 | 0.0 | 0.9 | 0.00 | 0.00 | 0.27 | 33 | 1005.2 |
| 20260507202110 | 67 | 309 | 0.0 | 0.9 | 0.00 | 0.00 | 0.27 | 33 | 1005.1 |
| 20260507202034 | 67 | 226 | 0.0 | 0.9 | 0.00 | 0.31 | 0.27 | 33 | 1005.0 |
| 20260507202013 | 67 | 256 | 0.0 | 0.9 | 0.00 | 0.00 | 0.27 | 33 | 1005.1 |
| 20260507202006 | 67 | 271 | 0.0 | 0.9 | 0.00 | 0.00 | 0.27 | 33 | 1005.1 |
| 20260507201909 | 67 | 283 | 0.0 | 0.9 | 0.00 | 0.00 | 0.27 | 33 | 1005.1 |
| 20260507201808 | 67 | 275 | 0.0 | 0.9 | 0.00 | 0.00 | 0.27 | 33 | 1005.1 |
| 20260507201740 | 66 | 275 | 0.0 | 0.9 | 0.00 | 0.00 | 0.27 | 36 | 1005.1 |
| 20260507201736 | 66 | 275 | 0.0 | 0.9 | 0.00 | 0.00 | 0.27 | 35 | 1005.1 |
| 20260507201730 | 67 | 275 | 0.0 | 0.9 | 0.00 | 0.00 | 0.27 | 34 | 1005.1 |
| 20260507201519 | 66 | 275 | 0.0 | 0.9 | 0.00 | 0.31 | 0.27 | 35 | 1005.0 |
| 20260507201508 | 66 | 275 | 0.0 | 0.9 | 0.00 | 0.00 | 0.27 | 35 | 1005.1 |
| 20260507201406 | 66 | 275 | 0.0 | 0.9 | 0.00 | 0.00 | 0.27 | 36 | 1005.2 |
| 20260507201348 | 65 | 270 | 0.0 | 0.9 | 0.00 | 0.00 | 0.27 | 35 | 1005.2 |
| 20260507201341 | 66 | 275 | 0.0 | 0.9 | 0.00 | 0.00 | 0.27 | 35 | 1005.2 |
| 20260507201228 | 66 | 275 | 0.0 | 0.9 | 0.00 | 0.00 | 0.27 | 34 | 1005.2 |
| 20260507201219 | 66 | 271 | 0.0 | 0.9 | 0.00 | 0.00 | 0.27 | 35 | 1005.2 |
| 20260507201019 | 66 | 270 | 0.0 | 0.9 | 0.00 | 0.31 | 0.27 | 35 | 1005.1 |
| 20260507200918 | 65 | 311 | 0.0 | 0.9 | 0.00 | 0.00 | 0.27 | 37 | 1005.4 |
| 20260507200913 | 65 | 269 | 0.0 | 0.9 | 0.00 | 0.00 | 0.27 | 35 | 1005.2 |
| 20260507200703 | 65 | 283 | 0.0 | 0.9 | 0.00 | 0.00 | 0.27 | 35 | 1005.4 |
| 20260507200602 | 65 | 302 | 0.0 | 0.9 | 0.00 | 0.00 | 0.27 | 36 | 1005.4 |
| 20260507200519 | 65 | 272 | 0.0 | 0.0 | 0.00 | 0.31 | 0.27 | 37 | 1005.2 |
| 20260507200503 | 65 | 272 | 0.0 | 0.0 | 0.00 | 0.00 | 0.27 | 37 | 1005.4 |
| 20260507200401 | 65 | 295 | 0.0 | 0.0 | 0.00 | 0.00 | 0.27 | 40 | 1005.4 |
| 20260507200301 | 65 | 295 | 0.0 | 0.0 | 0.00 | 0.00 | 0.27 | 36 | 1005.4 |
| 20260507200201 | 65 | 295 | 0.0 | 0.0 | 0.00 | 0.00 | 0.27 | 34 | 1005.4 |
| 20260507200100 | 64 | 294 | 0.0 | 0.0 | 0.00 | 0.00 | 0.27 | 33 | 1005.5 |
| 20260507200019 | 64 | 296 | 0.0 | 0.0 | 0.00 | 0.31 | 0.27 | 37 | 1005.2 |
| 20260507200000 | 64 | 296 | 0.0 | 0.0 | 0.00 | 0.00 | 0.27 | 37 | 1005.4 |
| 20260507195900 | 64 | 246 | 0.0 | 0.0 | 0.00 | 0.00 | 0.27 | 37 | 1005.4 |
| 20260507195759 | 64 | 0 | 0.0 | 0.0 | 0.00 | 0.00 | 0.27 | 37 | 1005.4 |
| 20260507195737 | 65 | 0 | 0.0 | 0.9 | 0.00 | 0.00 | 0.27 | 35 | 1005.5 |
| 20260507195659 | 64 | 0 | 0.0 | 0.0 | 0.00 | 0.00 | 0.27 | 36 | 1005.5 |
| 20260507195626 | 65 | 0 | 0.0 | 0.9 | 0.00 | 0.00 | 0.27 | 34 | 1005.6 |
| 20260507195621 | 65 | 0 | 0.0 | 0.0 | 0.00 | 0.00 | 0.27 | 33 | 1005.5 |
| 20260507195519 | 65 | 360 | 0.0 | 0.9 | 0.00 | 0.31 | 0.27 | 35 | 1005.3 |
| 20260507195507 | 65 | 0 | 0.0 | 0.9 | 0.00 | 0.00 | 0.27 | 35 | 1005.5 |
| 20260507195256 | 65 | 0 | 0.0 | 0.9 | 0.00 | 0.00 | 0.27 | 33 | 1005.6 |
| 20260507195156 | 65 | 0 | 0.0 | 0.9 | 0.00 | 0.00 | 0.27 | 34 | 1005.6 |
| 20260507195055 | 66 | 0 | 0.0 | 0.9 | 0.00 | 0.00 | 0.27 | 31 | 1005.5 |
| 20260507195019 | 66 | 360 | 0.0 | 0.9 | 0.00 | 0.31 | 0.27 | 32 | 1005.3 |
| 20260507194955 | 66 | 0 | 0.0 | 0.9 | 0.00 | 0.00 | 0.27 | 32 | 1005.5 |
| 20260507194855 | 66 | 0 | 0.0 | 0.9 | 0.00 | 0.00 | 0.27 | 33 | 1005.6 |
| 20260507194754 | 66 | 0 | 0.0 | 0.9 | 0.00 | 0.00 | 0.27 | 32 | 1005.6 |
| 20260507194654 | 66 | 0 | 0.0 | 0.9 | 0.00 | 0.00 | 0.27 | 33 | 1005.7 |
| 20260507194614 | 67 | 259 | 0.0 | 0.9 | 0.00 | 0.00 | 0.27 | 34 | 1005.7 |
| 20260507194609 | 67 | 0 | 0.0 | 0.9 | 0.00 | 0.00 | 0.27 | 32 | 1005.7 |
| 20260507194559 | 67 | 277 | 0.0 | 0.0 | 0.00 | 0.00 | 0.27 | 34 | 1005.7 |
| 20260507194549 | 67 | 360 | 0.9 | 0.9 | 0.00 | 0.31 | 0.27 | 34 | 1005.5 |
| 20260507194352 | 67 | 0 | 0.0 | 0.9 | 0.00 | 0.00 | 0.27 | 34 | 1005.6 |
| 20260507194306 | 67 | 236 | 0.0 | 2.6 | 0.00 | 0.00 | 0.27 | 38 | 1005.7 |
| 20260507194301 | 67 | 238 | 0.0 | 2.6 | 0.00 | 0.00 | 0.27 | 38 | 1005.7 |
| 20260507194051 | 67 | 236 | 0.0 | 2.6 | 0.00 | 0.00 | 0.27 | 37 | 1005.7 |
| 20260507194019 | 67 | 236 | 0.0 | 2.6 | 0.00 | 0.31 | 0.27 | 37 | 1005.5 |
| 20260507193956 | 67 | 242 | 0.0 | 2.6 | 0.00 | 0.00 | 0.27 | 35 | 1005.7 |
| 20260507193951 | 67 | 244 | 0.0 | 2.6 | 0.00 | 0.00 | 0.27 | 35 | 1005.7 |
| 20260507193850 | 67 | 245 | 0.0 | 2.6 | 0.00 | 0.00 | 0.27 | 36 | 1005.7 |
| 20260507193750 | 67 | 242 | 0.0 | 2.6 | 0.00 | 0.00 | 0.27 | 36 | 1005.8 |
| 20260507193735 | 67 | 11 | 0.0 | 2.6 | 0.00 | 0.00 | 0.27 | 31 | 1005.7 |
| 20260507193731 | 67 | 245 | 0.0 | 2.6 | 0.00 | 0.00 | 0.27 | 32 | 1005.8 |
| 20260507193725 | 67 | 254 | 0.0 | 2.6 | 0.00 | 0.00 | 0.27 | 33 | 1005.8 |
| 20260507193720 | 67 | 22 | 0.0 | 2.6 | 0.00 | 0.00 | 0.27 | 33 | 1005.7 |
| 20260507193602 | 67 | 259 | 0.0 | 2.6 | 0.00 | 0.00 | 0.27 | 32 | 1005.8 |
| 20260507193519 | 67 | 261 | 0.0 | 2.6 | 0.00 | 0.31 | 0.27 | 31 | 1005.6 |
| 20260507193247 | 67 | 288 | 0.0 | 1.7 | 0.00 | 0.00 | 0.27 | 34 | 1005.8 |
| 20260507193145 | 67 | 319 | 0.0 | 7.0 | 0.00 | 0.00 | 0.27 | 32 | 1005.8 |
| 20260507193046 | 67 | 314 | 0.0 | 7.0 | 0.00 | 0.00 | 0.27 | 32 | 1005.7 |
| 20260507193019 | 67 | 314 | 1.7 | 7.0 | 0.00 | 0.31 | 0.27 | 32 | 1005.6 |
| 20260507192953 | 67 | 253 | 0.0 | 7.0 | 0.00 | 0.00 | 0.27 | 33 | 1005.8 |
| 20260507192945 | 67 | 252 | 0.0 | 7.0 | 0.00 | 0.00 | 0.27 | 33 | 1005.8 |
| 20260507192844 | 67 | 272 | 0.0 | 7.0 | 0.00 | 0.00 | 0.27 | 32 | 1005.8 |
| 20260507192744 | 67 | 281 | 0.0 | 7.0 | 0.00 | 0.00 | 0.27 | 34 | 1005.8 |
| 20260507192658 | 67 | 271 | 0.0 | 7.0 | 0.00 | 0.00 | 0.27 | 31 | 1005.8 |
| 20260507192652 | 67 | 255 | 0.0 | 7.0 | 0.00 | 0.00 | 0.27 | 33 | 1005.8 |
| 20260507192519 | 68 | 289 | 0.0 | 7.0 | 0.00 | 0.31 | 0.27 | 32 | 1005.6 |
| 20260507192454 | 67 | 288 | 0.0 | 7.0 | 0.00 | 0.00 | 0.27 | 33 | 1005.8 |
| 20260507192443 | 67 | 316 | 0.0 | 7.0 | 0.00 | 0.00 | 0.27 | 33 | 1005.8 |
| 20260507192356 | 67 | 225 | 0.0 | 7.0 | 0.00 | 0.00 | 0.27 | 32 | 1005.8 |
| 20260507192351 | 67 | 248 | 0.0 | 7.0 | 0.00 | 0.00 | 0.27 | 32 | 1005.8 |
| 20260507192215 | 67 | 287 | 0.0 | 6.1 | 0.00 | 0.00 | 0.27 | 36 | 1005.8 |
| 20260507192141 | 67 | 213 | 0.0 | 0.9 | 0.00 | 0.00 | 0.27 | 34 | 1005.8 |
| 20260507192109 | 67 | 257 | 0.0 | 6.1 | 0.00 | 0.00 | 0.27 | 36 | 1005.9 |
| 20260507192104 | 67 | 265 | 0.0 | 3.5 | 0.00 | 0.00 | 0.27 | 36 | 1005.9 |
| 20260507192019 | 67 | 281 | 0.0 | 6.1 | 0.00 | 0.31 | 0.27 | 36 | 1005.6 |
| 20260507191949 | 67 | 287 | 0.0 | 6.1 | 0.00 | 0.00 | 0.27 | 35 | 1005.8 |
| 20260507191740 | 67 | 272 | 0.0 | 6.1 | 0.00 | 0.00 | 0.27 | 37 | 1005.8 |
| 20260507191653 | 66 | 225 | 0.0 | 6.1 | 0.00 | 0.00 | 0.27 | 35 | 1005.9 |
| 20260507191648 | 67 | 227 | 0.0 | 6.1 | 0.00 | 0.00 | 0.27 | 37 | 1005.9 |
| 20260507191534 | 66 | 225 | 0.0 | 6.1 | 0.00 | 0.31 | 0.27 | 36 | 1005.7 |
| 20260507191452 | 66 | 222 | 0.0 | 6.1 | 0.00 | 0.00 | 0.27 | 36 | 1005.9 |
| 20260507191438 | 66 | 226 | 0.0 | 6.1 | 0.00 | 0.00 | 0.27 | 36 | 1005.9 |
| 20260507191338 | 66 | 251 | 0.0 | 6.1 | 0.00 | 0.00 | 0.27 | 37 | 1006.0 |
| 20260507191237 | 65 | 217 | 0.0 | 6.1 | 0.00 | 0.00 | 0.27 | 37 | 1006.0 |
| 20260507191150 | 65 | 284 | 0.0 | 6.1 | 0.00 | 0.00 | 0.27 | 40 | 1006.0 |
| 20260507191145 | 65 | 217 | 0.0 | 6.1 | 0.00 | 0.00 | 0.27 | 38 | 1006.0 |
| 20260507191019 | 65 | 190 | 0.0 | 0.0 | 0.00 | 0.31 | 0.27 | 40 | 1005.9 |
| 20260507190951 | 65 | 231 | 0.0 | 0.0 | 0.00 | 0.00 | 0.27 | 40 | 1006.1 |
| 20260507190935 | 65 | 202 | 0.0 | 0.0 | 0.00 | 0.00 | 0.27 | 40 | 1006.1 |
| 20260507190835 | 64 | 255 | 0.0 | 0.0 | 0.00 | 0.00 | 0.27 | 40 | 1006.1 |
| 20260507190733 | 64 | 257 | 0.0 | 0.0 | 0.00 | 0.00 | 0.27 | 41 | 1006.1 |
| 20260507190633 | 64 | 281 | 0.0 | 0.0 | 0.00 | 0.00 | 0.27 | 41 | 1006.1 |
| 20260507190534 | 64 | 174 | 0.0 | 0.0 | 0.00 | 0.31 | 0.27 | 40 | 1005.9 |
| 20260507190532 | 64 | 174 | 0.0 | 0.0 | 0.00 | 0.00 | 0.27 | 40 | 1006.1 |
| 20260507190432 | 64 | 174 | 0.0 | 0.0 | 0.00 | 0.00 | 0.27 | 39 | 1006.1 |
| 20260507190332 | 64 | 174 | 0.0 | 0.0 | 0.00 | 0.00 | 0.27 | 39 | 1006.1 |
| 20260507190231 | 64 | 175 | 0.0 | 0.0 | 0.00 | 0.00 | 0.27 | 36 | 1006.1 |
| 20260507190215 | 64 | 47 | 0.0 | 0.0 | 0.00 | 0.00 | 0.27 | 35 | 1006.2 |
| 20260507190131 | 64 | 175 | 0.0 | 0.0 | 0.00 | 0.00 | 0.27 | 35 | 1006.1 |
| 20260507190058 | 64 | 59 | 0.0 | 0.0 | 0.00 | 0.00 | 0.27 | 35 | 1006.2 |
| 20260507190019 | 64 | 49 | 0.0 | 0.0 | 0.00 | 0.31 | 0.27 | 35 | 1006.0 |
| 20260507185944 | 64 | 155 | 0.0 | 2.6 | 0.00 | 0.00 | 0.27 | 36 | 1006.2 |
| 20260507185938 | 64 | 47 | 0.0 | 2.6 | 0.00 | 0.00 | 0.27 | 35 | 1006.2 |
| 20260507185810 | 64 | 200 | 0.0 | 2.6 | 0.00 | 0.00 | 0.27 | 36 | 1006.2 |
| 20260507185803 | 64 | 155 | 0.0 | 2.6 | 0.00 | 0.00 | 0.27 | 36 | 1006.2 |
| 20260507185549 | 64 | 246 | 0.0 | 2.6 | 0.00 | 0.31 | 0.27 | 37 | 1006.0 |
| 20260507185541 | 64 | 255 | 0.0 | 2.6 | 0.00 | 0.00 | 0.27 | 37 | 1006.1 |
| 20260507185533 | 64 | 249 | 0.0 | 2.6 | 0.00 | 0.00 | 0.27 | 37 | 1006.2 |
| 20260507185326 | 64 | 317 | 0.0 | 2.6 | 0.00 | 0.00 | 0.27 | 37 | 1006.2 |
| 20260507185226 | 64 | 0 | 0.0 | 2.6 | 0.00 | 0.00 | 0.27 | 35 | 1006.2 |
| 20260507185125 | 64 | 321 | 0.0 | 2.6 | 0.00 | 0.00 | 0.27 | 37 | 1006.3 |
| 20260507185025 | 64 | 328 | 0.0 | 2.6 | 0.00 | 0.00 | 0.27 | 36 | 1006.3 |
| 20260507185019 | 64 | 19 | 0.0 | 2.6 | 0.00 | 0.31 | 0.27 | 36 | 1006.1 |
| 20260507184950 | 64 | 19 | 0.0 | 2.6 | 0.00 | 0.00 | 0.27 | 36 | 1006.3 |
| 20260507184924 | 64 | 0 | 0.0 | 0.9 | 0.00 | 0.00 | 0.27 | 36 | 1006.3 |
| 20260507184838 | 63 | 0 | 0.0 | 0.9 | 0.00 | 0.00 | 0.27 | 38 | 1006.3 |
| 20260507184833 | 63 | 0 | 0.0 | 0.9 | 0.00 | 0.00 | 0.27 | 36 | 1006.3 |
| 20260507184650 | 63 | 0 | 0.0 | 0.9 | 0.00 | 0.00 | 0.27 | 37 | 1006.4 |
| 20260507184537 | 63 | 355 | 0.0 | 0.9 | 0.00 | 0.00 | 0.27 | 40 | 1006.4 |
| 20260507184529 | 63 | 344 | 0.0 | 0.9 | 0.00 | 0.00 | 0.27 | 40 | 1006.4 |
| 20260507184519 | 63 | 355 | 0.0 | 0.9 | 0.00 | 0.31 | 0.27 | 40 | 1006.2 |
| 20260507184322 | 64 | 37 | 0.0 | 0.9 | 0.00 | 0.00 | 0.27 | 38 | 1006.4 |
| 20260507184240 | 64 | 38 | 0.0 | 0.9 | 0.00 | 0.00 | 0.27 | 39 | 1006.4 |
| 20260507184127 | 64 | 32 | 0.0 | 0.9 | 0.00 | 0.00 | 0.27 | 37 | 1006.4 |
| 20260507184019 | 64 | 38 | 0.0 | 0.9 | 0.00 | 0.31 | 0.27 | 38 | 1006.2 |
| 20260507183951 | 64 | 355 | 0.0 | 0.9 | 0.00 | 0.00 | 0.27 | 38 | 1006.4 |
| 20260507183917 | 64 | 350 | 0.0 | 0.9 | 0.00 | 0.00 | 0.27 | 36 | 1006.4 |
| 20260507183817 | 65 | 5 | 0.0 | 0.9 | 0.00 | 0.00 | 0.27 | 36 | 1006.3 |
| 20260507183725 | 65 | 355 | 0.0 | 3.5 | 0.00 | 0.00 | 0.27 | 36 | 1006.3 |
| 20260507183718 | 65 | 11 | 0.0 | 0.9 | 0.00 | 0.00 | 0.27 | 36 | 1006.3 |
| 20260507183711 | 65 | 14 | 0.0 | 3.5 | 0.00 | 0.00 | 0.27 | 36 | 1006.4 |
| 20260507183705 | 65 | 62 | 0.0 | 0.9 | 0.00 | 0.00 | 0.27 | 37 | 1006.3 |
| 20260507183519 | 65 | 340 | 0.0 | 3.5 | 0.00 | 0.31 | 0.27 | 36 | 1006.1 |
| 20260507183415 | 65 | 332 | 0.0 | 3.5 | 0.00 | 0.00 | 0.27 | 39 | 1006.3 |
| 20260507183315 | 65 | 272 | 0.0 | 3.5 | 0.00 | 0.00 | 0.27 | 43 | 1006.4 |
| 20260507183214 | 65 | 275 | 0.0 | 3.5 | 0.00 | 0.00 | 0.27 | 40 | 1006.4 |
| 20260507183115 | 65 | 283 | 0.0 | 3.5 | 0.00 | 0.00 | 0.27 | 36 | 1006.4 |
| 20260507183035 | 65 | 272 | 0.0 | 3.5 | 0.00 | 0.00 | 0.27 | 37 | 1006.4 |
| 20260507183030 | 65 | 40 | 0.0 | 3.5 | 0.00 | 0.00 | 0.27 | 37 | 1006.4 |
| 20260507183023 | 65 | 41 | 0.0 | 3.5 | 0.00 | 0.00 | 0.27 | 39 | 1006.4 |
| 20260507183019 | 65 | 40 | 0.0 | 3.5 | 0.00 | 0.31 | 0.27 | 37 | 1006.2 |
| 20260507182816 | 65 | 302 | 0.0 | 3.5 | 0.00 | 0.00 | 0.27 | 36 | 1006.4 |
| 20260507182728 | 66 | 344 | 0.0 | 3.5 | 0.00 | 0.00 | 0.27 | 37 | 1006.3 |
| 20260507182724 | 66 | 321 | 0.0 | 3.5 | 0.00 | 0.00 | 0.27 | 35 | 1006.4 |
| 20260507182541 | 66 | 46 | 0.0 | 2.6 | 0.00 | 0.00 | 0.27 | 36 | 1006.4 |
| 20260507182533 | 66 | 351 | 0.0 | 2.6 | 0.00 | 0.00 | 0.27 | 34 | 1006.4 |
| 20260507182519 | 66 | 360 | 0.0 | 2.6 | 0.00 | 0.31 | 0.27 | 36 | 1006.2 |
| 20260507182422 | 66 | 29 | 0.0 | 2.6 | 0.00 | 0.00 | 0.27 | 34 | 1006.5 |
| 20260507182256 | 66 | 309 | 0.0 | 2.6 | 0.00 | 0.00 | 0.27 | 37 | 1006.6 |
| 20260507182252 | 66 | 231 | 0.0 | 2.6 | 0.00 | 0.00 | 0.27 | 39 | 1006.5 |
| 20260507182248 | 66 | 248 | 0.0 | 2.6 | 0.00 | 0.00 | 0.27 | 37 | 1006.5 |
| 20260507182243 | 66 | 273 | 0.0 | 2.6 | 0.00 | 0.00 | 0.27 | 34 | 1006.5 |
| 20260507182019 | 66 | 250 | 0.0 | 2.6 | 0.00 | 0.31 | 0.27 | 39 | 1006.3 |
| 20260507182017 | 66 | 247 | 0.0 | 2.6 | 0.00 | 0.00 | 0.27 | 37 | 1006.5 |
| 20260507181809 | 66 | 248 | 0.0 | 2.6 | 0.00 | 0.00 | 0.27 | 36 | 1006.6 |
| 20260507181722 | 65 | 269 | 0.0 | 2.6 | 0.00 | 0.00 | 0.27 | 36 | 1006.6 |
| 20260507181718 | 65 | 262 | 0.0 | 2.6 | 0.00 | 0.00 | 0.27 | 36 | 1006.6 |
| 20260507181519 | 65 | 313 | 0.0 | 2.6 | 0.00 | 0.31 | 0.27 | 38 | 1006.5 |
| 20260507181508 | 65 | 248 | 0.0 | 2.6 | 0.00 | 0.00 | 0.27 | 38 | 1006.7 |
| 20260507181444 | 65 | 275 | 0.0 | 2.6 | 0.00 | 0.00 | 0.27 | 39 | 1006.7 |
| 20260507181408 | 65 | 281 | 0.0 | 2.6 | 0.00 | 0.00 | 0.27 | 39 | 1006.7 |
| 20260507181306 | 65 | 67 | 0.0 | 2.6 | 0.00 | 0.00 | 0.27 | 40 | 1006.7 |
| 20260507181213 | 64 | 267 | 0.0 | 2.6 | 0.00 | 0.00 | 0.27 | 40 | 1006.5 |
| 20260507181206 | 65 | 87 | 0.0 | 2.6 | 0.00 | 0.00 | 0.27 | 37 | 1006.6 |
| 20260507181105 | 64 | 323 | 0.0 | 2.6 | 0.00 | 0.00 | 0.27 | 38 | 1006.5 |
| 20260507181051 | 64 | 231 | 0.0 | 2.6 | 0.00 | 0.00 | 0.27 | 40 | 1006.5 |
| 20260507181034 | 64 | 233 | 0.9 | 2.6 | 0.00 | 0.31 | 0.27 | 40 | 1006.3 |
| 20260507180904 | 64 | 257 | 0.0 | 1.7 | 0.00 | 0.00 | 0.27 | 40 | 1006.5 |
| 20260507180804 | 63 | 265 | 0.0 | 1.7 | 0.00 | 0.00 | 0.27 | 40 | 1006.6 |
| 20260507180704 | 63 | 254 | 0.0 | 1.7 | 0.00 | 0.00 | 0.27 | 41 | 1006.6 |
| 20260507180603 | 63 | 271 | 0.0 | 1.7 | 0.00 | 0.00 | 0.27 | 37 | 1006.6 |
| 20260507180530 | 63 | 329 | 0.0 | 1.7 | 0.00 | 0.00 | 0.27 | 40 | 1006.6 |
| 20260507180522 | 63 | 329 | 0.0 | 1.7 | 0.00 | 0.00 | 0.27 | 40 | 1006.6 |
| 20260507180519 | 63 | 329 | 0.0 | 1.7 | 0.00 | 0.31 | 0.27 | 40 | 1006.4 |
| 20260507180411 | 63 | 30 | 0.0 | 1.7 | 0.00 | 0.00 | 0.27 | 37 | 1006.6 |
| 20260507180201 | 63 | 321 | 0.0 | 0.0 | 0.00 | 0.00 | 0.27 | 38 | 1006.7 |
| 20260507180101 | 63 | 322 | 0.0 | 0.9 | 0.00 | 0.00 | 0.27 | 37 | 1006.6 |
| 20260507180049 | 63 | 349 | 0.0 | 0.9 | 0.00 | 0.31 | 0.27 | 37 | 1006.4 |
| 20260507180001 | 63 | 355 | 0.0 | 0.9 | 0.00 | 0.00 | 0.27 | 36 | 1006.6 |
| 20260507175940 | 63 | 348 | 0.0 | 0.9 | 0.00 | 0.00 | 0.27 | 36 | 1006.6 |
| 20260507175859 | 63 | 0 | 0.0 | 0.9 | 0.00 | 0.00 | 0.27 | 36 | 1006.6 |
| 20260507175812 | 64 | 323 | 0.0 | 0.9 | 0.00 | 0.00 | 0.27 | 35 | 1006.7 |
| 20260507175807 | 64 | 34 | 0.0 | 0.9 | 0.00 | 0.00 | 0.27 | 36 | 1006.6 |
| 20260507175558 | 64 | 334 | 0.0 | 3.5 | 0.00 | 0.00 | 0.27 | 37 | 1006.7 |
| 20260507175519 | 64 | 24 | 0.0 | 3.5 | 0.00 | 0.31 | 0.27 | 36 | 1006.5 |
| 20260507175457 | 64 | 31 | 0.0 | 3.5 | 0.00 | 0.00 | 0.27 | 36 | 1006.7 |
| 20260507175439 | 64 | 305 | 0.0 | 3.5 | 0.00 | 0.00 | 0.27 | 36 | 1006.7 |
| 20260507175356 | 64 | 28 | 0.0 | 3.5 | 0.00 | 0.00 | 0.27 | 36 | 1006.7 |
| 20260507175256 | 64 | 30 | 0.0 | 3.5 | 0.00 | 0.00 | 0.27 | 37 | 1006.7 |
| 20260507175155 | 64 | 0 | 0.0 | 3.5 | 0.00 | 0.00 | 0.27 | 37 | 1006.7 |
| 20260507175054 | 64 | 0 | 0.0 | 3.5 | 0.00 | 0.00 | 0.27 | 36 | 1006.7 |
| 20260507175019 | 64 | 360 | 0.0 | 3.5 | 0.00 | 0.31 | 0.27 | 39 | 1006.5 |
| 20260507174937 | 64 | 0 | 0.0 | 3.5 | 0.00 | 0.00 | 0.27 | 38 | 1006.7 |
| 20260507174854 | 64 | 0 | 0.0 | 3.5 | 0.00 | 0.00 | 0.27 | 36 | 1006.8 |
| 20260507174754 | 64 | 0 | 0.0 | 3.5 | 0.00 | 0.00 | 0.27 | 37 | 1006.8 |
| 20260507174654 | 64 | 0 | 0.0 | 3.5 | 0.00 | 0.00 | 0.27 | 38 | 1006.9 |
| 20260507174553 | 64 | 0 | 0.0 | 1.7 | 0.00 | 0.00 | 0.27 | 39 | 1006.9 |
| 20260507174534 | 64 | 360 | 0.0 | 0.9 | 0.00 | 0.31 | 0.27 | 36 | 1006.6 |
| 20260507174435 | 64 | 0 | 0.0 | 1.7 | 0.00 | 0.00 | 0.27 | 39 | 1006.8 |
| 20260507174418 | 64 | 0 | 0.0 | 0.9 | 0.00 | 0.00 | 0.27 | 39 | 1006.8 |
| 20260507174414 | 64 | 0 | 0.0 | 0.9 | 0.00 | 0.00 | 0.27 | 38 | 1006.9 |
| 20260507174410 | 64 | 0 | 0.0 | 1.7 | 0.00 | 0.00 | 0.27 | 40 | 1006.9 |
| 20260507174119 | 64 | 0 | 0.0 | 0.9 | 0.00 | 0.00 | 0.27 | 38 | 1006.9 |
| 20260507174034 | 63 | 360 | 0.0 | 0.9 | 0.00 | 0.31 | 0.27 | 39 | 1006.6 |
| 20260507174006 | 63 | 0 | 0.0 | 0.9 | 0.00 | 0.00 | 0.27 | 39 | 1006.8 |
| 20260507173957 | 63 | 0 | 0.0 | 0.9 | 0.00 | 0.00 | 0.27 | 40 | 1006.8 |
| 20260507173749 | 63 | 0 | 0.0 | 0.9 | 0.00 | 0.00 | 0.27 | 37 | 1006.8 |
| 20260507173711 | 63 | 0 | 0.0 | 0.9 | 0.00 | 0.00 | 0.27 | 39 | 1006.9 |
| 20260507173558 | 63 | 0 | 0.0 | 0.9 | 0.00 | 0.00 | 0.27 | 39 | 1006.9 |
| 20260507173519 | 63 | 360 | 0.0 | 1.7 | 0.00 | 0.31 | 0.27 | 37 | 1006.9 |
| 20260507173432 | 63 | 0 | 0.0 | 1.7 | 0.00 | 0.00 | 0.27 | 39 | 1007.0 |
| 20260507173349 | 63 | 0 | 0.0 | 1.7 | 0.00 | 0.00 | 0.27 | 39 | 1007.0 |
| 20260507173248 | 63 | 0 | 0.0 | 3.5 | 0.00 | 0.00 | 0.27 | 37 | 1007.0 |
| 20260507173148 | 63 | 0 | 0.0 | 5.2 | 0.00 | 0.00 | 0.27 | 39 | 1007.1 |
| 20260507173048 | 63 | 0 | 0.0 | 12.2 | 0.00 | 0.00 | 0.27 | 38 | 1007.1 |
| 20260507173020 | 63 | 360 | 0.0 | 12.2 | 0.00 | 0.31 | 0.27 | 41 | 1007.1 |
| 20260507172930 | 63 | 0 | 0.0 | 12.2 | 0.00 | 0.00 | 0.27 | 41 | 1007.2 |
| 20260507172900 | 63 | 0 | 0.0 | 12.2 | 0.00 | 0.00 | 0.27 | 41 | 1007.2 |
| 20260507172856 | 63 | 0 | 0.0 | 12.2 | 0.00 | 0.00 | 0.27 | 43 | 1007.1 |
| 20260507172710 | 63 | 0 | 0.0 | 12.2 | 0.00 | 0.00 | 0.27 | 36 | 1007.2 |
| 20260507172706 | 63 | 0 | 0.0 | 12.2 | 0.00 | 0.00 | 0.27 | 39 | 1007.2 |
| 20260507172701 | 63 | 0 | 0.0 | 12.2 | 0.00 | 0.00 | 0.27 | 37 | 1007.2 |
| 20260507172543 | 63 | 0 | 0.0 | 12.2 | 0.00 | 0.00 | 0.27 | 37 | 1007.2 |
| 20260507172519 | 63 | 360 | 0.0 | 12.2 | 0.00 | 0.31 | 0.27 | 36 | 1007.1 |
| 20260507172431 | 63 | 0 | 0.0 | 12.2 | 0.00 | 0.00 | 0.27 | 37 | 1007.2 |
| 20260507172425 | 62 | 0 | 0.9 | 9.6 | 0.00 | 0.00 | 0.27 | 42 | 1007.3 |
| 20260507172420 | 63 | 0 | 0.0 | 12.2 | 0.00 | 0.00 | 0.27 | 41 | 1007.3 |
| 20260507172157 | 63 | 0 | 0.0 | 3.5 | 0.00 | 0.00 | 0.27 | 38 | 1007.2 |
| 20260507172148 | 63 | 0 | 0.0 | 9.6 | 0.00 | 0.00 | 0.27 | 39 | 1007.2 |
| 20260507172139 | 63 | 0 | 0.9 | 9.6 | 0.00 | 0.00 | 0.27 | 42 | 1007.2 |
| 20260507172019 | 63 | 360 | 0.0 | 8.7 | 0.00 | 0.31 | 0.27 | 39 | 1007.1 |
| 20260507171702 | 62 | 0 | 0.9 | 9.6 | 0.00 | 0.00 | 0.27 | 38 | 1007.4 |
| 20260507171658 | 62 | 0 | 0.9 | 9.6 | 0.00 | 0.00 | 0.27 | 40 | 1007.2 |
| 20260507171534 | 62 | 360 | 0.0 | 8.7 | 0.00 | 0.31 | 0.27 | 40 | 1007.3 |
| 20260507171428 | 62 | 0 | 0.9 | 9.6 | 0.00 | 0.00 | 0.27 | 38 | 1007.4 |
| 20260507171339 | 62 | 0 | 0.9 | 9.6 | 0.00 | 0.00 | 0.27 | 39 | 1007.4 |
| 20260507171236 | 62 | 0 | 0.9 | 9.6 | 0.00 | 0.00 | 0.27 | 39 | 1007.4 |
| 20260507171137 | 61 | 0 | 0.0 | 9.6 | 0.00 | 0.00 | 0.27 | 40 | 1007.4 |
| 20260507171049 | 61 | 360 | 0.0 | 5.2 | 0.00 | 0.31 | 0.27 | 41 | 1007.3 |
| 20260507171038 | 61 | 0 | 0.0 | 5.2 | 0.00 | 0.00 | 0.27 | 41 | 1007.3 |
| 20260507170929 | 61 | 0 | 0.0 | 5.2 | 0.00 | 0.00 | 0.27 | 42 | 1007.4 |
| 20260507170856 | 61 | 0 | 0.0 | 5.2 | 0.00 | 0.00 | 0.27 | 38 | 1007.5 |
| 20260507170743 | 61 | 0 | 0.0 | 5.2 | 0.00 | 0.00 | 0.27 | 40 | 1007.4 |
| 20260507170601 | 61 | 0 | 0.0 | 0.9 | 0.00 | 0.00 | 0.27 | 39 | 1007.5 |
| 20260507170519 | 61 | 360 | 0.0 | 0.9 | 0.00 | 0.31 | 0.27 | 39 | 1007.4 |
| 20260507170440 | 61 | 0 | 0.0 | 0.9 | 0.00 | 0.00 | 0.27 | 39 | 1007.5 |
| 20260507170233 | 61 | 0 | 0.0 | 0.9 | 0.00 | 0.00 | 0.27 | 45 | 1007.6 |
| 20260507170157 | 61 | 0 | 0.0 | 3.5 | 0.00 | 0.00 | 0.27 | 42 | 1007.6 |
| 20260507170043 | 61 | 0 | 0.0 | 7.0 | 0.00 | 0.00 | 0.27 | 42 | 1007.7 |
| 20260507170019 | 61 | 360 | 0.0 | 7.0 | 0.00 | 0.31 | 0.27 | 41 | 1007.6 |
| 20260507165926 | 61 | 0 | 0.0 | 7.0 | 0.00 | 0.00 | 0.27 | 43 | 1007.7 |
| 20260507165830 | 61 | 0 | 0.0 | 7.0 | 0.00 | 0.00 | 0.27 | 42 | 1007.6 |
| 20260507165729 | 61 | 0 | 0.0 | 7.0 | 0.00 | 0.00 | 0.27 | 40 | 1007.7 |
| 20260507165628 | 61 | 0 | 0.0 | 7.0 | 0.00 | 0.00 | 0.27 | 39 | 1007.7 |
| 20260507165528 | 61 | 0 | 0.0 | 7.0 | 0.00 | 0.00 | 0.27 | 40 | 1007.7 |
| 20260507165519 | 61 | 360 | 0.0 | 7.0 | 0.00 | 0.31 | 0.27 | 41 | 1007.6 |
| 20260507165429 | 61 | 0 | 0.0 | 7.0 | 0.00 | 0.00 | 0.27 | 40 | 1007.7 |
| 20260507165327 | 62 | 0 | 0.0 | 7.0 | 0.00 | 0.00 | 0.27 | 41 | 1007.7 |
| 20260507165227 | 62 | 0 | 0.0 | 7.0 | 0.00 | 0.00 | 0.27 | 38 | 1007.7 |
| 20260507165139 | 62 | 0 | 0.0 | 0.9 | 0.00 | 0.00 | 0.27 | 39 | 1007.7 |
| 20260507165135 | 62 | 0 | 0.0 | 3.5 | 0.00 | 0.00 | 0.27 | 41 | 1007.7 |
| 20260507165034 | 62 | 360 | 0.0 | 0.0 | 0.00 | 0.31 | 0.27 | 39 | 1007.6 |
| 20260507164927 | 62 | 0 | 0.0 | 0.9 | 0.00 | 0.00 | 0.27 | 41 | 1007.7 |
| 20260507164825 | 62 | 0 | 0.0 | 0.9 | 0.00 | 0.00 | 0.27 | 37 | 1007.7 |
| 20260507164725 | 62 | 0 | 0.0 | 0.9 | 0.00 | 0.00 | 0.27 | 40 | 1007.7 |
| 20260507164638 | 62 | 0 | 0.0 | 0.9 | 0.00 | 0.00 | 0.27 | 41 | 1007.7 |
| 20260507164634 | 62 | 0 | 0.0 | 0.9 | 0.00 | 0.00 | 0.27 | 40 | 1007.7 |
| 20260507164519 | 62 | 360 | 0.0 | 0.0 | 0.00 | 0.31 | 0.27 | 41 | 1007.6 |
| 20260507164423 | 62 | 0 | 0.0 | 0.0 | 0.00 | 0.00 | 0.27 | 41 | 1007.0 |
| 20260507163808 | 62 | 0 | 0.0 | 3.5 | 0.00 | 0.31 | 0.27 | 40 | 1007.9 |
| 20260507163708 | 62 | 0 | 0.0 | 3.5 | 0.00 | 0.31 | 0.27 | 40 | 1007.9 |
| 20260507163621 | 61 | 0 | 0.0 | 3.5 | 0.00 | 0.31 | 0.27 | 43 | 1007.9 |
| 20260507163616 | 61 | 0 | 0.0 | 3.5 | 0.00 | 0.31 | 0.27 | 41 | 1007.9 |
| 20260507163535 | 61 | 360 | 0.0 | 3.5 | 0.00 | 0.31 | 0.27 | 43 | 1007.8 |
| 20260507163433 | 61 | 0 | 0.0 | 2.6 | 0.00 | 0.31 | 0.27 | 40 | 1007.8 |
| 20260507163406 | 61 | 0 | 0.0 | 3.5 | 0.00 | 0.31 | 0.27 | 43 | 1007.8 |
| 20260507163321 | 61 | 0 | 0.0 | 3.5 | 0.00 | 0.31 | 0.27 | 42 | 1007.8 |
| 20260507163206 | 61 | 0 | 0.0 | 2.6 | 0.00 | 0.31 | 0.27 | 40 | 1007.8 |
| 20260507163132 | 61 | 0 | 0.0 | 8.7 | 0.00 | 0.31 | 0.27 | 39 | 1007.8 |
| 20260507163128 | 61 | 0 | 0.0 | 8.7 | 0.00 | 0.31 | 0.27 | 40 | 1007.8 |
| 20260507163123 | 61 | 0 | 0.0 | 2.6 | 0.00 | 0.31 | 0.27 | 40 | 1007.7 |
| 20260507163019 | 61 | 360 | 0.0 | 7.0 | 0.00 | 0.31 | 0.27 | 39 | 1007.7 |
| 20260507162804 | 61 | 0 | 0.0 | 8.7 | 0.00 | 0.31 | 0.27 | 43 | 1007.6 |
| 20260507162712 | 61 | 0 | 0.0 | 8.7 | 0.00 | 0.31 | 0.27 | 44 | 1007.6 |
| 20260507162703 | 61 | 0 | 0.0 | 8.7 | 0.00 | 0.31 | 0.27 | 42 | 1007.6 |
| 20260507162617 | 61 | 0 | 0.0 | 8.7 | 0.00 | 0.31 | 0.27 | 41 | 1007.6 |
| 20260507162612 | 61 | 0 | 0.0 | 8.7 | 0.00 | 0.31 | 0.27 | 43 | 1007.7 |
| 20260507162519 | 61 | 360 | 0.0 | 7.8 | 0.00 | 0.31 | 0.27 | 41 | 1007.5 |
| 20260507162402 | 61 | 0 | 0.0 | 8.7 | 0.00 | 0.31 | 0.27 | 43 | 1007.7 |
| 20260507162300 | 61 | 0 | 0.0 | 8.7 | 0.00 | 0.31 | 0.27 | 42 | 1007.8 |
| 20260507162210 | 61 | 0 | 0.0 | 8.7 | 0.00 | 0.31 | 0.27 | 41 | 1007.8 |
| 20260507162159 | 61 | 0 | 0.0 | 8.7 | 0.00 | 0.31 | 0.27 | 41 | 1007.8 |
| 20260507162059 | 61 | 0 | 0.0 | 8.7 | 0.00 | 0.31 | 0.27 | 41 | 1007.8 |
| 20260507162019 | 61 | 360 | 7.0 | 7.8 | 0.00 | 0.31 | 0.27 | 44 | 1007.6 |
| 20260507161959 | 61 | 0 | 0.0 | 7.0 | 0.00 | 0.31 | 0.27 | 44 | 1007.7 |
| 20260507161858 | 61 | 0 | 0.0 | 4.3 | 0.00 | 0.31 | 0.27 | 44 | 1007.7 |
| 20260507161757 | 61 | 0 | 0.0 | 4.3 | 0.00 | 0.31 | 0.27 | 42 | 1007.8 |
| 20260507161709 | 61 | 0 | 0.0 | 4.3 | 0.00 | 0.31 | 0.27 | 41 | 1007.9 |
| 20260507161657 | 61 | 0 | 0.0 | 4.3 | 0.00 | 0.31 | 0.27 | 41 | 1007.9 |
| 20260507161556 | 61 | 0 | 0.0 | 4.3 | 0.00 | 0.31 | 0.27 | 40 | 1007.9 |
| 20260507161519 | 61 | 360 | 0.0 | 4.3 | 0.00 | 0.31 | 0.27 | 40 | 1007.8 |
| 20260507161456 | 61 | 0 | 0.0 | 4.3 | 0.00 | 0.31 | 0.27 | 42 | 1007.9 |
| 20260507161355 | 61 | 0 | 0.0 | 4.3 | 0.00 | 0.32 | 0.27 | 42 | 1007.9 |
| 20260507161255 | 61 | 0 | 0.0 | 3.5 | 0.00 | 0.32 | 0.27 | 43 | 1007.9 |
| 20260507161209 | 61 | 0 | 0.0 | 3.5 | 0.00 | 0.32 | 0.27 | 44 | 1007.9 |
| 20260507161155 | 61 | 0 | 0.0 | 3.5 | 0.00 | 0.32 | 0.27 | 44 | 1007.9 |
| 20260507161053 | 61 | 0 | 0.0 | 3.5 | 0.00 | 0.32 | 0.27 | 43 | 1008.0 |
| 20260507161019 | 61 | 360 | 0.0 | 3.5 | 0.00 | 0.32 | 0.27 | 43 | 1008.0 |
| 20260507160953 | 61 | 0 | 0.0 | 3.5 | 0.00 | 0.32 | 0.27 | 42 | 1008.1 |
| 20260507160852 | 61 | 0 | 0.0 | 3.5 | 0.00 | 0.32 | 0.27 | 43 | 1008.1 |
| 20260507160812 | 61 | 0 | 0.0 | 4.3 | 0.00 | 0.32 | 0.27 | 45 | 1008.1 |
| 20260507160807 | 61 | 0 | 0.0 | 3.5 | 0.00 | 0.32 | 0.27 | 42 | 1008.0 |
| 20260507160759 | 61 | 0 | 0.0 | 3.5 | 0.00 | 0.32 | 0.27 | 45 | 1008.1 |
| 20260507160552 | 61 | 0 | 0.0 | 4.3 | 0.00 | 0.32 | 0.27 | 43 | 1007.9 |
| 20260507160519 | 61 | 360 | 0.0 | 4.3 | 0.00 | 0.32 | 0.27 | 45 | 1007.9 |
| 20260507160452 | 61 | 0 | 0.0 | 4.3 | 0.00 | 0.32 | 0.27 | 44 | 1008.0 |
| 20260507160351 | 61 | 0 | 0.0 | 4.3 | 0.00 | 0.32 | 0.27 | 43 | 1007.9 |
| 20260507160251 | 61 | 0 | 0.0 | 4.3 | 0.00 | 0.32 | 0.27 | 43 | 1007.9 |
| 20260507160208 | 61 | 0 | 0.0 | 4.3 | 0.00 | 0.32 | 0.27 | 44 | 1008.0 |
| 20260507160150 | 61 | 0 | 0.0 | 4.3 | 0.00 | 0.32 | 0.27 | 44 | 1008.0 |
| 20260507160050 | 61 | 0 | 0.0 | 4.3 | 0.00 | 0.32 | 0.27 | 43 | 1008.0 |
| 20260507160019 | 61 | 360 | 0.0 | 4.3 | 0.00 | 0.32 | 0.27 | 45 | 1007.9 |
| 20260507155949 | 61 | 0 | 0.0 | 4.3 | 0.00 | 0.32 | 0.27 | 45 | 1008.0 |
| 20260507155903 | 61 | 0 | 0.0 | 4.3 | 0.00 | 0.32 | 0.27 | 46 | 1008.0 |
| 20260507155858 | 61 | 0 | 0.0 | 4.3 | 0.00 | 0.32 | 0.27 | 47 | 1008.1 |
| 20260507155706 | 61 | 0 | 0.0 | 4.3 | 0.00 | 0.33 | 0.27 | 46 | 1007.9 |
| 20260507155648 | 61 | 0 | 0.0 | 0.9 | 0.00 | 0.33 | 0.27 | 46 | 1007.9 |
| 20260507155546 | 61 | 0 | 0.0 | 8.7 | 0.00 | 0.33 | 0.27 | 49 | 1007.9 |
| 20260507155519 | 61 | 360 | 0.0 | 7.8 | 0.00 | 0.33 | 0.27 | 50 | 1007.8 |
| 20260507155446 | 61 | 0 | 0.0 | 8.7 | 0.00 | 0.33 | 0.27 | 50 | 1007.9 |
| 20260507155359 | 60 | 0 | 0.0 | 8.7 | 0.00 | 0.33 | 0.27 | 49 | 1008.0 |
| 20260507155354 | 60 | 0 | 0.0 | 8.7 | 0.00 | 0.33 | 0.27 | 46 | 1007.9 |
| 20260507155204 | 60 | 0 | 0.0 | 8.7 | 0.00 | 0.33 | 0.27 | 47 | 1005.1 |
| 20260507155144 | 60 | 0 | 0.0 | 8.7 | 0.00 | 0.34 | 0.27 | 47 | 1005.1 |
| 20260507155044 | 60 | 0 | 0.0 | 8.7 | 0.00 | 0.34 | 0.27 | 46 | 1005.1 |
| 20260507155020 | 60 | 360 | 0.0 | 7.8 | 0.00 | 0.34 | 0.27 | 47 | 1005.1 |
| 20260507154943 | 60 | 0 | 0.0 | 8.7 | 0.00 | 0.34 | 0.27 | 47 | 1005.1 |
| 20260507154915 | 60 | 0 | 0.0 | 8.7 | 0.00 | 0.34 | 0.27 | 47 | 1004.9 |
| 20260507154911 | 60 | 0 | 0.0 | 8.7 | 0.00 | 0.34 | 0.27 | 49 | 1004.9 |
| 20260507154906 | 60 | 0 | 0.0 | 8.7 | 0.00 | 0.34 | 0.27 | 49 | 1005.0 |
| 20260507154749 | 60 | 0 | 0.0 | 8.7 | 0.00 | 0.34 | 0.27 | 47 | 1004.9 |
| 20260507154541 | 60 | 0 | 0.0 | 4.3 | 0.00 | 0.34 | 0.27 | 49 | 1007.3 |
| 20260507154534 | 60 | 360 | 0.0 | 4.3 | 0.00 | 0.34 | 0.27 | 48 | 1007.2 |
| 20260507154441 | 60 | 0 | 0.0 | 4.3 | 0.00 | 0.34 | 0.27 | 48 | 1007.3 |
| 20260507154355 | 60 | 0 | 0.0 | 4.3 | 0.00 | 0.35 | 0.27 | 47 | 1004.4 |
| 20260507154350 | 60 | 0 | 0.0 | 4.3 | 0.00 | 0.35 | 0.27 | 47 | 1004.4 |
| 20260507154200 | 60 | 0 | 0.0 | 4.3 | 0.00 | 0.35 | 0.27 | 47 | 1004.0 |
| 20260507154154 | 60 | 0 | 0.0 | 4.3 | 0.00 | 0.35 | 0.27 | 47 | 1004.0 |
| 20260507154149 | 60 | 0 | 0.0 | 4.3 | 0.00 | 0.35 | 0.27 | 46 | 1004.0 |
| 20260507154019 | 60 | 360 | 0.0 | 4.3 | 0.00 | 0.35 | 0.27 | 47 | 1004.0 |
| 20260507153939 | 60 | 0 | 0.0 | 4.3 | 0.00 | 0.35 | 0.27 | 46 | 1004.0 |
| 20260507153839 | 60 | 0 | 0.0 | 4.3 | 0.00 | 0.36 | 0.27 | 46 | 1004.0 |
| 20260507153739 | 60 | 0 | 0.0 | 4.3 | 0.00 | 0.36 | 0.27 | 48 | 1004.0 |
| 20260507153701 | 60 | 0 | 0.0 | 4.3 | 0.00 | 0.36 | 0.27 | 48 | 1004.0 |
| 20260507153638 | 60 | 338 | 0.0 | 4.3 | 0.00 | 0.36 | 0.27 | 48 | 1004.0 |
| 20260507153536 | 60 | 310 | 0.0 | 3.5 | 0.00 | 0.36 | 0.27 | 50 | 1004.0 |
| 20260507153519 | 60 | 360 | 0.0 | 3.5 | 0.00 | 0.36 | 0.27 | 50 | 1004.0 |
| 20260507153436 | 60 | 0 | 0.0 | 3.5 | 0.00 | 0.36 | 0.27 | 50 | 1004.0 |
| 20260507153336 | 60 | 0 | 0.0 | 3.5 | 0.00 | 0.36 | 0.27 | 48 | 1004.0 |
| 20260507153235 | 60 | 321 | 0.0 | 3.5 | 0.00 | 0.36 | 0.27 | 48 | 1004.0 |
| 20260507153201 | 60 | 0 | 0.0 | 3.5 | 0.00 | 0.37 | 0.27 | 48 | 1004.0 |
| 20260507153149 | 60 | 0 | 0.0 | 3.5 | 0.00 | 0.37 | 0.27 | 47 | 1004.0 |
| 20260507153143 | 60 | 0 | 0.0 | 3.5 | 0.00 | 0.37 | 0.27 | 50 | 1004.0 |
| 20260507153019 | 60 | 315 | 0.0 | 3.5 | 0.00 | 0.37 | 0.27 | 47 | 1004.0 |
| 20260507152934 | 60 | 329 | 0.0 | 3.5 | 0.00 | 0.37 | 0.27 | 47 | 1004.0 |
| 20260507152833 | 60 | 37 | 0.0 | 3.5 | 0.00 | 0.37 | 0.27 | 48 | 1003.9 |
| 20260507152733 | 60 | 33 | 0.0 | 3.5 | 0.00 | 0.38 | 0.27 | 45 | 1003.9 |
| 20260507152658 | 60 | 336 | 0.0 | 3.5 | 0.00 | 0.38 | 0.27 | 46 | 1003.9 |
| 20260507152644 | 61 | 39 | 0.0 | 2.6 | 0.00 | 0.38 | 0.27 | 50 | 1003.9 |
| 20260507152639 | 60 | 15 | 0.0 | 3.5 | 0.00 | 0.38 | 0.27 | 46 | 1003.9 |
| 20260507152549 | 61 | 348 | 0.0 | 2.6 | 0.00 | 0.38 | 0.27 | 50 | 1003.8 |
| 20260507152431 | 61 | 349 | 0.0 | 2.6 | 0.00 | 0.38 | 0.27 | 49 | 1003.8 |
| 20260507152330 | 61 | 355 | 0.0 | 2.6 | 0.00 | 0.38 | 0.27 | 46 | 1003.8 |
| 20260507152230 | 61 | 342 | 0.0 | 2.6 | 0.00 | 0.38 | 0.27 | 48 | 1003.8 |
| 20260507152157 | 61 | 347 | 0.0 | 2.6 | 0.00 | 0.38 | 0.27 | 49 | 1003.8 |
| 20260507152129 | 61 | 22 | 0.0 | 2.6 | 0.00 | 0.39 | 0.27 | 49 | 1003.8 |
| 20260507152028 | 61 | 343 | 0.0 | 2.6 | 0.00 | 0.39 | 0.27 | 51 | 1003.9 |
| 20260507152019 | 61 | 322 | 0.0 | 2.6 | 0.00 | 0.39 | 0.27 | 51 | 1004.0 |
| 20260507151928 | 61 | 264 | 0.0 | 2.6 | 0.00 | 0.39 | 0.27 | 53 | 1003.9 |
| 20260507151827 | 60 | 271 | 0.0 | 2.6 | 0.00 | 0.39 | 0.27 | 52 | 1004.1 |
| 20260507151726 | 60 | 0 | 0.0 | 1.7 | 0.00 | 0.39 | 0.27 | 51 | 1004.0 |
| 20260507151658 | 60 | 0 | 0.0 | 1.7 | 0.00 | 0.40 | 0.27 | 53 | 1003.9 |
| 20260507151625 | 60 | 0 | 0.0 | 1.7 | 0.00 | 0.40 | 0.27 | 53 | 1003.9 |
| 20260507151539 | 60 | 278 | 0.0 | 1.7 | 0.00 | 0.40 | 0.27 | 53 | 1003.8 |
| 20260507151534 | 60 | 0 | 0.0 | 1.7 | 0.00 | 0.40 | 0.27 | 55 | 1003.8 |
| 20260507151324 | 59 | 0 | 0.0 | 7.0 | 0.00 | 0.40 | 0.27 | 56 | 1003.9 |
| 20260507151224 | 59 | 0 | 0.0 | 7.0 | 0.00 | 0.40 | 0.27 | 60 | 1003.9 |
| 20260507151157 | 59 | 0 | 0.0 | 7.0 | 0.00 | 0.40 | 0.27 | 60 | 1004.0 |
| 20260507151123 | 59 | 0 | 0.0 | 7.0 | 0.00 | 0.41 | 0.27 | 58 | 1004.0 |
| 20260507151023 | 59 | 0 | 0.0 | 7.0 | 0.00 | 0.41 | 0.27 | 55 | 1003.9 |
| 20260507151019 | 59 | 360 | 0.0 | 7.0 | 0.00 | 0.41 | 0.27 | 53 | 1003.8 |
| 20260507151010 | 59 | 0 | 0.0 | 7.0 | 0.00 | 0.41 | 0.27 | 54 | 1003.8 |
| 20260507151006 | 59 | 0 | 0.0 | 7.0 | 0.00 | 0.41 | 0.27 | 54 | 1003.8 |
| 20260507151002 | 59 | 0 | 0.0 | 7.0 | 0.00 | 0.41 | 0.27 | 51 | 1003.8 |
| 20260507150955 | 59 | 0 | 0.0 | 7.0 | 0.00 | 0.41 | 0.27 | 53 | 1003.8 |
| 20260507150946 | 59 | 0 | 0.0 | 7.0 | 0.00 | 0.41 | 0.27 | 52 | 1003.7 |
| 20260507150522 | 59 | 0 | 0.0 | 7.0 | 0.00 | 0.41 | 0.27 | 50 | 1003.9 |
| 20260507150519 | 59 | 360 | 0.0 | 7.0 | 0.00 | 0.41 | 0.27 | 50 | 1003.9 |
| 20260507150426 | 59 | 350 | 0.0 | 4.3 | 0.00 | 0.41 | 0.27 | 55 | 1004.0 |
| 20260507150422 | 59 | 0 | 0.0 | 7.0 | 0.00 | 0.41 | 0.27 | 53 | 1003.9 |
| 20260507150321 | 59 | 0 | 0.0 | 4.3 | 0.00 | 0.41 | 0.27 | 52 | 1003.9 |
| 20260507150305 | 59 | 18 | 0.0 | 4.3 | 0.00 | 0.41 | 0.27 | 55 | 1003.9 |
| 20260507150120 | 59 | 0 | 0.0 | 0.0 | 0.00 | 0.41 | 0.27 | 57 | 1004.0 |
| 20260507150021 | 59 | 0 | 0.0 | 0.0 | 0.00 | 0.41 | 0.27 | 57 | 1004.0 |
| 20260507150019 | 59 | 360 | 0.0 | 0.9 | 0.00 | 0.41 | 0.27 | 57 | 1004.0 |
| 20260507145919 | 59 | 0 | 0.0 | 2.6 | 0.00 | 0.41 | 0.27 | 56 | 1004.0 |
| 20260507145818 | 59 | 0 | 0.0 | 2.6 | 0.00 | 0.42 | 0.27 | 56 | 1004.0 |
| 20260507145737 | 58 | 0 | 0.0 | 5.2 | 0.00 | 0.42 | 0.27 | 57 | 1004.0 |
| 20260507145732 | 58 | 0 | 0.0 | 5.2 | 0.00 | 0.42 | 0.27 | 57 | 1004.0 |
| 20260507145725 | 58 | 0 | 0.0 | 5.2 | 0.00 | 0.42 | 0.27 | 57 | 1004.0 |
| 20260507145535 | 58 | 360 | 0.0 | 5.2 | 0.00 | 0.42 | 0.27 | 54 | 1004.1 |
| 20260507145529 | 58 | 0 | 0.0 | 5.2 | 0.00 | 0.42 | 0.27 | 54 | 1004.0 |
| 20260507145416 | 58 | 0 | 0.0 | 5.2 | 0.00 | 0.42 | 0.27 | 56 | 1004.1 |
| 20260507145316 | 58 | 0 | 0.0 | 5.2 | 0.00 | 0.42 | 0.27 | 56 | 1004.1 |
| 20260507145306 | 58 | 0 | 0.0 | 5.2 | 0.00 | 0.42 | 0.27 | 56 | 1004.0 |
| 20260507145116 | 57 | 0 | 0.0 | 5.2 | 0.00 | 0.42 | 0.27 | 56 | 1004.1 |
| 20260507145019 | 57 | 360 | 0.0 | 5.2 | 0.00 | 0.42 | 0.27 | 55 | 1004.0 |
| 20260507145015 | 57 | 0 | 0.0 | 5.2 | 0.00 | 0.42 | 0.27 | 55 | 1004.0 |
| 20260507144914 | 57 | 0 | 0.0 | 5.2 | 0.00 | 0.42 | 0.27 | 56 | 1006.7 |
| 20260507144815 | 57 | 0 | 0.0 | 5.2 | 0.00 | 0.42 | 0.27 | 56 | 1006.7 |
| 20260507144714 | 57 | 0 | 0.0 | 2.6 | 0.00 | 0.42 | 0.27 | 59 | 1008.1 |
| 20260507144655 | 57 | 0 | 0.0 | 2.6 | 0.00 | 0.42 | 0.27 | 58 | 1008.1 |
| 20260507144629 | 57 | 0 | 0.0 | 2.6 | 0.00 | 0.42 | 0.27 | 59 | 1008.1 |
| 20260507144623 | 57 | 0 | 0.0 | 2.6 | 0.00 | 0.42 | 0.27 | 58 | 1008.1 |
| 20260507144519 | 57 | 360 | 0.0 | 2.6 | 0.00 | 0.42 | 0.27 | 59 | 1008.1 |
| 20260507144413 | 57 | 0 | 0.0 | 2.6 | 0.00 | 0.42 | 0.27 | 57 | 1008.1 |
| 20260507144312 | 57 | 0 | 0.0 | 2.6 | 0.00 | 0.43 | 0.27 | 55 | 1008.1 |
| 20260507144212 | 57 | 0 | 0.0 | 2.6 | 0.00 | 0.43 | 0.27 | 56 | 1008.1 |
| 20260507144156 | 57 | 0 | 0.0 | 2.6 | 0.00 | 0.43 | 0.27 | 55 | 1008.1 |
| 20260507144112 | 58 | 0 | 0.0 | 2.6 | 0.00 | 0.43 | 0.27 | 56 | 1008.2 |
| 20260507144019 | 58 | 360 | 0.0 | 4.3 | 0.00 | 0.43 | 0.27 | 57 | 1008.1 |
| 20260507144009 | 58 | 0 | 0.0 | 4.3 | 0.00 | 0.43 | 0.27 | 57 | 1008.2 |
| 20260507143923 | 57 | 0 | 0.0 | 4.3 | 0.00 | 0.43 | 0.27 | 59 | 1008.1 |
| 20260507143917 | 57 | 0 | 0.0 | 4.3 | 0.00 | 0.43 | 0.27 | 61 | 1008.1 |
| 20260507143708 | 57 | 0 | 0.0 | 4.3 | 0.00 | 0.43 | 0.27 | 57 | 1008.1 |
| 20260507143655 | 57 | 0 | 0.0 | 5.2 | 0.00 | 0.43 | 0.27 | 57 | 1008.1 |
| 20260507143621 | 56 | 0 | 0.0 | 5.2 | 0.00 | 0.43 | 0.27 | 62 | 1008.1 |
| 20260507143616 | 57 | 0 | 0.0 | 5.2 | 0.00 | 0.43 | 0.27 | 57 | 1008.1 |
| 20260507143549 | 56 | 360 | 0.0 | 5.2 | 0.00 | 0.43 | 0.27 | 62 | 1008.1 |
| 20260507143420 | 56 | 0 | 0.0 | 5.2 | 0.00 | 0.44 | 0.27 | 60 | 1008.1 |
| 20260507143414 | 56 | 0 | 0.0 | 5.2 | 0.00 | 0.44 | 0.27 | 61 | 1008.1 |
| 20260507143206 | 56 | 0 | 0.0 | 5.2 | 0.00 | 0.44 | 0.27 | 59 | 1008.3 |
| 20260507143154 | 56 | 0 | 0.0 | 5.2 | 0.00 | 0.44 | 0.27 | 59 | 1008.3 |
| 20260507143118 | 56 | 0 | 0.0 | 5.2 | 0.00 | 0.44 | 0.27 | 59 | 1008.3 |
| 20260507143113 | 56 | 0 | 0.0 | 5.2 | 0.00 | 0.44 | 0.27 | 59 | 1008.2 |
| 20260507143019 | 56 | 360 | 0.0 | 5.2 | 0.00 | 0.44 | 0.27 | 59 | 1008.3 |
| 20260507142902 | 56 | 0 | 0.0 | 5.2 | 0.00 | 0.44 | 0.27 | 59 | 1008.3 |
| 20260507142802 | 56 | 0 | 0.0 | 5.2 | 0.00 | 0.44 | 0.27 | 59 | 1004.0 |
| 20260507142653 | 56 | 0 | 0.0 | 5.2 | 0.00 | 0.45 | 0.27 | 61 | 1004.0 |
| 20260507142602 | 56 | 9 | 0.0 | 3.5 | 0.00 | 0.45 | 0.27 | 60 | 1004.2 |
| 20260507142550 | 56 | 22 | 0.0 | 3.5 | 0.00 | 0.45 | 0.27 | 60 | 1007.9 |
| 20260507142502 | 56 | 22 | 0.0 | 4.3 | 0.00 | 0.45 | 0.27 | 60 | 1007.9 |
| 20260507142401 | 56 | 284 | 0.0 | 4.3 | 0.00 | 0.45 | 0.27 | 60 | 1007.9 |
| 20260507142301 | 56 | 316 | 0.0 | 4.3 | 0.00 | 0.45 | 0.27 | 59 | 1007.9 |
| 20260507142156 | 56 | 342 | 0.0 | 4.3 | 0.00 | 0.45 | 0.27 | 60 | 1007.9 |
| 20260507142127 | 56 | 9 | 0.0 | 4.3 | 0.00 | 0.45 | 0.27 | 59 | 1007.0 |
| 20260507142123 | 56 | 0 | 0.0 | 4.3 | 0.00 | 0.45 | 0.27 | 61 | 1007.0 |
| 20260507142117 | 56 | 295 | 0.0 | 4.3 | 0.00 | 0.45 | 0.27 | 60 | 1007.9 |
| 20260507142019 | 56 | 9 | 0.0 | 3.5 | 0.00 | 0.45 | 0.27 | 59 | 1007.0 |
| 20260507141757 | 56 | 0 | 0.0 | 4.3 | 0.00 | 0.45 | 0.27 | 59 | 1007.3 |
| 20260507141653 | 56 | 0 | 0.0 | 4.3 | 0.00 | 0.45 | 0.27 | 59 | 1005.1 |
| 20260507141556 | 56 | 0 | 0.0 | 4.3 | 0.00 | 0.45 | 0.27 | 59 | 1005.1 |
| 20260507141519 | 56 | 360 | 0.0 | 4.3 | 0.00 | 0.45 | 0.27 | 60 | 1005.1 |
| 20260507141455 | 56 | 0 | 0.9 | 4.3 | 0.00 | 0.45 | 0.27 | 60 | 1005.1 |
| 20260507141409 | 57 | 0 | 0.9 | 7.0 | 0.00 | 0.45 | 0.27 | 58 | 1005.4 |
| 20260507141355 | 56 | 0 | 0.9 | 7.0 | 0.00 | 0.45 | 0.27 | 59 | 1005.1 |
| 20260507141306 | 57 | 0 | 0.9 | 7.0 | 0.00 | 0.45 | 0.27 | 60 | 1005.1 |
| 20260507141257 | 57 | 0 | 0.9 | 7.0 | 0.00 | 0.45 | 0.27 | 58 | 1005.4 |
| 20260507141055 | 57 | 0 | 0.9 | 7.0 | 0.00 | 0.45 | 0.27 | 61 | 1007.3 |
| 20260507141019 | 57 | 360 | 0.0 | 7.0 | 0.00 | 0.45 | 0.27 | 61 | 1007.3 |
| 20260507140954 | 57 | 0 | 0.9 | 7.0 | 0.00 | 0.45 | 0.27 | 61 | 1007.3 |
| 20260507140854 | 57 | 0 | 0.9 | 7.8 | 0.00 | 0.45 | 0.27 | 61 | 1007.4 |
| 20260507140752 | 57 | 0 | 1.7 | 8.7 | 0.00 | 0.45 | 0.27 | 61 | 1007.4 |
| 20260507140650 | 57 | 0 | 1.7 | 8.7 | 0.00 | 0.45 | 0.27 | 62 | 1004.2 |
| 20260507140551 | 57 | 0 | 1.7 | 8.7 | 0.00 | 0.45 | 0.27 | 62 | 1004.2 |
| 20260507140519 | 57 | 360 | 0.0 | 8.7 | 0.00 | 0.45 | 0.27 | 61 | 1004.2 |
| 20260507140451 | 57 | 0 | 1.7 | 8.7 | 0.00 | 0.45 | 0.27 | 61 | 1004.2 |
| 20260507140351 | 57 | 0 | 1.7 | 8.7 | 0.00 | 0.45 | 0.27 | 63 | 1004.2 |
| 20260507140251 | 57 | 323 | 1.7 | 8.7 | 0.00 | 0.45 | 0.27 | 61 | 1004.2 |
| 20260507140151 | 57 | 306 | 1.7 | 8.7 | 0.00 | 0.45 | 0.27 | 61 | 1004.2 |
| 20260507140111 | 57 | 309 | 2.6 | 8.7 | 0.00 | 0.45 | 0.27 | 62 | 1004.2 |
| 20260507140019 | 57 | 309 | 0.0 | 8.7 | 0.00 | 0.45 | 0.27 | 61 | 1004.2 |
| 20260507135958 | 57 | 309 | 2.6 | 8.7 | 0.00 | 0.45 | 0.27 | 61 | 1004.2 |
| 20260507135747 | 57 | 20 | 1.7 | 4.3 | 0.00 | 0.45 | 0.27 | 69 | 1004.2 |
| 20260507135653 | 57 | 17 | 1.7 | 5.2 | 0.00 | 0.45 | 0.27 | 66 | 1004.2 |
| 20260507135646 | 57 | 342 | 1.7 | 5.2 | 0.00 | 0.45 | 0.27 | 66 | 1004.2 |
| 20260507135546 | 56 | 351 | 1.7 | 5.2 | 0.00 | 0.45 | 0.27 | 65 | 1004.5 |
| 20260507135519 | 56 | 5 | 0.9 | 5.2 | 0.00 | 0.45 | 0.27 | 65 | 1004.9 |
| 20260507135445 | 56 | 5 | 1.7 | 5.2 | 0.00 | 0.45 | 0.27 | 66 | 1004.8 |
| 20260507135420 | 56 | 317 | 1.7 | 5.2 | 0.00 | 0.45 | 0.27 | 67 | 1004.6 |
| 20260507135345 | 56 | 288 | 1.7 | 5.2 | 0.00 | 0.45 | 0.27 | 66 | 1004.8 |
| 20260507135313 | 55 | 319 | 1.7 | 7.8 | 0.00 | 0.45 | 0.27 | 68 | 1005.4 |
| 20260507135308 | 56 | 295 | 1.7 | 5.2 | 0.00 | 0.45 | 0.27 | 67 | 1004.8 |
| 20260507135153 | 56 | 316 | 1.7 | 5.2 | 0.00 | 0.45 | 0.27 | 67 | 1004.6 |
| 20260507135019 | 55 | 332 | 4.3 | 7.8 | 0.00 | 0.45 | 0.27 | 68 | 1005.5 |
| 20260507134942 | 55 | 319 | 1.7 | 7.8 | 0.00 | 0.45 | 0.27 | 71 | 1005.4 |
| 20260507134842 | 55 | 0 | 2.6 | 7.8 | 0.00 | 0.45 | 0.27 | 70 | 1005.4 |
| 20260507134742 | 55 | 30 | 2.6 | 7.8 | 0.00 | 0.45 | 0.27 | 70 | 1004.8 |
| 20260507134641 | 55 | 0 | 2.6 | 7.8 | 0.00 | 0.45 | 0.27 | 72 | 1005.0 |
| 20260507134556 | 54 | 0 | 3.5 | 8.7 | 0.00 | 0.45 | 0.27 | 68 | 1005.0 |
| 20260507134550 | 54 | 0 | 2.6 | 7.8 | 0.00 | 0.45 | 0.27 | 70 | 1005.0 |
| 20260507134519 | 54 | 360 | 0.9 | 8.7 | 0.00 | 0.45 | 0.27 | 70 | 1005.2 |
| 20260507134340 | 54 | 0 | 3.5 | 8.7 | 0.00 | 0.45 | 0.27 | 67 | 1005.0 |
| 20260507134240 | 54 | 0 | 3.5 | 8.7 | 0.00 | 0.45 | 0.27 | 67 | 1004.9 |
| 20260507134139 | 54 | 0 | 3.5 | 8.7 | 0.00 | 0.45 | 0.27 | 67 | 1004.8 |
| 20260507134038 | 54 | 0 | 3.5 | 8.7 | 0.00 | 0.45 | 0.27 | 68 | 1006.9 |
| 20260507134019 | 54 | 360 | 0.9 | 8.7 | 0.00 | 0.45 | 0.27 | 66 | 1007.0 |
| 20260507133937 | 54 | 0 | 3.5 | 8.7 | 0.00 | 0.45 | 0.27 | 67 | 1006.9 |
| 20260507133907 | 54 | 0 | 3.5 | 8.7 | 0.00 | 0.45 | 0.27 | 66 | 1005.1 |
| 20260507133838 | 54 | 0 | 3.5 | 8.7 | 0.00 | 0.45 | 0.27 | 67 | 1005.1 |
| 20260507133752 | 54 | 0 | 3.5 | 8.7 | 0.00 | 0.45 | 0.27 | 67 | 1005.1 |
| 20260507133639 | 54 | 0 | 3.5 | 8.7 | 0.00 | 0.45 | 0.27 | 66 | 1005.1 |
| 20260507133538 | 54 | 0 | 2.6 | 8.7 | 0.00 | 0.45 | 0.27 | 66 | 1005.1 |
| 20260507133519 | 55 | 360 | 4.3 | 7.8 | 0.00 | 0.45 | 0.27 | 67 | 1005.3 |
| 20260507133438 | 55 | 0 | 2.6 | 7.8 | 0.00 | 0.45 | 0.27 | 67 | 1005.1 |
| 20260507133336 | 55 | 5 | 2.6 | 7.8 | 0.00 | 0.45 | 0.27 | 67 | 1005.1 |
| 20260507133251 | 54 | 339 | 2.6 | 7.8 | 0.00 | 0.45 | 0.27 | 68 | 1005.1 |
| 20260507133242 | 54 | 319 | 2.6 | 7.8 | 0.00 | 0.45 | 0.27 | 67 | 1005.1 |
| 20260507133035 | 54 | 281 | 2.6 | 7.8 | 0.00 | 0.45 | 0.27 | 67 | 1005.1 |
| 20260507133019 | 54 | 290 | 1.7 | 7.8 | 0.00 | 0.45 | 0.27 | 68 | 1005.4 |
| 20260507132934 | 54 | 278 | 2.6 | 7.8 | 0.00 | 0.45 | 0.27 | 68 | 1005.2 |
| 20260507132834 | 54 | 298 | 2.6 | 7.8 | 0.00 | 0.45 | 0.27 | 69 | 1005.5 |
| 20260507132732 | 54 | 316 | 2.6 | 7.8 | 0.00 | 0.45 | 0.27 | 69 | 1005.4 |
| 20260507132641 | 54 | 321 | 2.6 | 7.8 | 0.00 | 0.45 | 0.27 | 68 | 1005.7 |
| 20260507132631 | 54 | 328 | 2.6 | 7.8 | 0.00 | 0.45 | 0.27 | 68 | 1005.7 |
| 20260507132544 | 53 | 337 | 2.6 | 7.8 | 0.00 | 0.45 | 0.27 | 69 | 1006.8 |
| 20260507132540 | 53 | 250 | 2.6 | 7.8 | 0.00 | 0.45 | 0.27 | 68 | 1005.5 |
| 20260507132519 | 53 | 291 | 6.1 | 7.8 | 0.00 | 0.45 | 0.27 | 68 | 1006.8 |
| 20260507132331 | 53 | 306 | 2.6 | 5.2 | 0.00 | 0.45 | 0.27 | 69 | 1006.8 |
| 20260507132231 | 53 | 313 | 2.6 | 5.2 | 0.00 | 0.45 | 0.27 | 70 | 1005.5 |
| 20260507132142 | 53 | 342 | 2.6 | 5.2 | 0.00 | 0.45 | 0.27 | 73 | 1005.5 |
| 20260507132130 | 53 | 340 | 2.6 | 5.2 | 0.00 | 0.45 | 0.27 | 73 | 1005.5 |
| 20260507132029 | 53 | 0 | 2.6 | 5.2 | 0.00 | 0.45 | 0.27 | 73 | 1005.7 |
| 20260507132019 | 53 | 360 | 2.6 | 5.2 | 0.00 | 0.45 | 0.27 | 73 | 1005.8 |
| 20260507131941 | 53 | 0 | 2.6 | 5.2 | 0.00 | 0.45 | 0.27 | 72 | 1005.8 |
| 20260507131936 | 53 | 0 | 2.6 | 5.2 | 0.00 | 0.45 | 0.27 | 74 | 1005.8 |
| 20260507131727 | 53 | 0 | 2.6 | 5.2 | 0.00 | 0.45 | 0.27 | 71 | 1005.8 |
| 20260507131626 | 53 | 0 | 2.6 | 5.2 | 0.00 | 0.45 | 0.27 | 72 | 1005.9 |
| 20260507131527 | 53 | 0 | 2.6 | 5.2 | 0.00 | 0.45 | 0.27 | 72 | 1005.9 |
| 20260507131519 | 53 | 360 | 3.5 | 5.2 | 0.00 | 0.45 | 0.27 | 72 | 1005.9 |
| 20260507131426 | 53 | 0 | 2.6 | 7.8 | 0.00 | 0.45 | 0.27 | 74 | 1005.9 |
| 20260507131338 | 53 | 0 | 2.6 | 7.8 | 0.00 | 0.45 | 0.27 | 75 | 1006.8 |
| 20260507131333 | 53 | 0 | 2.6 | 7.8 | 0.00 | 0.45 | 0.27 | 75 | 1006.8 |
| 20260507131138 | 52 | 0 | 2.6 | 7.8 | 0.00 | 0.45 | 0.27 | 75 | 1005.9 |
| 20260507131124 | 52 | 0 | 2.6 | 8.7 | 0.00 | 0.45 | 0.27 | 75 | 1005.9 |
| 20260507131025 | 52 | 0 | 2.6 | 8.7 | 0.00 | 0.45 | 0.27 | 76 | 1005.9 |
| 20260507131019 | 52 | 360 | 1.7 | 8.7 | 0.00 | 0.45 | 0.27 | 76 | 1005.9 |
| 20260507130925 | 52 | 0 | 2.6 | 8.7 | 0.00 | 0.45 | 0.27 | 77 | 1005.9 |
| 20260507130836 | 52 | 0 | 2.6 | 8.7 | 0.00 | 0.45 | 0.27 | 78 | 1006.4 |
| 20260507130832 | 52 | 0 | 2.6 | 8.7 | 0.00 | 0.45 | 0.27 | 78 | 1006.3 |
| 20260507130623 | 52 | 0 | 2.6 | 8.7 | 0.00 | 0.45 | 0.27 | 79 | 1005.9 |
| 20260507130522 | 52 | 0 | 2.6 | 8.7 | 0.00 | 0.45 | 0.27 | 80 | 1006.1 |
| 20260507130519 | 52 | 360 | 3.5 | 8.7 | 0.00 | 0.45 | 0.27 | 80 | 1006.2 |
| 20260507130421 | 51 | 0 | 2.6 | 8.7 | 0.00 | 0.45 | 0.27 | 81 | 1006.1 |
| 20260507130321 | 51 | 0 | 2.6 | 8.7 | 0.00 | 0.45 | 0.27 | 81 | 1006.1 |
| 20260507130220 | 51 | 0 | 1.7 | 8.7 | 0.00 | 0.45 | 0.27 | 82 | 1006.1 |
| 20260507130135 | 51 | 0 | 1.7 | 8.7 | 0.00 | 0.45 | 0.27 | 85 | 1008.7 |
| 20260507130119 | 51 | 0 | 1.7 | 7.0 | 0.00 | 0.45 | 0.27 | 85 | 1008.7 |
| 20260507130034 | 51 | 360 | 4.3 | 4.3 | 0.00 | 0.45 | 0.27 | 89 | 1008.8 |
| 20260507130030 | 51 | 0 | 0.9 | 4.3 | 0.00 | 0.45 | 0.27 | 89 | 1008.7 |
| 20260507130026 | 51 | 0 | 0.9 | 4.3 | 0.00 | 0.45 | 0.27 | 89 | 1008.7 |
| 20260507125816 | 51 | 0 | 0.9 | 4.3 | 0.00 | 0.45 | 0.27 | 90 | 1008.7 |
| 20260507125716 | 51 | 0 | 0.9 | 3.5 | 0.00 | 0.45 | 0.27 | 90 | 1008.7 |
| 20260507125615 | 51 | 0 | 0.9 | 3.5 | 0.00 | 0.45 | 0.27 | 90 | 1008.7 |
| 20260507125542 | 51 | 0 | 0.9 | 4.3 | 0.00 | 0.45 | 0.27 | 90 | 1008.7 |
| 20260507125538 | 51 | 0 | 1.7 | 4.3 | 0.00 | 0.45 | 0.27 | 90 | 1007.8 |
| 20260507125532 | 51 | 0 | 0.9 | 3.5 | 0.00 | 0.45 | 0.27 | 90 | 1008.7 |
| 20260507125519 | 51 | 360 | 0.0 | 3.5 | 0.00 | 0.45 | 0.27 | 90 | 1008.8 |
| 20260507125214 | 50 | 0 | 1.7 | 4.3 | 0.00 | 0.45 | 0.27 | 90 | 1007.8 |
| 20260507125134 | 50 | 0 | 1.7 | 4.3 | 0.00 | 0.45 | 0.27 | 90 | 1007.8 |
| 20260507125126 | 50 | 0 | 1.7 | 4.3 | 0.00 | 0.45 | 0.27 | 90 | 1008.8 |
| 20260507125122 | 50 | 0 | 1.7 | 4.3 | 0.00 | 0.45 | 0.27 | 90 | 1008.8 |
| 20260507125020 | 50 | 360 | 0.9 | 4.3 | 0.00 | 0.45 | 0.27 | 90 | 1008.9 |
| 20260507124912 | 50 | 0 | 1.7 | 4.3 | 0.00 | 0.45 | 0.27 | 90 | 1009.1 |
| 20260507124825 | 50 | 0 | 0.9 | 4.3 | 0.00 | 0.45 | 0.27 | 91 | 1008.8 |
| 20260507124821 | 50 | 0 | 1.7 | 4.3 | 0.00 | 0.45 | 0.27 | 91 | 1009.1 |
| 20260507124631 | 50 | 0 | 0.9 | 4.3 | 0.00 | 0.45 | 0.27 | 92 | 1008.8 |
| 20260507124611 | 50 | 0 | 0.9 | 4.3 | 0.00 | 0.45 | 0.27 | 92 | 1009.2 |
| 20260507124519 | 50 | 360 | 1.7 | 4.3 | 0.00 | 0.45 | 0.27 | 92 | 1009.4 |
| 20260507124511 | 50 | 0 | 0.9 | 4.3 | 0.00 | 0.45 | 0.27 | 92 | 1009.3 |
| 20260507124409 | 50 | 0 | 0.9 | 3.5 | 0.00 | 0.45 | 0.27 | 93 | 1009.3 |
| 20260507124309 | 50 | 0 | 0.9 | 3.5 | 0.00 | 0.45 | 0.27 | 93 | 1009.2 |
| 20260507124208 | 50 | 0 | 0.9 | 3.5 | 0.00 | 0.45 | 0.27 | 93 | 1009.3 |
| 20260507124129 | 50 | 0 | 0.9 | 3.5 | 0.00 | 0.45 | 0.27 | 93 | 1009.3 |
| 20260507124108 | 50 | 0 | 0.9 | 3.5 | 0.00 | 0.45 | 0.27 | 93 | 1009.4 |
| 20260507124019 | 50 | 360 | 0.9 | 3.5 | 0.00 | 0.45 | 0.27 | 93 | 1009.5 |
| 20260507124008 | 50 | 0 | 0.0 | 3.5 | 0.00 | 0.45 | 0.27 | 93 | 1009.4 |
| 20260507123908 | 50 | 0 | 0.0 | 3.5 | 0.00 | 0.45 | 0.27 | 94 | 1009.4 |
| 20260507123820 | 50 | 0 | 0.0 | 3.5 | 0.00 | 0.45 | 0.27 | 94 | 1009.4 |
| 20260507123816 | 50 | 0 | 0.0 | 3.5 | 0.00 | 0.45 | 0.27 | 94 | 1009.4 |
| 20260507123629 | 50 | 0 | 0.0 | 3.5 | 0.00 | 0.45 | 0.27 | 94 | 1009.4 |
| 20260507123606 | 50 | 0 | 0.0 | 3.5 | 0.00 | 0.45 | 0.27 | 94 | 1009.5 |
| 20260507123549 | 50 | 360 | 0.0 | 3.5 | 0.00 | 0.45 | 0.27 | 94 | 1009.0 |
| 20260507123506 | 50 | 0 | 0.0 | 3.5 | 0.00 | 0.45 | 0.27 | 94 | 1008.9 |
| 20260507123406 | 50 | 0 | 0.0 | 3.5 | 0.00 | 0.45 | 0.27 | 95 | 1009.3 |
| 20260507123318 | 50 | 0 | 0.0 | 2.6 | 0.00 | 0.45 | 0.27 | 95 | 1009.3 |
| 20260507123314 | 50 | 0 | 0.0 | 2.6 | 0.00 | 0.45 | 0.27 | 95 | 1009.3 |
| 20260507123129 | 50 | 0 | 0.0 | 2.6 | 0.00 | 0.45 | 0.27 | 95 | 1009.3 |
| 20260507123105 | 50 | 0 | 0.0 | 2.6 | 0.00 | 0.45 | 0.27 | 95 | 1009.2 |
| 20260507123019 | 50 | 360 | 0.0 | 2.6 | 0.00 | 0.45 | 0.27 | 95 | 1009.4 |
| 20260507123003 | 50 | 0 | 0.0 | 2.6 | 0.00 | 0.45 | 0.27 | 95 | 1009.3 |
| 20260507122902 | 50 | 0 | 0.0 | 2.6 | 0.00 | 0.45 | 0.27 | 95 | 1009.2 |
| 20260507122834 | 50 | 0 | 0.9 | 3.5 | 0.00 | 0.45 | 0.27 | 95 | 1009.3 |
| 20260507122830 | 50 | 0 | 0.9 | 3.5 | 0.00 | 0.45 | 0.27 | 95 | 1009.3 |
| 20260507122824 | 50 | 0 | 0.9 | 2.6 | 0.00 | 0.45 | 0.27 | 95 | 1009.3 |
| 20260507122707 | 50 | 0 | 0.9 | 3.5 | 0.00 | 0.45 | 0.27 | 95 | 1009.3 |
| 20260507122519 | 50 | 360 | 0.0 | 3.5 | 0.00 | 0.45 | 0.27 | 95 | 1009.5 |
| 20260507122500 | 50 | 0 | 0.9 | 3.5 | 0.00 | 0.45 | 0.27 | 95 | 1009.4 |
| 20260507122412 | 50 | 0 | 0.0 | 3.5 | 0.00 | 0.45 | 0.27 | 95 | 1009.3 |
| 20260507122408 | 50 | 0 | 0.9 | 3.5 | 0.00 | 0.45 | 0.27 | 95 | 1009.3 |
| 20260507122158 | 50 | 0 | 0.0 | 3.5 | 0.00 | 0.45 | 0.27 | 95 | 1009.3 |
| 20260507122126 | 50 | 0 | 0.0 | 3.5 | 0.00 | 0.45 | 0.27 | 95 | 1009.3 |
| 20260507122111 | 50 | 0 | 0.0 | 3.5 | 0.00 | 0.45 | 0.27 | 95 | 1009.3 |
| 20260507122107 | 50 | 0 | 0.0 | 3.5 | 0.00 | 0.45 | 0.27 | 95 | 1009.3 |
| 20260507122019 | 50 | 360 | 0.0 | 3.5 | 0.00 | 0.45 | 0.27 | 95 | 1009.4 |
| 20260507121857 | 50 | 0 | 0.9 | 3.5 | 0.00 | 0.45 | 0.27 | 95 | 1009.3 |
| 20260507121809 | 50 | 0 | 0.9 | 2.6 | 0.00 | 0.45 | 0.27 | 95 | 1009.3 |
| 20260507121805 | 50 | 0 | 0.9 | 3.5 | 0.00 | 0.45 | 0.27 | 95 | 1009.3 |
| 20260507121628 | 50 | 0 | 0.9 | 2.6 | 0.00 | 0.45 | 0.27 | 95 | 1009.3 |
| 20260507121555 | 50 | 0 | 0.9 | 2.6 | 0.00 | 0.45 | 0.27 | 95 | 1009.2 |
| 20260507121519 | 50 | 360 | 0.0 | 2.6 | 0.00 | 0.45 | 0.27 | 95 | 1009.3 |
| 20260507121455 | 50 | 0 | 0.9 | 2.6 | 0.00 | 0.45 | 0.27 | 95 | 1009.2 |
| 20260507121355 | 50 | 0 | 0.9 | 2.6 | 0.00 | 0.45 | 0.27 | 95 | 1009.1 |
| 20260507121349 | 50 | 0 | 0.9 | 2.6 | 0.00 | 0.45 | 0.27 | 95 | 1009.0 |
| 20260507121254 | 50 | 0 | 0.9 | 2.6 | 0.00 | 0.45 | 0.27 | 95 | 1009.1 |
| 20260507121234 | 50 | 0 | 0.9 | 2.6 | 0.00 | 0.45 | 0.27 | 95 | 1009.0 |
| 20260507121054 | 50 | 0 | 0.9 | 2.6 | 0.00 | 0.45 | 0.27 | 95 | 1009.1 |
| 20260507121019 | 50 | 360 | 0.0 | 2.6 | 0.00 | 0.45 | 0.27 | 95 | 1009.2 |
| 20260507120954 | 50 | 0 | 0.9 | 2.6 | 0.00 | 0.45 | 0.27 | 95 | 1009.1 |
| 20260507120851 | 50 | 0 | 0.9 | 2.6 | 0.00 | 0.45 | 0.27 | 95 | 1009.1 |
| 20260507120751 | 50 | 0 | 0.9 | 2.6 | 0.00 | 0.45 | 0.27 | 95 | 1009.1 |
| 20260507120625 | 50 | 0 | 0.9 | 2.6 | 0.00 | 0.45 | 0.27 | 95 | 1009.1 |
| 20260507120550 | 50 | 0 | 0.9 | 2.6 | 0.00 | 0.45 | 0.27 | 95 | 1009.1 |
| 20260507120519 | 50 | 360 | 0.0 | 2.6 | 0.00 | 0.45 | 0.27 | 95 | 1009.2 |
| 20260507120502 | 50 | 0 | 0.9 | 2.6 | 0.00 | 0.45 | 0.27 | 95 | 1009.2 |
| 20260507120458 | 50 | 0 | 0.9 | 2.6 | 0.00 | 0.45 | 0.27 | 95 | 1009.1 |
| 20260507120249 | 50 | 0 | 0.9 | 2.6 | 0.00 | 0.45 | 0.27 | 95 | 1009.2 |
| 20260507120126 | 50 | 0 | 0.0 | 2.6 | 0.00 | 0.45 | 0.27 | 96 | 1009.2 |
| 20260507120047 | 50 | 0 | 0.0 | 2.6 | 0.00 | 0.45 | 0.27 | 96 | 1009.2 |
| 20260507120034 | 50 | 360 | 0.9 | 2.6 | 0.00 | 0.45 | 0.27 | 96 | 1009.4 |
| 20260507120009 | 50 | 0 | 0.0 | 2.6 | 0.00 | 0.45 | 0.27 | 96 | 1009.3 |
| 20260507115856 | 51 | 0 | 0.0 | 2.6 | 0.00 | 0.45 | 0.27 | 96 | 1009.3 |
| 20260507115646 | 51 | 0 | 0.0 | 2.6 | 0.00 | 0.45 | 0.27 | 96 | 1009.3 |
| 20260507115625 | 51 | 0 | 0.0 | 1.7 | 0.00 | 0.45 | 0.27 | 96 | 1009.3 |
| 20260507115546 | 51 | 0 | 0.0 | 1.7 | 0.00 | 0.45 | 0.27 | 96 | 1009.4 |
| 20260507115519 | 51 | 360 | 0.0 | 1.7 | 0.00 | 0.45 | 0.27 | 96 | 1009.6 |
| 20260507115444 | 51 | 0 | 0.0 | 1.7 | 0.00 | 0.45 | 0.27 | 96 | 1009.4 |
| 20260507115344 | 51 | 0 | 0.0 | 1.7 | 0.00 | 0.45 | 0.27 | 96 | 1009.4 |
| 20260507115257 | 51 | 0 | 0.0 | 0.9 | 0.00 | 0.45 | 0.27 | 96 | 1009.4 |
| 20260507115253 | 51 | 0 | 0.0 | 0.9 | 0.00 | 0.45 | 0.27 | 96 | 1009.4 |
| 20260507115124 | 51 | 0 | 0.0 | 0.9 | 0.00 | 0.45 | 0.27 | 96 | 1009.4 |
| 20260507115043 | 51 | 0 | 0.0 | 0.9 | 0.00 | 0.45 | 0.27 | 96 | 1009.4 |
| 20260507115019 | 51 | 360 | 0.0 | 0.9 | 0.00 | 0.45 | 0.27 | 96 | 1009.6 |
| 20260507114943 | 51 | 0 | 0.0 | 0.9 | 0.00 | 0.45 | 0.27 | 96 | 1009.4 |
| 20260507114841 | 51 | 0 | 0.0 | 0.9 | 0.00 | 0.45 | 0.27 | 96 | 1009.4 |
| 20260507114755 | 51 | 0 | 0.0 | 1.7 | 0.00 | 0.45 | 0.27 | 96 | 1009.3 |
| 20260507114751 | 51 | 0 | 0.0 | 0.9 | 0.00 | 0.45 | 0.27 | 96 | 1009.3 |
| 20260507114622 | 51 | 0 | 0.0 | 1.7 | 0.00 | 0.45 | 0.27 | 96 | 1009.3 |
| 20260507114603 | 51 | 0 | 0.0 | 1.7 | 0.00 | 0.45 | 0.27 | 96 | 1009.3 |
| 20260507114519 | 51 | 360 | 0.0 | 1.7 | 0.00 | 0.45 | 0.27 | 96 | 1009.5 |
| 20260507114450 | 51 | 0 | 0.0 | 1.7 | 0.00 | 0.45 | 0.27 | 96 | 1009.3 |
| 20260507114307 | 51 | 0 | 0.0 | 1.7 | 0.00 | 0.45 | 0.27 | 96 | 1009.3 |
| 20260507114145 | 51 | 0 | 0.0 | 1.7 | 0.00 | 0.45 | 0.27 | 96 | 1009.3 |
| 20260507114019 | 50 | 360 | 0.0 | 1.7 | 0.00 | 0.45 | 0.27 | 96 | 1009.5 |
| 20260507113938 | 50 | 0 | 0.0 | 1.7 | 0.00 | 0.45 | 0.27 | 96 | 1009.4 |
| 20260507113838 | 50 | 0 | 0.0 | 1.7 | 0.00 | 0.45 | 0.27 | 96 | 1009.4 |
| 20260507113737 | 50 | 0 | 0.0 | 1.7 | 0.00 | 0.45 | 0.27 | 96 | 1009.4 |
| 20260507113620 | 50 | 0 | 0.0 | 0.0 | 0.00 | 0.45 | 0.27 | 96 | 1009.4 |
| 20260507113536 | 50 | 0 | 0.0 | 0.0 | 0.00 | 0.45 | 0.27 | 96 | 1009.4 |
| 20260507113534 | 50 | 360 | 0.0 | 0.0 | 0.00 | 0.45 | 0.27 | 96 | 1009.4 |
| 20260507113435 | 50 | 0 | 0.0 | 0.0 | 0.00 | 0.45 | 0.27 | 96 | 1009.3 |
| 20260507113344 | 50 | 0 | 0.0 | 0.0 | 0.00 | 0.45 | 0.27 | 96 | 1009.3 |
| 20260507113335 | 50 | 0 | 0.0 | 0.0 | 0.00 | 0.45 | 0.27 | 96 | 1009.3 |
| 20260507113235 | 50 | 0 | 0.0 | 0.0 | 0.00 | 0.45 | 0.27 | 96 | 1009.3 |
| 20260507113226 | 50 | 0 | 0.0 | 0.0 | 0.00 | 0.45 | 0.27 | 96 | 1009.3 |
| 20260507113034 | 50 | 0 | 0.0 | 0.0 | 0.00 | 0.45 | 0.27 | 96 | 1009.3 |
| 20260507113019 | 50 | 360 | 0.0 | 0.0 | 0.00 | 0.45 | 0.27 | 96 | 1009.4 |
| 20260507112934 | 50 | 0 | 0.0 | 0.0 | 0.00 | 0.45 | 0.27 | 96 | 1009.3 |
| 20260507112833 | 50 | 0 | 0.0 | 0.0 | 0.00 | 0.45 | 0.27 | 96 | 1009.2 |
| 20260507112733 | 50 | 0 | 0.0 | 0.9 | 0.00 | 0.45 | 0.27 | 96 | 1009.2 |
| 20260507112616 | 50 | 0 | 0.0 | 0.9 | 0.00 | 0.45 | 0.27 | 96 | 1009.2 |
| 20260507112546 | 50 | 0 | 0.0 | 0.9 | 0.00 | 0.45 | 0.27 | 96 | 1009.2 |
| 20260507112541 | 50 | 0 | 0.0 | 0.9 | 0.00 | 0.45 | 0.27 | 96 | 1009.2 |
| 20260507112519 | 50 | 360 | 0.0 | 0.9 | 0.00 | 0.45 | 0.27 | 96 | 1009.3 |
| 20260507112331 | 50 | 0 | 0.0 | 0.9 | 0.00 | 0.45 | 0.27 | 96 | 1009.1 |
| 20260507112230 | 50 | 0 | 0.0 | 0.9 | 0.00 | 0.45 | 0.27 | 96 | 1009.0 |
| 20260507112150 | 50 | 0 | 0.0 | 0.9 | 0.00 | 0.45 | 0.27 | 96 | 1009.0 |
| 20260507112137 | 50 | 0 | 0.0 | 0.9 | 0.00 | 0.45 | 0.27 | 96 | 1009.0 |
| 20260507112019 | 50 | 360 | 0.0 | 0.9 | 0.00 | 0.45 | 0.27 | 96 | 1009.1 |
| 20260507111930 | 50 | 0 | 0.0 | 0.9 | 0.00 | 0.45 | 0.27 | 96 | 1009.0 |
| 20260507111851 | 50 | 0 | 0.0 | 0.9 | 0.00 | 0.45 | 0.27 | 96 | 1009.0 |
| 20260507111738 | 50 | 0 | 0.0 | 0.9 | 0.00 | 0.45 | 0.27 | 96 | 1009.0 |
| 20260507111612 | 50 | 0 | 0.0 | 0.9 | 0.00 | 0.45 | 0.27 | 96 | 1009.0 |
| 20260507111542 | 50 | 0 | 0.0 | 0.9 | 0.00 | 0.45 | 0.27 | 96 | 1009.0 |
| 20260507111538 | 50 | 0 | 0.0 | 0.9 | 0.00 | 0.45 | 0.27 | 96 | 1009.0 |
| 20260507111519 | 50 | 360 | 0.0 | 0.9 | 0.00 | 0.45 | 0.27 | 96 | 1009.1 |
| 20260507111327 | 50 | 0 | 0.0 | 0.9 | 0.00 | 0.45 | 0.27 | 96 | 1008.9 |
| 20260507111300 | 50 | 0 | 0.0 | 0.9 | 0.00 | 0.45 | 0.27 | 96 | 1008.9 |
| 20260507111255 | 50 | 0 | 0.0 | 0.9 | 0.00 | 0.45 | 0.27 | 96 | 1008.9 |
| 20260507111250 | 50 | 0 | 0.0 | 0.9 | 0.00 | 0.45 | 0.27 | 96 | 1008.9 |
| 20260507111133 | 50 | 0 | 0.0 | 0.9 | 0.00 | 0.45 | 0.27 | 96 | 1008.9 |
| 20260507111020 | 50 | 360 | 0.0 | 0.9 | 0.00 | 0.45 | 0.27 | 96 | 1009.1 |
| 20260507110927 | 50 | 0 | 0.0 | 0.9 | 0.00 | 0.45 | 0.27 | 96 | 1008.9 |
| 20260507110826 | 50 | 0 | 0.0 | 0.9 | 0.00 | 0.45 | 0.27 | 96 | 1008.9 |
| 20260507110725 | 50 | 0 | 0.0 | 0.9 | 0.00 | 0.45 | 0.27 | 96 | 1008.9 |
| 20260507110624 | 50 | 0 | 0.0 | 0.0 | 0.00 | 0.45 | 0.27 | 96 | 1008.9 |
| 20260507110612 | 50 | 0 | 0.0 | 0.0 | 0.00 | 0.45 | 0.27 | 96 | 1008.9 |
| 20260507110525 | 50 | 0 | 0.0 | 0.0 | 0.00 | 0.45 | 0.27 | 96 | 1008.9 |
| 20260507110519 | 50 | 360 | 0.0 | 0.0 | 0.00 | 0.45 | 0.27 | 96 | 1009.1 |
| 20260507110423 | 50 | 0 | 0.0 | 0.0 | 0.00 | 0.45 | 0.27 | 96 | 1008.9 |
| 20260507110323 | 50 | 0 | 0.0 | 0.0 | 0.00 | 0.45 | 0.27 | 96 | 1008.9 |
| 20260507110223 | 50 | 0 | 0.0 | 0.0 | 0.00 | 0.45 | 0.27 | 96 | 1008.9 |
| 20260507110110 | 50 | 0 | 0.0 | 0.0 | 0.00 | 0.45 | 0.27 | 96 | 1008.9 |
| 20260507110057 | 50 | 0 | 0.0 | 0.0 | 0.00 | 0.45 | 0.27 | 96 | 1008.8 |
| 20260507110051 | 50 | 0 | 0.0 | 0.0 | 0.00 | 0.45 | 0.27 | 96 | 1008.9 |
| 20260507110019 | 50 | 360 | 0.0 | 0.0 | 0.00 | 0.45 | 0.27 | 96 | 1009.1 |
| 20260507105938 | 50 | 0 | 0.0 | 0.0 | 0.00 | 0.45 | 0.27 | 96 | 1008.9 |
| 20260507105619 | 50 | 0 | 0.0 | 0.0 | 0.00 | 0.45 | 0.27 | 96 | 1008.7 |
| 20260507105609 | 50 | 0 | 0.0 | 0.0 | 0.00 | 0.45 | 0.27 | 96 | 1008.8 |
| 20260507105519 | 50 | 360 | 0.0 | 0.0 | 0.00 | 0.45 | 0.27 | 96 | 1009.0 |
| 20260507105418 | 50 | 0 | 0.0 | 0.0 | 0.00 | 0.45 | 0.27 | 96 | 1008.8 |
| 20260507105317 | 50 | 0 | 0.0 | 0.0 | 0.00 | 0.45 | 0.27 | 96 | 1008.7 |
| 20260507105217 | 50 | 0 | 0.0 | 0.0 | 0.00 | 0.45 | 0.27 | 96 | 1008.7 |
| 20260507105107 | 50 | 0 | 0.0 | 0.0 | 0.00 | 0.45 | 0.27 | 96 | 1008.6 |
| 20260507105019 | 50 | 360 | 0.0 | 0.0 | 0.00 | 0.45 | 0.27 | 96 | 1008.8 |
| 20260507105016 | 50 | 0 | 0.0 | 0.0 | 0.00 | 0.45 | 0.27 | 96 | 1008.6 |
| 20260507104916 | 50 | 0 | 0.0 | 0.0 | 0.00 | 0.45 | 0.27 | 96 | 1008.6 |
| 20260507104816 | 50 | 0 | 0.0 | 0.0 | 0.00 | 0.45 | 0.27 | 96 | 1008.5 |
| 20260507104714 | 50 | 0 | 0.0 | 0.0 | 0.00 | 0.45 | 0.27 | 96 | 1008.5 |
| 20260507104607 | 50 | 0 | 0.0 | 0.0 | 0.00 | 0.45 | 0.27 | 96 | 1008.5 |
| 20260507104534 | 50 | 360 | 0.0 | 0.0 | 0.00 | 0.45 | 0.27 | 96 | 1008.7 |
| 20260507104515 | 50 | 0 | 0.0 | 0.0 | 0.00 | 0.45 | 0.27 | 96 | 1008.5 |
| 20260507104414 | 50 | 0 | 0.0 | 0.0 | 0.00 | 0.45 | 0.27 | 96 | 1008.5 |
| 20260507104312 | 50 | 0 | 0.0 | 0.0 | 0.00 | 0.45 | 0.27 | 96 | 1008.4 |
| 20260507104212 | 50 | 0 | 0.0 | 0.0 | 0.00 | 0.45 | 0.27 | 96 | 1008.4 |
| 20260507104106 | 50 | 0 | 0.0 | 0.0 | 0.00 | 0.45 | 0.27 | 96 | 1008.4 |
| 20260507104034 | 50 | 360 | 0.0 | 0.0 | 0.00 | 0.45 | 0.27 | 96 | 1008.6 |
| 20260507104024 | 49 | 0 | 0.0 | 0.0 | 0.00 | 0.45 | 0.27 | 96 | 1008.4 |
| 20260507104020 | 49 | 0 | 0.0 | 0.0 | 0.00 | 0.45 | 0.27 | 96 | 1008.4 |
| 20260507103810 | 49 | 0 | 0.0 | 0.0 | 0.00 | 0.45 | 0.27 | 96 | 1008.5 |
| 20260507103710 | 49 | 0 | 0.0 | 0.9 | 0.00 | 0.45 | 0.27 | 96 | 1008.4 |
| 20260507103630 | 49 | 0 | 0.0 | 0.9 | 0.00 | 0.45 | 0.27 | 96 | 1008.5 |
| 20260507103618 | 49 | 0 | 0.0 | 0.9 | 0.00 | 0.45 | 0.27 | 96 | 1008.5 |
| 20260507103520 | 50 | 360 | 0.0 | 0.9 | 0.00 | 0.45 | 0.27 | 96 | 1008.7 |
| 20260507103409 | 49 | 0 | 0.0 | 0.9 | 0.00 | 0.45 | 0.27 | 96 | 1008.5 |
| 20260507103309 | 49 | 0 | 0.0 | 0.9 | 0.00 | 0.45 | 0.27 | 96 | 1008.4 |
| 20260507103208 | 49 | 0 | 0.0 | 0.9 | 0.00 | 0.45 | 0.27 | 96 | 1008.4 |
| 20260507103103 | 49 | 0 | 0.0 | 0.9 | 0.00 | 0.45 | 0.27 | 96 | 1008.4 |
| 20260507103021 | 49 | 360 | 0.0 | 0.9 | 0.00 | 0.45 | 0.27 | 96 | 1008.4 |
| 20260507103005 | 49 | 0 | 0.0 | 0.9 | 0.00 | 0.45 | 0.27 | 96 | 1008.3 |
| 20260507102905 | 49 | 0 | 0.0 | 0.9 | 0.00 | 0.45 | 0.27 | 96 | 1008.3 |
| 20260507102805 | 49 | 0 | 0.0 | 0.9 | 0.00 | 0.45 | 0.27 | 95 | 1008.3 |
| 20260507102704 | 49 | 0 | 0.0 | 0.0 | 0.00 | 0.45 | 0.27 | 95 | 1008.3 |
| 20260507102605 | 49 | 0 | 0.0 | 0.0 | 0.00 | 0.45 | 0.27 | 95 | 1008.3 |
| 20260507102519 | 49 | 360 | 0.0 | 0.0 | 0.00 | 0.45 | 0.27 | 95 | 1008.4 |
| 20260507102503 | 49 | 0 | 0.0 | 0.0 | 0.00 | 0.45 | 0.27 | 95 | 1008.3 |
| 20260507102402 | 49 | 0 | 0.0 | 0.0 | 0.00 | 0.45 | 0.27 | 95 | 1008.3 |
| 20260507102306 | 49 | 0 | 0.0 | 0.0 | 0.00 | 0.45 | 0.27 | 95 | 1008.3 |
| 20260507102216 | 49 | 0 | 0.0 | 0.0 | 0.00 | 0.45 | 0.27 | 96 | 1008.4 |
| 20260507102207 | 49 | 0 | 0.0 | 0.0 | 0.00 | 0.45 | 0.27 | 96 | 1008.3 |
| 20260507102019 | 49 | 360 | 0.0 | 0.0 | 0.00 | 0.45 | 0.27 | 96 | 1008.4 |
| 20260507102001 | 49 | 0 | 0.0 | 0.0 | 0.00 | 0.45 | 0.27 | 96 | 1008.3 |
| 20260507101900 | 49 | 0 | 0.0 | 0.0 | 0.00 | 0.45 | 0.27 | 96 | 1008.3 |
| 20260507101800 | 49 | 0 | 0.0 | 0.0 | 0.00 | 0.45 | 0.27 | 96 | 1008.3 |
| 20260507101659 | 49 | 0 | 0.0 | 0.0 | 0.00 | 0.45 | 0.27 | 96 | 1008.2 |
| 20260507101559 | 49 | 0 | 0.0 | 0.0 | 0.00 | 0.45 | 0.27 | 96 | 1008.2 |
| 20260507101534 | 49 | 360 | 0.0 | 0.0 | 0.00 | 0.45 | 0.27 | 96 | 1008.3 |
| 20260507101458 | 49 | 0 | 0.0 | 0.0 | 0.00 | 0.45 | 0.27 | 96 | 1008.2 |
| 20260507101358 | 49 | 0 | 0.0 | 0.0 | 0.00 | 0.45 | 0.27 | 96 | 1008.2 |
| 20260507101331 | 49 | 0 | 0.0 | 0.0 | 0.00 | 0.45 | 0.27 | 95 | 1008.2 |
| 20260507101327 | 49 | 0 | 0.0 | 0.0 | 0.00 | 0.45 | 0.27 | 95 | 1008.2 |
| 20260507101321 | 49 | 0 | 0.0 | 0.0 | 0.00 | 0.45 | 0.27 | 95 | 1008.2 |
| 20260507101203 | 49 | 0 | 0.0 | 0.0 | 0.00 | 0.45 | 0.27 | 95 | 1008.2 |
| 20260507101019 | 49 | 360 | 0.0 | 0.0 | 0.00 | 0.45 | 0.27 | 95 | 1008.3 |
| 20260507100957 | 49 | 0 | 0.0 | 0.0 | 0.00 | 0.45 | 0.27 | 95 | 1008.2 |
| 20260507100909 | 49 | 0 | 0.0 | 0.0 | 0.00 | 0.45 | 0.27 | 95 | 1008.0 |
| 20260507100905 | 49 | 0 | 0.0 | 0.0 | 0.00 | 0.45 | 0.27 | 95 | 1008.2 |
| 20260507100655 | 49 | 0 | 0.0 | 0.0 | 0.00 | 0.45 | 0.27 | 95 | 1008.0 |
| 20260507100555 | 49 | 0 | 0.0 | 0.0 | 0.00 | 0.45 | 0.27 | 95 | 1007.9 |
| 20260507100519 | 49 | 360 | 0.0 | 0.0 | 0.00 | 0.45 | 0.27 | 95 | 1008.1 |
| 20260507100454 | 49 | 0 | 0.0 | 0.0 | 0.00 | 0.45 | 0.27 | 95 | 1008.0 |
| 20260507100354 | 49 | 0 | 0.0 | 0.0 | 0.00 | 0.45 | 0.27 | 95 | 1008.0 |
| 20260507100253 | 49 | 0 | 0.0 | 0.0 | 0.00 | 0.45 | 0.27 | 95 | 1008.0 |
| 20260507100152 | 49 | 0 | 0.0 | 0.0 | 0.00 | 0.45 | 0.27 | 95 | 1007.9 |
| 20260507100053 | 49 | 0 | 0.0 | 0.0 | 0.00 | 0.45 | 0.27 | 95 | 1007.9 |
| 20260507100019 | 49 | 360 | 0.0 | 0.0 | 0.00 | 0.45 | 0.27 | 95 | 1008.0 |
| 20260507095952 | 49 | 0 | 0.0 | 0.0 | 0.00 | 0.45 | 0.27 | 95 | 1007.9 |
| 20260507095851 | 49 | 0 | 0.0 | 0.0 | 0.00 | 0.45 | 0.27 | 95 | 1007.9 |
| 20260507095750 | 49 | 0 | 0.0 | 0.0 | 0.00 | 0.45 | 0.27 | 95 | 1007.9 |
| 20260507095702 | 49 | 0 | 0.0 | 0.0 | 0.00 | 0.45 | 0.27 | 95 | 1007.9 |
| 20260507095653 | 49 | 0 | 0.0 | 0.0 | 0.00 | 0.45 | 0.27 | 95 | 1007.9 |
| 20260507095519 | 49 | 360 | 0.0 | 0.0 | 0.00 | 0.45 | 0.27 | 95 | 1008.1 |
| 20260507095447 | 49 | 0 | 0.0 | 0.0 | 0.00 | 0.45 | 0.27 | 95 | 1008.0 |
| 20260507095346 | 49 | 0 | 0.0 | 0.0 | 0.00 | 0.45 | 0.27 | 95 | 1008.0 |
| 20260507095246 | 49 | 0 | 0.0 | 0.0 | 0.00 | 0.45 | 0.27 | 95 | 1008.0 |
| 20260507095146 | 49 | 0 | 0.0 | 0.0 | 0.00 | 0.45 | 0.27 | 95 | 1008.1 |
| 20260507095046 | 49 | 0 | 0.0 | 0.0 | 0.00 | 0.45 | 0.27 | 95 | 1008.0 |
| 20260507095019 | 49 | 360 | 0.0 | 0.0 | 0.00 | 0.45 | 0.27 | 95 | 1008.2 |
| 20260507094946 | 49 | 0 | 0.0 | 0.0 | 0.00 | 0.45 | 0.27 | 95 | 1008.1 |
| 20260507094845 | 49 | 0 | 0.0 | 0.0 | 0.00 | 0.45 | 0.27 | 95 | 1008.0 |
| 20260507094759 | 49 | 0 | 0.0 | 0.0 | 0.00 | 0.45 | 0.27 | 95 | 1008.0 |
| 20260507094754 | 49 | 0 | 0.0 | 0.0 | 0.00 | 0.45 | 0.27 | 95 | 1008.0 |
| 20260507094603 | 49 | 0 | 0.0 | 0.0 | 0.00 | 0.45 | 0.27 | 95 | 1008.0 |
| 20260507094552 | 49 | 0 | 0.0 | 0.0 | 0.00 | 0.45 | 0.27 | 95 | 1008.0 |
| 20260507094519 | 49 | 360 | 0.0 | 0.0 | 0.00 | 0.45 | 0.27 | 95 | 1008.1 |
| 20260507094343 | 49 | 0 | 0.0 | 0.0 | 0.00 | 0.45 | 0.27 | 95 | 1007.9 |
| 20260507094316 | 49 | 0 | 0.0 | 0.0 | 0.00 | 0.45 | 0.27 | 95 | 1007.8 |
| 20260507094311 | 49 | 0 | 0.0 | 0.0 | 0.00 | 0.45 | 0.27 | 95 | 1007.7 |
| 20260507094306 | 49 | 0 | 0.0 | 0.0 | 0.00 | 0.45 | 0.27 | 95 | 1007.9 |
| 20260507094149 | 49 | 0 | 0.0 | 0.0 | 0.00 | 0.45 | 0.27 | 95 | 1007.7 |
| 20260507094020 | 49 | 360 | 0.0 | 0.0 | 0.00 | 0.45 | 0.27 | 95 | 1007.9 |
| 20260507093943 | 49 | 0 | 0.0 | 0.0 | 0.00 | 0.45 | 0.27 | 95 | 1007.8 |
| 20260507093842 | 49 | 0 | 0.0 | 0.0 | 0.00 | 0.45 | 0.27 | 95 | 1007.8 |
| 20260507093742 | 49 | 0 | 0.0 | 0.0 | 0.00 | 0.45 | 0.27 | 95 | 1007.8 |
| 20260507093641 | 49 | 0 | 0.0 | 0.0 | 0.00 | 0.45 | 0.27 | 95 | 1007.7 |
| 20260507093541 | 49 | 0 | 0.0 | 0.0 | 0.00 | 0.45 | 0.27 | 95 | 1007.8 |
| 20260507093534 | 49 | 360 | 0.0 | 0.0 | 0.00 | 0.45 | 0.27 | 95 | 1007.9 |
| 20260507093440 | 49 | 0 | 0.0 | 0.0 | 0.00 | 0.45 | 0.27 | 95 | 1007.8 |
| 20260507093340 | 49 | 0 | 0.0 | 0.0 | 0.00 | 0.45 | 0.27 | 95 | 1007.9 |
| 20260507093240 | 49 | 0 | 0.0 | 0.0 | 0.00 | 0.45 | 0.27 | 95 | 1007.9 |
| 20260507093141 | 49 | 0 | 0.0 | 0.0 | 0.00 | 0.45 | 0.27 | 95 | 1007.9 |
| 20260507093039 | 49 | 0 | 0.0 | 0.0 | 0.00 | 0.45 | 0.27 | 95 | 1007.9 |
| 20260507093019 | 49 | 360 | 0.0 | 0.0 | 0.00 | 0.45 | 0.27 | 95 | 1008.0 |
| 20260507092938 | 49 | 0 | 0.0 | 0.0 | 0.00 | 0.45 | 0.27 | 95 | 1007.9 |
| 20260507092838 | 49 | 0 | 0.0 | 0.0 | 0.00 | 0.45 | 0.27 | 95 | 1007.8 |
| 20260507092738 | 49 | 0 | 0.0 | 0.0 | 0.00 | 0.45 | 0.27 | 95 | 1007.7 |
| 20260507092637 | 49 | 0 | 0.0 | 0.0 | 0.00 | 0.45 | 0.27 | 95 | 1007.6 |
| 20260507092559 | 49 | 0 | 0.0 | 0.0 | 0.00 | 0.45 | 0.27 | 95 | 1007.6 |
| 20260507092519 | 49 | 360 | 0.0 | 0.0 | 0.00 | 0.45 | 0.27 | 95 | 1007.8 |
| 20260507092446 | 49 | 0 | 0.0 | 0.0 | 0.00 | 0.45 | 0.27 | 95 | 1007.6 |
| 20260507092249 | 49 | 0 | 0.0 | 0.0 | 0.00 | 0.45 | 0.27 | 95 | 1007.6 |
| 20260507092244 | 49 | 0 | 0.0 | 0.0 | 0.00 | 0.45 | 0.27 | 95 | 1007.6 |
| 20260507092049 | 49 | 0 | 0.0 | 0.0 | 0.00 | 0.45 | 0.27 | 95 | 1007.7 |
| 20260507092043 | 49 | 0 | 0.0 | 0.0 | 0.00 | 0.45 | 0.27 | 95 | 1007.6 |
| 20260507092019 | 49 | 360 | 0.0 | 0.0 | 0.00 | 0.45 | 0.27 | 95 | 1007.9 |
| 20260507091834 | 49 | 0 | 0.0 | 0.0 | 0.00 | 0.45 | 0.27 | 95 | 1007.7 |
| 20260507091733 | 49 | 0 | 0.0 | 0.0 | 0.00 | 0.45 | 0.27 | 95 | 1007.7 |
| 20260507091633 | 49 | 0 | 0.0 | 0.0 | 0.00 | 0.45 | 0.27 | 95 | 1007.7 |
| 20260507091532 | 49 | 0 | 0.0 | 0.0 | 0.00 | 0.45 | 0.27 | 95 | 1007.7 |
| 20260507091519 | 49 | 360 | 0.0 | 0.0 | 0.00 | 0.45 | 0.27 | 95 | 1007.8 |
| 20260507091432 | 49 | 0 | 0.0 | 0.0 | 0.00 | 0.45 | 0.27 | 95 | 1007.6 |
| 20260507091331 | 49 | 0 | 0.0 | 0.0 | 0.00 | 0.45 | 0.27 | 95 | 1007.7 |
| 20260507091231 | 49 | 0 | 0.0 | 0.0 | 0.00 | 0.45 | 0.27 | 95 | 1007.6 |
| 20260507091131 | 49 | 0 | 0.0 | 0.0 | 0.00 | 0.45 | 0.27 | 95 | 1007.6 |
| 20260507091044 | 49 | 0 | 0.0 | 0.0 | 0.00 | 0.45 | 0.27 | 95 | 1007.6 |
| 20260507091039 | 49 | 0 | 0.0 | 0.0 | 0.00 | 0.45 | 0.27 | 95 | 1007.5 |
| 20260507091019 | 49 | 360 | 0.0 | 0.0 | 0.00 | 0.45 | 0.27 | 95 | 1007.8 |
| 20260507090829 | 49 | 0 | 0.0 | 0.0 | 0.00 | 0.45 | 0.27 | 95 | 1007.6 |
| 20260507090729 | 49 | 0 | 0.0 | 0.0 | 0.00 | 0.45 | 0.27 | 95 | 1007.6 |
| 20260507090628 | 49 | 0 | 0.0 | 0.0 | 0.00 | 0.45 | 0.27 | 95 | 1007.6 |
| 20260507090542 | 49 | 0 | 0.0 | 0.0 | 0.00 | 0.45 | 0.27 | 95 | 1007.5 |
| 20260507090537 | 49 | 0 | 0.0 | 0.0 | 0.00 | 0.45 | 0.27 | 95 | 1007.5 |
| 20260507090519 | 49 | 360 | 0.0 | 0.0 | 0.00 | 0.45 | 0.27 | 95 | 1007.7 |
| 20260507090327 | 49 | 0 | 0.0 | 0.0 | 0.00 | 0.45 | 0.27 | 95 | 1007.4 |
| 20260507090227 | 49 | 0 | 0.0 | 0.0 | 0.00 | 0.45 | 0.27 | 95 | 1007.4 |
| 20260507090154 | 49 | 0 | 0.0 | 0.0 | 0.00 | 0.45 | 0.27 | 95 | 1007.5 |
| 20260507090149 | 49 | 0 | 0.0 | 0.0 | 0.00 | 0.45 | 0.27 | 95 | 1007.4 |
| 20260507090141 | 49 | 0 | 0.0 | 0.0 | 0.00 | 0.45 | 0.27 | 95 | 1007.4 |
| 20260507090019 | 49 | 360 | 0.0 | 0.0 | 0.00 | 0.45 | 0.27 | 95 | 1007.7 |
| 20260507085837 | 49 | 0 | 0.0 | 0.0 | 0.00 | 0.45 | 0.27 | 95 | 1007.5 |
| 20260507085831 | 49 | 0 | 0.0 | 0.0 | 0.00 | 0.45 | 0.27 | 95 | 1007.5 |
| 20260507085622 | 49 | 0 | 0.0 | 0.0 | 0.00 | 0.45 | 0.27 | 95 | 1007.5 |
| 20260507085521 | 49 | 0 | 0.0 | 0.0 | 0.00 | 0.45 | 0.27 | 95 | 1007.5 |
| 20260507085519 | 49 | 360 | 0.0 | 0.0 | 0.00 | 0.45 | 0.27 | 95 | 1007.6 |
| 20260507085421 | 49 | 0 | 0.0 | 0.0 | 0.00 | 0.45 | 0.27 | 95 | 1007.5 |
| 20260507085322 | 49 | 0 | 0.0 | 0.0 | 0.00 | 0.45 | 0.27 | 95 | 1007.5 |
| 20260507085221 | 49 | 0 | 0.0 | 0.0 | 0.00 | 0.45 | 0.27 | 95 | 1007.6 |
| 20260507085121 | 49 | 0 | 0.0 | 0.0 | 0.00 | 0.45 | 0.27 | 95 | 1007.6 |
| 20260507085034 | 49 | 360 | 0.0 | 0.0 | 0.00 | 0.45 | 0.27 | 95 | 1007.7 |
| 20260507085020 | 49 | 0 | 0.0 | 0.0 | 0.00 | 0.45 | 0.27 | 95 | 1007.6 |
| 20260507084920 | 49 | 0 | 0.0 | 0.0 | 0.00 | 0.45 | 0.27 | 95 | 1007.6 |
| 20260507084820 | 49 | 0 | 0.0 | 0.0 | 0.00 | 0.45 | 0.27 | 95 | 1007.6 |
| 20260507084735 | 49 | 0 | 0.0 | 0.0 | 0.00 | 0.45 | 0.27 | 95 | 1007.5 |
| 20260507084729 | 49 | 0 | 0.0 | 0.0 | 0.00 | 0.45 | 0.27 | 95 | 1007.6 |
| 20260507084519 | 49 | 0 | 0.0 | 0.0 | 0.00 | 0.45 | 0.27 | 95 | 1007.6 |
| 20260507084418 | 49 | 0 | 0.0 | 0.0 | 0.00 | 0.45 | 0.27 | 95 | 1007.6 |
| 20260507084316 | 49 | 0 | 0.0 | 0.0 | 0.00 | 0.45 | 0.27 | 95 | 1007.6 |
| 20260507084301 | 49 | 0 | 0.0 | 0.0 | 0.00 | 0.45 | 0.27 | 95 | 1007.6 |
| 20260507084216 | 49 | 0 | 0.0 | 0.0 | 0.00 | 0.45 | 0.27 | 95 | 1007.7 |
| 20260507084148 | 49 | 0 | 0.0 | 0.0 | 0.00 | 0.45 | 0.27 | 95 | 1007.6 |
| 20260507084028 | 49 | 0 | 0.0 | 0.0 | 0.00 | 0.45 | 0.27 | 95 | 1007.7 |
| 20260507084023 | 49 | 0 | 0.0 | 0.0 | 0.00 | 0.45 | 0.27 | 95 | 1007.6 |
| 20260507084019 | 49 | 360 | 0.0 | 0.0 | 0.00 | 0.45 | 0.27 | 95 | 1007.8 |
| 20260507083814 | 49 | 0 | 0.0 | 0.0 | 0.00 | 0.45 | 0.27 | 95 | 1007.6 |
| 20260507083714 | 49 | 0 | 0.0 | 0.0 | 0.00 | 0.45 | 0.27 | 95 | 1007.7 |
| 20260507083653 | 49 | 0 | 0.0 | 0.0 | 0.00 | 0.45 | 0.27 | 95 | 1007.7 |
| 20260507083550 | 49 | 360 | 0.0 | 0.0 | 0.00 | 0.45 | 0.27 | 95 | 1007.8 |
| 20260507083536 | 49 | 0 | 0.0 | 0.0 | 0.00 | 0.45 | 0.27 | 95 | 1007.7 |
| 20260507083531 | 49 | 0 | 0.0 | 0.0 | 0.00 | 0.45 | 0.27 | 95 | 1007.7 |
| 20260507083239 | 49 | 0 | 0.0 | 0.0 | 0.00 | 0.45 | 0.27 | 95 | 1007.7 |
| 20260507083125 | 49 | 0 | 0.0 | 0.0 | 0.00 | 0.45 | 0.27 | 95 | 1007.7 |
| 20260507083117 | 49 | 0 | 0.0 | 0.0 | 0.00 | 0.45 | 0.27 | 95 | 1007.7 |
| 20260507083019 | 49 | 360 | 0.0 | 0.0 | 0.00 | 0.45 | 0.27 | 95 | 1007.9 |
| 20260507082910 | 49 | 0 | 0.0 | 0.0 | 0.00 | 0.45 | 0.27 | 95 | 1007.7 |
| 20260507082811 | 49 | 0 | 0.0 | 0.0 | 0.01 | 0.45 | 0.27 | 95 | 1007.7 |
| 20260507082710 | 49 | 0 | 0.0 | 0.0 | 0.01 | 0.45 | 0.27 | 95 | 1007.7 |
| 20260507082610 | 49 | 0 | 0.0 | 0.0 | 0.01 | 0.45 | 0.27 | 95 | 1007.7 |
| 20260507082519 | 49 | 360 | 0.0 | 0.0 | 0.01 | 0.45 | 0.27 | 95 | 1007.8 |
| 20260507082509 | 49 | 0 | 0.0 | 0.0 | 0.01 | 0.45 | 0.27 | 95 | 1007.7 |
| 20260507082409 | 49 | 0 | 0.0 | 0.0 | 0.01 | 0.45 | 0.27 | 95 | 1007.7 |
| 20260507082311 | 49 | 0 | 0.0 | 0.0 | 0.01 | 0.45 | 0.27 | 95 | 1007.8 |
| 20260507082238 | 49 | 0 | 0.0 | 0.0 | 0.02 | 0.45 | 0.27 | 95 | 1007.8 |
| 20260507082124 | 49 | 0 | 0.0 | 0.0 | 0.02 | 0.45 | 0.27 | 95 | 1007.8 |
| 20260507082117 | 49 | 0 | 0.0 | 0.0 | 0.02 | 0.45 | 0.27 | 95 | 1007.8 |
| 20260507082019 | 49 | 360 | 0.0 | 0.0 | 0.02 | 0.45 | 0.27 | 95 | 1007.8 |
| 20260507081916 | 49 | 0 | 0.0 | 0.0 | 0.02 | 0.45 | 0.27 | 95 | 1007.8 |
| 20260507081906 | 49 | 0 | 0.0 | 0.0 | 0.03 | 0.45 | 0.27 | 95 | 1007.8 |
| 20260507081708 | 49 | 0 | 0.0 | 0.0 | 0.03 | 0.45 | 0.27 | 95 | 1007.8 |
| 20260507081646 | 49 | 0 | 0.0 | 0.0 | 0.03 | 0.45 | 0.27 | 95 | 1007.8 |
| 20260507081519 | 49 | 360 | 0.0 | 0.0 | 0.03 | 0.45 | 0.27 | 95 | 1007.9 |
| 20260507081506 | 49 | 0 | 0.0 | 0.0 | 0.04 | 0.45 | 0.27 | 95 | 1007.8 |
| 20260507081404 | 49 | 0 | 0.0 | 0.0 | 0.04 | 0.45 | 0.27 | 95 | 1007.7 |
| 20260507081304 | 49 | 0 | 0.0 | 0.0 | 0.04 | 0.45 | 0.27 | 95 | 1007.7 |
| 20260507081237 | 49 | 0 | 0.0 | 0.0 | 0.05 | 0.45 | 0.27 | 95 | 1007.7 |
| 20260507081233 | 49 | 0 | 0.0 | 0.0 | 0.05 | 0.45 | 0.27 | 95 | 1007.6 |
| 20260507081227 | 49 | 0 | 0.0 | 0.0 | 0.04 | 0.45 | 0.27 | 95 | 1007.7 |
| 20260507081110 | 49 | 0 | 0.0 | 0.0 | 0.05 | 0.45 | 0.27 | 95 | 1007.7 |
| 20260507081019 | 49 | 360 | 0.0 | 0.0 | 0.05 | 0.45 | 0.27 | 95 | 1007.7 |
| 20260507080903 | 49 | 0 | 0.0 | 0.0 | 0.05 | 0.45 | 0.27 | 95 | 1007.7 |
| 20260507080802 | 49 | 0 | 0.0 | 0.0 | 0.05 | 0.45 | 0.27 | 95 | 1007.7 |
| 20260507080702 | 49 | 0 | 0.0 | 0.0 | 0.05 | 0.45 | 0.27 | 94 | 1007.7 |
| 20260507080536 | 49 | 0 | 0.0 | 0.0 | 0.05 | 0.45 | 0.27 | 94 | 1007.8 |
| 20260507080519 | 49 | 360 | 0.0 | 0.0 | 0.05 | 0.45 | 0.27 | 94 | 1007.9 |
| 20260507080501 | 49 | 0 | 0.0 | 0.0 | 0.05 | 0.45 | 0.27 | 94 | 1007.8 |
| 20260507080400 | 49 | 0 | 0.0 | 0.0 | 0.05 | 0.45 | 0.27 | 94 | 1007.8 |
| 20260507080300 | 49 | 0 | 0.0 | 0.0 | 0.05 | 0.45 | 0.27 | 94 | 1007.9 |
| 20260507080201 | 49 | 0 | 0.0 | 0.0 | 0.05 | 0.45 | 0.27 | 94 | 1007.9 |
| 20260507080036 | 49 | 0 | 0.0 | 0.0 | 0.05 | 0.45 | 0.27 | 94 | 1007.9 |
| 20260507080019 | 49 | 360 | 0.0 | 0.0 | 0.05 | 0.45 | 0.27 | 94 | 1007.9 |
| 20260507080000 | 49 | 0 | 0.0 | 0.0 | 0.06 | 0.45 | 0.27 | 94 | 1007.8 |
| 20260507075924 | 49 | 0 | 0.0 | 0.0 | 0.06 | 0.45 | 0.27 | 94 | 1007.8 |
| 20260507075808 | 49 | 0 | 0.0 | 0.0 | 0.06 | 0.45 | 0.27 | 94 | 1007.8 |
| 20260507075804 | 49 | 0 | 0.0 | 0.0 | 0.06 | 0.45 | 0.27 | 94 | 1007.8 |
| 20260507075645 | 49 | 0 | 0.0 | 0.0 | 0.07 | 0.45 | 0.27 | 94 | 1007.8 |
| 20260507075549 | 49 | 360 | 0.0 | 0.0 | 0.06 | 0.45 | 0.27 | 94 | 1007.9 |
| 20260507075505 | 49 | 0 | 0.0 | 0.0 | 0.07 | 0.45 | 0.27 | 94 | 1007.8 |
| 20260507075501 | 49 | 0 | 0.0 | 0.0 | 0.07 | 0.45 | 0.27 | 94 | 1007.8 |
| 20260507075251 | 49 | 0 | 0.0 | 0.0 | 0.07 | 0.45 | 0.27 | 94 | 1007.8 |
| 20260507075152 | 49 | 0 | 0.0 | 0.0 | 0.07 | 0.45 | 0.27 | 94 | 1007.8 |
| 20260507075036 | 49 | 0 | 0.0 | 0.0 | 0.07 | 0.45 | 0.27 | 94 | 1007.8 |
| 20260507075022 | 49 | 0 | 0.0 | 0.0 | 0.07 | 0.45 | 0.27 | 94 | 1007.9 |
| 20260507075019 | 49 | 360 | 0.0 | 0.0 | 0.07 | 0.45 | 0.27 | 94 | 1007.9 |
| 20260507075016 | 49 | 0 | 0.0 | 0.0 | 0.07 | 0.45 | 0.27 | 94 | 1007.8 |
| 20260507075012 | 49 | 0 | 0.0 | 0.0 | 0.08 | 0.45 | 0.27 | 94 | 1007.8 |
| 20260507075008 | 49 | 0 | 0.0 | 0.0 | 0.07 | 0.45 | 0.27 | 94 | 1007.8 |
| 20260507074651 | 49 | 0 | 0.0 | 0.0 | 0.08 | 0.45 | 0.27 | 94 | 1007.8 |
| 20260507074642 | 49 | 0 | 0.0 | 0.0 | 0.08 | 0.45 | 0.27 | 94 | 1007.8 |
| 20260507074519 | 49 | 360 | 0.0 | 0.0 | 0.08 | 0.45 | 0.27 | 94 | 1007.9 |
| 20260507074449 | 49 | 0 | 0.0 | 0.0 | 0.08 | 0.45 | 0.27 | 94 | 1007.8 |
| 20260507074346 | 49 | 0 | 0.0 | 0.0 | 0.08 | 0.45 | 0.27 | 94 | 1007.9 |
| 20260507074246 | 49 | 0 | 0.0 | 0.0 | 0.08 | 0.45 | 0.27 | 94 | 1007.9 |
| 20260507074146 | 49 | 0 | 0.0 | 0.0 | 0.08 | 0.45 | 0.27 | 94 | 1007.9 |
| 20260507074033 | 49 | 0 | 0.0 | 0.0 | 0.08 | 0.45 | 0.27 | 94 | 1007.8 |
| 20260507074019 | 49 | 360 | 0.0 | 0.0 | 0.08 | 0.45 | 0.27 | 94 | 1008.0 |
| 20260507073944 | 49 | 0 | 0.0 | 0.0 | 0.08 | 0.45 | 0.27 | 94 | 1007.9 |
| 20260507073844 | 49 | 0 | 0.0 | 0.0 | 0.08 | 0.45 | 0.27 | 94 | 1007.9 |
| 20260507073755 | 49 | 0 | 0.0 | 0.0 | 0.08 | 0.45 | 0.27 | 94 | 1008.0 |
| 20260507073751 | 49 | 0 | 0.0 | 0.0 | 0.08 | 0.45 | 0.27 | 94 | 1008.0 |
| 20260507073600 | 49 | 0 | 0.0 | 0.0 | 0.08 | 0.45 | 0.27 | 94 | 1008.0 |
| 20260507073548 | 49 | 0 | 0.0 | 0.0 | 0.08 | 0.45 | 0.27 | 94 | 1008.1 |
| 20260507073534 | 49 | 360 | 0.0 | 0.0 | 0.08 | 0.45 | 0.27 | 94 | 1008.1 |
| 20260507073341 | 49 | 0 | 0.0 | 0.0 | 0.08 | 0.45 | 0.27 | 94 | 1008.1 |
| 20260507073329 | 49 | 0 | 0.0 | 0.0 | 0.08 | 0.45 | 0.27 | 94 | 1008.2 |
| 20260507073324 | 49 | 0 | 0.0 | 0.0 | 0.09 | 0.45 | 0.27 | 94 | 1008.2 |
| 20260507073320 | 49 | 0 | 0.0 | 0.0 | 0.08 | 0.44 | 0.26 | 94 | 1008.1 |
| 20260507073315 | 49 | 0 | 0.0 | 0.0 | 0.08 | 0.45 | 0.27 | 94 | 1008.2 |
| 20260507073202 | 49 | 0 | 0.0 | 0.0 | 0.08 | 0.44 | 0.26 | 94 | 1008.1 |
| 20260507073157 | 49 | 0 | 0.0 | 0.0 | 0.08 | 0.44 | 0.26 | 94 | 1008.1 |
| 20260507073153 | 49 | 0 | 0.0 | 0.0 | 0.08 | 0.45 | 0.27 | 94 | 1008.2 |
| 20260507073036 | 49 | 0 | 0.0 | 0.0 | 0.08 | 0.45 | 0.27 | 94 | 1008.2 |
| 20260507073029 | 49 | 0 | 0.0 | 0.0 | 0.08 | 0.45 | 0.27 | 94 | 1008.2 |
| 20260507073019 | 50 | 360 | 0.0 | 0.0 | 0.08 | 0.45 | 0.27 | 94 | 1008.3 |
| 20260507072545 | 49 | 0 | 0.0 | 0.0 | 0.08 | 0.44 | 0.26 | 94 | 1008.1 |
| 20260507072534 | 50 | 360 | 0.0 | 0.0 | 0.08 | 0.44 | 0.26 | 94 | 1008.2 |
| 20260507072337 | 49 | 0 | 0.0 | 0.0 | 0.08 | 0.44 | 0.26 | 94 | 1008.0 |
| 20260507072235 | 49 | 0 | 0.0 | 0.0 | 0.07 | 0.43 | 0.26 | 94 | 1008.1 |
| 20260507072134 | 49 | 0 | 0.0 | 0.0 | 0.07 | 0.43 | 0.25 | 94 | 1008.1 |
| 20260507072027 | 49 | 0 | 0.0 | 0.0 | 0.07 | 0.43 | 0.25 | 94 | 1008.2 |
| 20260507072019 | 50 | 360 | 0.0 | 0.0 | 0.07 | 0.43 | 0.25 | 94 | 1008.3 |
| 20260507071934 | 49 | 0 | 0.0 | 0.0 | 0.07 | 0.43 | 0.25 | 94 | 1008.2 |
| 20260507071847 | 49 | 0 | 0.0 | 0.0 | 0.06 | 0.42 | 0.24 | 94 | 1008.3 |
| 20260507071842 | 49 | 0 | 0.0 | 0.0 | 0.07 | 0.43 | 0.25 | 94 | 1008.3 |
| 20260507071633 | 49 | 0 | 0.0 | 0.0 | 0.06 | 0.42 | 0.24 | 94 | 1008.3 |
| 20260507071527 | 49 | 0 | 0.0 | 0.0 | 0.05 | 0.41 | 0.24 | 94 | 1008.3 |
| 20260507071519 | 50 | 360 | 0.0 | 0.0 | 0.06 | 0.42 | 0.24 | 94 | 1008.4 |
| 20260507071433 | 49 | 0 | 0.0 | 0.0 | 0.05 | 0.41 | 0.23 | 94 | 1008.3 |
| 20260507071333 | 50 | 0 | 0.0 | 0.0 | 0.05 | 0.41 | 0.23 | 94 | 1008.2 |
| 20260507071245 | 50 | 0 | 0.0 | 0.0 | 0.05 | 0.41 | 0.23 | 94 | 1008.2 |
| 20260507071241 | 50 | 0 | 0.0 | 0.0 | 0.05 | 0.41 | 0.23 | 94 | 1008.2 |
| 20260507071025 | 50 | 0 | 0.0 | 0.0 | 0.04 | 0.40 | 0.22 | 94 | 1008.2 |
| 20260507071019 | 50 | 360 | 0.0 | 0.0 | 0.04 | 0.40 | 0.22 | 94 | 1008.4 |
| 20260507070930 | 50 | 0 | 0.0 | 0.0 | 0.04 | 0.40 | 0.22 | 94 | 1008.3 |
| 20260507070842 | 50 | 0 | 0.0 | 0.0 | 0.05 | 0.40 | 0.22 | 94 | 1008.1 |
| 20260507070838 | 50 | 0 | 0.0 | 0.0 | 0.04 | 0.40 | 0.22 | 94 | 1008.2 |
| 20260507070629 | 50 | 0 | 0.0 | 0.0 | 0.06 | 0.40 | 0.22 | 94 | 1008.2 |
| 20260507070547 | 50 | 0 | 0.0 | 0.0 | 0.06 | 0.40 | 0.22 | 94 | 1008.2 |
| 20260507070519 | 50 | 360 | 0.0 | 0.0 | 0.06 | 0.40 | 0.22 | 94 | 1008.3 |
| 20260507070434 | 50 | 0 | 0.0 | 0.0 | 0.06 | 0.40 | 0.22 | 94 | 1008.2 |
| 20260507070225 | 50 | 0 | 0.0 | 0.0 | 0.06 | 0.40 | 0.22 | 93 | 1008.1 |
| 20260507070125 | 50 | 0 | 0.0 | 0.0 | 0.07 | 0.40 | 0.22 | 93 | 1008.2 |
| 20260507070046 | 50 | 0 | 0.0 | 0.0 | 0.06 | 0.39 | 0.22 | 93 | 1008.2 |
| 20260507070019 | 50 | 360 | 0.0 | 0.0 | 0.07 | 0.40 | 0.22 | 93 | 1008.3 |
| 20260507065931 | 50 | 0 | 0.0 | 0.0 | 0.07 | 0.39 | 0.21 | 93 | 1008.2 |
| 20260507065734 | 50 | 0 | 0.0 | 0.0 | 0.08 | 0.39 | 0.21 | 93 | 1008.3 |
| 20260507065730 | 50 | 0 | 0.0 | 0.0 | 0.08 | 0.39 | 0.21 | 93 | 1008.2 |
| 20260507065521 | 50 | 0 | 0.0 | 0.0 | 0.07 | 0.38 | 0.21 | 93 | 1008.2 |
| 20260507065421 | 50 | 0 | 0.0 | 0.0 | 0.07 | 0.38 | 0.20 | 93 | 1008.2 |
| 20260507065321 | 50 | 0 | 0.0 | 0.0 | 0.07 | 0.38 | 0.20 | 93 | 1008.2 |
| 20260507065225 | 50 | 0 | 0.0 | 0.0 | 0.08 | 0.38 | 0.20 | 93 | 1008.1 |
| 20260507065120 | 50 | 0 | 0.0 | 0.0 | 0.08 | 0.38 | 0.20 | 93 | 1008.3 |
| 20260507065049 | 50 | 360 | 0.0 | 0.0 | 0.08 | 0.38 | 0.20 | 93 | 1008.6 |
| 20260507065019 | 50 | 0 | 0.0 | 0.0 | 0.08 | 0.38 | 0.20 | 93 | 1008.5 |
| 20260507064932 | 50 | 0 | 0.0 | 0.0 | 0.08 | 0.38 | 0.20 | 93 | 1008.4 |
| 20260507064928 | 50 | 0 | 0.0 | 0.0 | 0.08 | 0.38 | 0.20 | 93 | 1008.5 |
| 20260507064718 | 50 | 0 | 0.0 | 0.0 | 0.07 | 0.37 | 0.20 | 93 | 1008.5 |
| 20260507064618 | 50 | 0 | 0.0 | 0.0 | 0.07 | 0.37 | 0.19 | 93 | 1008.4 |
| 20260507064551 | 50 | 0 | 0.0 | 0.0 | 0.07 | 0.37 | 0.19 | 93 | 1008.5 |
| 20260507064546 | 50 | 0 | 0.0 | 0.0 | 0.07 | 0.37 | 0.19 | 93 | 1008.6 |
| 20260507064536 | 50 | 0 | 0.0 | 0.0 | 0.07 | 0.37 | 0.19 | 93 | 1008.5 |
| 20260507064519 | 50 | 360 | 0.0 | 0.0 | 0.07 | 0.37 | 0.19 | 93 | 1008.6 |
| 20260507064217 | 50 | 0 | 0.0 | 0.0 | 0.07 | 0.37 | 0.19 | 93 | 1008.5 |
| 20260507064132 | 50 | 0 | 0.0 | 0.0 | 0.10 | 0.37 | 0.19 | 93 | 1008.7 |
| 20260507064128 | 50 | 0 | 0.0 | 0.0 | 0.08 | 0.37 | 0.19 | 93 | 1008.4 |
| 20260507064119 | 50 | 0 | 0.0 | 0.0 | 0.08 | 0.37 | 0.19 | 93 | 1008.4 |
| 20260507064020 | 50 | 360 | 0.0 | 0.0 | 0.08 | 0.37 | 0.19 | 93 | 1008.8 |
| 20260507063926 | 50 | 0 | 0.0 | 0.0 | 0.11 | 0.37 | 0.19 | 93 | 1008.4 |
| 20260507063921 | 50 | 0 | 0.0 | 0.0 | 0.10 | 0.37 | 0.19 | 93 | 1008.7 |
| 20260507063712 | 50 | 0 | 0.0 | 0.0 | 0.12 | 0.37 | 0.19 | 93 | 1008.3 |
| 20260507063629 | 50 | 0 | 0.0 | 0.0 | 0.12 | 0.37 | 0.19 | 93 | 1008.0 |
| 20260507063625 | 50 | 0 | 0.0 | 0.0 | 0.12 | 0.37 | 0.19 | 93 | 1008.1 |
| 20260507063616 | 50 | 0 | 0.0 | 0.0 | 0.12 | 0.37 | 0.19 | 93 | 1008.1 |
| 20260507063534 | 50 | 360 | 0.0 | 0.0 | 0.12 | 0.37 | 0.19 | 93 | 1008.1 |
| 20260507063410 | 50 | 0 | 0.0 | 0.0 | 0.12 | 0.37 | 0.19 | 93 | 1007.9 |
| 20260507063323 | 50 | 0 | 0.0 | 0.0 | 0.13 | 0.37 | 0.19 | 93 | 1008.0 |
| 20260507063319 | 50 | 0 | 0.0 | 0.0 | 0.12 | 0.37 | 0.19 | 93 | 1008.0 |
| 20260507063110 | 50 | 0 | 0.0 | 0.0 | 0.13 | 0.37 | 0.19 | 93 | 1008.0 |
| 20260507063035 | 50 | 360 | 0.0 | 0.0 | 0.13 | 0.37 | 0.19 | 93 | 1008.1 |
| 20260507063009 | 50 | 0 | 0.0 | 0.0 | 0.13 | 0.37 | 0.19 | 93 | 1008.0 |
| 20260507062909 | 50 | 0 | 0.0 | 0.0 | 0.12 | 0.36 | 0.18 | 93 | 1007.9 |
| 20260507062807 | 50 | 0 | 0.0 | 0.0 | 0.12 | 0.36 | 0.18 | 93 | 1008.1 |
| 20260507062708 | 50 | 0 | 0.0 | 0.0 | 0.12 | 0.36 | 0.18 | 93 | 1008.3 |
| 20260507062621 | 50 | 0 | 0.0 | 0.0 | 0.12 | 0.36 | 0.18 | 93 | 1008.4 |
| 20260507062612 | 50 | 0 | 0.0 | 0.0 | 0.12 | 0.36 | 0.18 | 93 | 1008.4 |
| 20260507062519 | 50 | 360 | 0.0 | 0.0 | 0.12 | 0.36 | 0.18 | 93 | 1008.5 |
| 20260507062406 | 50 | 0 | 0.0 | 0.0 | 0.12 | 0.36 | 0.18 | 93 | 1008.3 |
| 20260507062306 | 50 | 0 | 0.0 | 0.0 | 0.12 | 0.36 | 0.18 | 93 | 1008.2 |
| 20260507062205 | 50 | 0 | 0.0 | 0.0 | 0.13 | 0.36 | 0.18 | 93 | 1008.0 |
| 20260507062105 | 50 | 0 | 0.0 | 0.0 | 0.14 | 0.36 | 0.18 | 93 | 1008.0 |
| 20260507062020 | 50 | 360 | 0.0 | 0.0 | 0.14 | 0.36 | 0.18 | 93 | 1008.2 |
| 20260507062018 | 50 | 0 | 0.0 | 0.0 | 0.14 | 0.36 | 0.18 | 93 | 1008.0 |
| 20260507062004 | 50 | 0 | 0.0 | 0.0 | 0.14 | 0.36 | 0.18 | 93 | 1008.1 |
| 20260507061904 | 50 | 0 | 0.0 | 0.0 | 0.14 | 0.36 | 0.18 | 93 | 1008.2 |
| 20260507061803 | 50 | 0 | 0.0 | 0.0 | 0.14 | 0.36 | 0.18 | 93 | 1008.2 |
| 20260507061703 | 50 | 0 | 0.0 | 0.0 | 0.15 | 0.36 | 0.18 | 93 | 1008.2 |
| 20260507061602 | 50 | 0 | 0.0 | 0.0 | 0.15 | 0.36 | 0.18 | 93 | 1008.2 |
| 20260507061520 | 50 | 360 | 0.0 | 0.0 | 0.15 | 0.36 | 0.18 | 93 | 1008.1 |
| 20260507061515 | 50 | 0 | 0.0 | 0.0 | 0.15 | 0.36 | 0.18 | 93 | 1008.0 |
| 20260507061510 | 50 | 0 | 0.0 | 0.0 | 0.15 | 0.36 | 0.18 | 93 | 1008.0 |
| 20260507061300 | 50 | 0 | 0.0 | 0.0 | 0.16 | 0.36 | 0.18 | 93 | 1007.9 |
| 20260507061200 | 51 | 0 | 0.0 | 0.0 | 0.16 | 0.36 | 0.18 | 93 | 1008.0 |
| 20260507061059 | 51 | 0 | 0.0 | 0.0 | 0.17 | 0.36 | 0.18 | 93 | 1008.1 |
| 20260507061019 | 51 | 360 | 0.0 | 0.0 | 0.17 | 0.36 | 0.18 | 93 | 1008.2 |
| 20260507061016 | 51 | 0 | 0.0 | 0.0 | 0.17 | 0.36 | 0.18 | 93 | 1008.1 |
| 20260507060959 | 51 | 0 | 0.0 | 0.0 | 0.17 | 0.36 | 0.18 | 93 | 1008.1 |
| 20260507060858 | 51 | 0 | 0.0 | 0.0 | 0.17 | 0.36 | 0.18 | 93 | 1008.1 |
| 20260507060758 | 51 | 0 | 0.0 | 0.0 | 0.17 | 0.36 | 0.18 | 93 | 1008.2 |
| 20260507060657 | 51 | 0 | 0.0 | 0.0 | 0.16 | 0.35 | 0.18 | 93 | 1008.3 |
| 20260507060557 | 51 | 0 | 0.0 | 0.0 | 0.15 | 0.34 | 0.17 | 92 | 1008.4 |
| 20260507060526 | 51 | 0 | 0.0 | 0.0 | 0.16 | 0.34 | 0.16 | 92 | 1007.9 |
| 20260507060521 | 51 | 0 | 0.0 | 0.0 | 0.16 | 0.34 | 0.16 | 92 | 1008.4 |
| 20260507060519 | 51 | 360 | 0.0 | 0.0 | 0.15 | 0.34 | 0.16 | 92 | 1008.2 |
| 20260507060515 | 51 | 0 | 0.0 | 0.0 | 0.16 | 0.34 | 0.16 | 92 | 1008.1 |
| 20260507060506 | 51 | 0 | 0.0 | 0.0 | 0.16 | 0.34 | 0.16 | 92 | 1007.8 |
| 20260507060155 | 51 | 0 | 0.0 | 0.0 | 0.16 | 0.34 | 0.16 | 92 | 1008.1 |
| 20260507060053 | 51 | 0 | 0.0 | 0.0 | 0.15 | 0.33 | 0.15 | 92 | 1008.2 |
| 20260507060034 | 51 | 360 | 0.0 | 0.0 | 0.15 | 0.33 | 0.15 | 92 | 1008.4 |
| 20260507060014 | 51 | 0 | 0.0 | 0.0 | 0.15 | 0.33 | 0.15 | 92 | 1008.2 |
| 20260507055953 | 51 | 0 | 0.0 | 0.0 | 0.14 | 0.32 | 0.15 | 92 | 1008.3 |
| 20260507055853 | 51 | 0 | 0.0 | 0.0 | 0.14 | 0.32 | 0.14 | 92 | 1008.2 |
| 20260507055805 | 51 | 0 | 0.0 | 0.0 | 0.13 | 0.31 | 0.13 | 92 | 1008.2 |
| 20260507055801 | 51 | 0 | 0.0 | 0.0 | 0.13 | 0.31 | 0.14 | 92 | 1008.2 |
| 20260507055551 | 51 | 0 | 0.0 | 0.0 | 0.13 | 0.31 | 0.13 | 92 | 1008.1 |
| 20260507055519 | 51 | 360 | 0.0 | 0.0 | 0.13 | 0.31 | 0.13 | 92 | 1008.4 |
| 20260507055515 | 51 | 0 | 0.0 | 0.0 | 0.13 | 0.31 | 0.13 | 92 | 1008.1 |
| 20260507055451 | 51 | 0 | 0.0 | 0.0 | 0.13 | 0.31 | 0.13 | 92 | 1008.3 |
| 20260507055351 | 51 | 0 | 0.0 | 0.0 | 0.13 | 0.31 | 0.13 | 92 | 1008.5 |
| 20260507055250 | 51 | 0 | 0.0 | 0.0 | 0.13 | 0.31 | 0.13 | 92 | 1008.5 |
| 20260507055150 | 51 | 0 | 0.0 | 0.0 | 0.12 | 0.30 | 0.12 | 92 | 1008.3 |
| 20260507055048 | 51 | 0 | 0.0 | 0.0 | 0.12 | 0.30 | 0.12 | 92 | 1008.0 |
| 20260507055034 | 51 | 360 | 0.0 | 0.0 | 0.12 | 0.30 | 0.12 | 92 | 1008.1 |
| 20260507055015 | 51 | 0 | 0.0 | 0.0 | 0.12 | 0.30 | 0.12 | 92 | 1008.1 |
| 20260507054948 | 51 | 0 | 0.0 | 0.0 | 0.12 | 0.30 | 0.12 | 92 | 1008.1 |
| 20260507054847 | 51 | 0 | 0.0 | 0.0 | 0.12 | 0.30 | 0.12 | 92 | 1008.1 |
| 20260507054749 | 51 | 0 | 0.0 | 0.0 | 0.12 | 0.30 | 0.12 | 92 | 1008.1 |
| 20260507054736 | 51 | 0 | 0.0 | 0.0 | 0.12 | 0.30 | 0.12 | 91 | 1008.1 |
| 20260507054731 | 51 | 0 | 0.0 | 0.0 | 0.12 | 0.30 | 0.12 | 92 | 1008.1 |
| 20260507054519 | 51 | 360 | 0.0 | 0.0 | 0.12 | 0.30 | 0.12 | 91 | 1008.1 |
| 20260507054446 | 51 | 0 | 0.0 | 0.0 | 0.12 | 0.30 | 0.12 | 92 | 1008.1 |
| 20260507054346 | 51 | 0 | 0.0 | 0.0 | 0.12 | 0.30 | 0.12 | 92 | 1008.1 |
| 20260507054245 | 51 | 0 | 0.0 | 0.0 | 0.12 | 0.30 | 0.12 | 92 | 1008.1 |
| 20260507054145 | 51 | 0 | 0.0 | 0.0 | 0.11 | 0.29 | 0.12 | 92 | 1008.1 |
| 20260507054045 | 51 | 0 | 0.0 | 0.0 | 0.11 | 0.29 | 0.11 | 92 | 1008.2 |
| 20260507054019 | 52 | 360 | 0.0 | 0.0 | 0.11 | 0.29 | 0.11 | 91 | 1008.1 |
| 20260507054013 | 51 | 0 | 0.0 | 0.0 | 0.09 | 0.27 | 0.11 | 91 | 1008.2 |
| 20260507053843 | 52 | 0 | 0.0 | 0.0 | 0.08 | 0.26 | 0.08 | 91 | 1008.1 |
| 20260507053742 | 52 | 0 | 0.0 | 0.0 | 0.07 | 0.25 | 0.07 | 91 | 1007.8 |
| 20260507053643 | 52 | 0 | 0.0 | 0.0 | 0.07 | 0.25 | 0.07 | 91 | 1008.0 |
| 20260507053520 | 52 | 360 | 0.0 | 0.9 | 0.07 | 0.25 | 0.07 | 91 | 1009.0 |
| 20260507053512 | 52 | 0 | 0.0 | 0.9 | 0.07 | 0.25 | 0.07 | 91 | 1008.7 |
| 20260507053442 | 52 | 0 | 0.0 | 1.7 | 0.07 | 0.25 | 0.07 | 91 | 1009.0 |
| 20260507053341 | 52 | 0 | 0.0 | 1.7 | 0.07 | 0.25 | 0.07 | 91 | 1008.7 |
| 20260507053241 | 52 | 0 | 0.0 | 1.7 | 0.06 | 0.24 | 0.06 | 90 | 1008.3 |
| 20260507053141 | 52 | 0 | 0.0 | 1.7 | 0.06 | 0.24 | 0.06 | 90 | 1008.0 |
| 20260507053100 | 52 | 0 | 0.0 | 1.7 | 0.06 | 0.24 | 0.06 | 90 | 1007.8 |
| 20260507053019 | 52 | 360 | 0.0 | 1.7 | 0.06 | 0.24 | 0.06 | 90 | 1007.8 |
| 20260507052949 | 52 | 0 | 0.0 | 1.7 | 0.06 | 0.24 | 0.06 | 90 | 1007.8 |
| 20260507052744 | 52 | 0 | 0.0 | 3.5 | 0.06 | 0.24 | 0.06 | 90 | 1007.9 |
| 20260507052738 | 52 | 0 | 0.0 | 1.7 | 0.06 | 0.24 | 0.06 | 90 | 1007.9 |
| 20260507052638 | 52 | 0 | 0.0 | 1.7 | 0.06 | 0.24 | 0.06 | 90 | 1007.9 |
| 20260507052619 | 52 | 0 | 0.0 | 1.7 | 0.06 | 0.24 | 0.06 | 90 | 1007.9 |
| 20260507052520 | 52 | 360 | 0.9 | 3.5 | 0.06 | 0.24 | 0.06 | 90 | 1007.9 |
| 20260507052451 | 52 | 0 | 0.9 | 4.3 | 0.06 | 0.24 | 0.06 | 89 | 1007.8 |
| 20260507052446 | 52 | 0 | 0.0 | 3.5 | 0.06 | 0.24 | 0.06 | 90 | 1007.9 |
| 20260507052234 | 52 | 0 | 0.9 | 5.2 | 0.06 | 0.24 | 0.06 | 89 | 1007.9 |
| 20260507052134 | 52 | 0 | 0.9 | 5.2 | 0.05 | 0.23 | 0.05 | 89 | 1007.8 |
| 20260507052034 | 53 | 0 | 0.9 | 5.2 | 0.04 | 0.22 | 0.05 | 89 | 1007.8 |
| 20260507052020 | 53 | 360 | 0.0 | 5.2 | 0.04 | 0.22 | 0.04 | 89 | 1008.0 |
| 20260507052011 | 53 | 0 | 0.9 | 5.2 | 0.04 | 0.22 | 0.04 | 89 | 1008.0 |
| 20260507051933 | 53 | 0 | 0.9 | 5.2 | 0.04 | 0.22 | 0.04 | 89 | 1008.0 |
| 20260507051833 | 53 | 0 | 0.9 | 5.2 | 0.04 | 0.22 | 0.04 | 89 | 1007.9 |
| 20260507051737 | 53 | 0 | 0.9 | 5.2 | 0.03 | 0.21 | 0.03 | 88 | 1007.8 |
| 20260507051733 | 53 | 0 | 0.9 | 5.2 | 0.04 | 0.22 | 0.04 | 88 | 1007.6 |
| 20260507051632 | 53 | 0 | 0.9 | 5.2 | 0.03 | 0.21 | 0.04 | 88 | 1007.6 |
| 20260507051619 | 53 | 0 | 0.9 | 5.2 | 0.03 | 0.21 | 0.03 | 88 | 1007.8 |
| 20260507051520 | 53 | 360 | 2.6 | 5.2 | 0.03 | 0.21 | 0.03 | 88 | 1007.8 |
| 20260507051433 | 53 | 0 | 0.9 | 5.2 | 0.03 | 0.21 | 0.03 | 88 | 1007.8 |
| 20260507051332 | 53 | 0 | 0.9 | 4.3 | 0.03 | 0.21 | 0.03 | 88 | 1007.9 |
| 20260507051232 | 53 | 0 | 0.9 | 4.3 | 0.02 | 0.20 | 0.03 | 88 | 1008.0 |
| 20260507051132 | 53 | 0 | 0.9 | 4.3 | 0.01 | 0.19 | 0.02 | 88 | 1008.0 |
| 20260507051032 | 53 | 0 | 0.9 | 4.3 | 0.01 | 0.19 | 0.01 | 88 | 1007.9 |
| 20260507051019 | 53 | 360 | 0.9 | 4.3 | 0.01 | 0.19 | 0.01 | 88 | 1008.1 |
| 20260507051011 | 53 | 0 | 1.7 | 4.3 | 0.01 | 0.19 | 0.01 | 88 | 1007.9 |
| 20260507050945 | 53 | 0 | 1.7 | 4.3 | 0.01 | 0.19 | 0.01 | 88 | 1008.4 |
| 20260507050941 | 53 | 0 | 1.7 | 4.3 | 0.01 | 0.19 | 0.01 | 88 | 1008.1 |
| 20260507050734 | 54 | 0 | 1.7 | 5.2 | 0.00 | 0.18 | 0.01 | 86 | 1007.1 |
| 20260507050730 | 53 | 0 | 1.7 | 4.3 | 0.01 | 0.19 | 0.01 | 87 | 1008.3 |
| 20260507050630 | 53 | 0 | 1.7 | 5.2 | 0.01 | 0.19 | 0.01 | 87 | 1008.1 |
| 20260507050618 | 54 | 0 | 1.7 | 5.2 | 0.01 | 0.19 | 0.01 | 86 | 1007.5 |
| 20260507050520 | 54 | 360 | 1.7 | 5.2 | 0.01 | 0.19 | 0.01 | 86 | 1007.2 |
| 20260507050429 | 54 | 0 | 1.7 | 5.2 | 0.00 | 0.18 | 0.01 | 87 | 1007.1 |
| 20260507050329 | 54 | 0 | 1.7 | 5.2 | 0.00 | 0.18 | 0.00 | 86 | 1007.1 |
| 20260507050248 | 54 | 0 | 1.7 | 7.8 | 0.00 | 0.18 | 0.00 | 86 | 1007.8 |
| 20260507050239 | 54 | 0 | 1.7 | 7.8 | 0.00 | 0.18 | 0.00 | 86 | 1007.6 |
| 20260507050235 | 54 | 0 | 1.7 | 7.8 | 0.00 | 0.18 | 0.00 | 86 | 1007.3 |
| 20260507050226 | 54 | 0 | 1.7 | 7.8 | 0.00 | 0.18 | 0.00 | 86 | 1007.6 |
| 20260507050019 | 54 | 360 | 2.6 | 5.2 | 0.00 | 0.18 | 0.00 | 86 | 1007.9 |
| 20260507045928 | 54 | 0 | 1.7 | 7.8 | 0.00 | 0.18 | 0.00 | 86 | 1007.8 |
| 20260507045826 | 54 | 0 | 1.7 | 7.8 | 0.00 | 0.18 | 0.00 | 86 | 1007.9 |
| 20260507045726 | 54 | 0 | 1.7 | 7.8 | 0.00 | 0.18 | 0.00 | 87 | 1007.9 |
| 20260507045658 | 54 | 0 | 0.9 | 7.8 | 0.00 | 0.18 | 0.00 | 86 | 1007.4 |
| 20260507045654 | 54 | 0 | 0.9 | 7.8 | 0.00 | 0.18 | 0.00 | 86 | 1007.2 |
| 20260507045649 | 54 | 0 | 0.9 | 7.8 | 0.00 | 0.18 | 0.00 | 86 | 1007.6 |
| 20260507045532 | 54 | 0 | 0.9 | 7.8 | 0.00 | 0.18 | 0.00 | 86 | 1007.2 |
| 20260507045520 | 54 | 360 | 1.7 | 5.2 | 0.00 | 0.18 | 0.00 | 86 | 1007.3 |
| 20260507045323 | 54 | 0 | 0.9 | 7.8 | 0.00 | 0.18 | 0.00 | 87 | 1007.2 |
| 20260507045224 | 54 | 0 | 0.9 | 5.2 | 0.00 | 0.18 | 0.00 | 87 | 1007.1 |
| 20260507045124 | 54 | 0 | 0.0 | 2.6 | 0.00 | 0.18 | 0.00 | 87 | 1007.0 |
| 20260507045023 | 54 | 0 | 0.0 | 1.7 | 0.00 | 0.18 | 0.00 | 87 | 1006.8 |
| 20260507045019 | 54 | 360 | 0.0 | 2.6 | 0.00 | 0.18 | 0.00 | 87 | 1006.9 |
| 20260507045007 | 54 | 0 | 0.0 | 2.6 | 0.00 | 0.18 | 0.00 | 87 | 1006.8 |
| 20260507044921 | 55 | 0 | 0.0 | 2.6 | 0.00 | 0.18 | 0.00 | 87 | 1006.8 |
| 20260507044822 | 55 | 0 | 0.0 | 2.6 | 0.00 | 0.18 | 0.00 | 87 | 1007.0 |
| 20260507044803 | 55 | 0 | 0.0 | 2.6 | 0.00 | 0.18 | 0.00 | 86 | 1006.9 |
| 20260507044721 | 55 | 0 | 0.0 | 2.6 | 0.00 | 0.18 | 0.00 | 87 | 1007.1 |
| 20260507044657 | 55 | 0 | 0.0 | 2.6 | 0.00 | 0.18 | 0.00 | 86 | 1007.0 |
| 20260507044648 | 55 | 0 | 0.0 | 2.6 | 0.00 | 0.18 | 0.00 | 86 | 1007.0 |
| 20260507044534 | 55 | 360 | 0.9 | 2.6 | 0.00 | 0.18 | 0.00 | 86 | 1007.0 |
| 20260507044429 | 55 | 0 | 0.0 | 2.6 | 0.00 | 0.18 | 0.00 | 86 | 1006.9 |
| 20260507044233 | 55 | 0 | 0.9 | 5.2 | 0.00 | 0.18 | 0.00 | 86 | 1007.3 |
| 20260507044229 | 55 | 0 | 0.9 | 5.2 | 0.00 | 0.18 | 0.00 | 86 | 1007.1 |
| 20260507044019 | 55 | 360 | 1.7 | 5.2 | 0.00 | 0.18 | 0.00 | 86 | 1007.8 |
| 20260507044004 | 55 | 0 | 0.9 | 5.2 | 0.00 | 0.18 | 0.00 | 86 | 1007.7 |
| 20260507043919 | 55 | 0 | 0.9 | 5.2 | 0.00 | 0.18 | 0.00 | 86 | 1007.7 |
| 20260507043818 | 55 | 0 | 0.9 | 5.2 | 0.00 | 0.18 | 0.00 | 86 | 1007.5 |
| 20260507043718 | 55 | 0 | 0.9 | 5.2 | 0.00 | 0.18 | 0.00 | 86 | 1007.2 |
| 20260507043631 | 55 | 0 | 0.9 | 5.2 | 0.00 | 0.18 | 0.00 | 85 | 1006.9 |
| 20260507043627 | 55 | 0 | 0.9 | 5.2 | 0.00 | 0.18 | 0.00 | 86 | 1006.9 |
| 20260507043534 | 55 | 360 | 2.6 | 5.2 | 0.00 | 0.18 | 0.00 | 85 | 1007.0 |
| 20260507043505 | 55 | 0 | 0.9 | 5.2 | 0.00 | 0.18 | 0.00 | 85 | 1006.9 |
| 20260507043417 | 55 | 0 | 0.9 | 5.2 | 0.00 | 0.18 | 0.00 | 86 | 1006.9 |
| 20260507043317 | 55 | 0 | 0.9 | 4.3 | 0.00 | 0.18 | 0.00 | 86 | 1007.1 |
| 20260507043229 | 55 | 0 | 0.9 | 4.3 | 0.00 | 0.18 | 0.00 | 86 | 1007.3 |
| 20260507043225 | 55 | 0 | 0.9 | 4.3 | 0.00 | 0.18 | 0.00 | 86 | 1007.2 |
| 20260507043019 | 55 | 360 | 0.0 | 4.3 | 0.00 | 0.18 | 0.00 | 85 | 1007.4 |
| 20260507043004 | 55 | 0 | 1.7 | 4.3 | 0.00 | 0.18 | 0.00 | 85 | 1007.3 |
| 20260507042915 | 55 | 0 | 1.7 | 4.3 | 0.00 | 0.18 | 0.00 | 85 | 1007.3 |
| 20260507042814 | 55 | 0 | 1.7 | 4.3 | 0.00 | 0.18 | 0.00 | 85 | 1007.2 |
| 20260507042714 | 55 | 0 | 1.7 | 4.3 | 0.00 | 0.18 | 0.00 | 86 | 1007.2 |
| 20260507042626 | 55 | 0 | 1.7 | 4.3 | 0.00 | 0.18 | 0.00 | 86 | 1007.0 |
| 20260507042622 | 55 | 0 | 1.7 | 4.3 | 0.00 | 0.18 | 0.00 | 86 | 1007.0 |
| 20260507042520 | 55 | 360 | 1.7 | 4.3 | 0.00 | 0.18 | 0.00 | 86 | 1007.1 |
| 20260507042503 | 55 | 0 | 1.7 | 4.3 | 0.00 | 0.18 | 0.00 | 86 | 1007.0 |
| 20260507042412 | 55 | 0 | 0.9 | 4.3 | 0.00 | 0.18 | 0.00 | 86 | 1007.0 |
| 20260507042311 | 55 | 0 | 0.9 | 4.3 | 0.00 | 0.18 | 0.00 | 86 | 1007.1 |
| 20260507042239 | 55 | 0 | 0.9 | 4.3 | 0.00 | 0.18 | 0.00 | 86 | 1007.0 |
| 20260507042235 | 55 | 0 | 0.9 | 4.3 | 0.00 | 0.18 | 0.00 | 86 | 1006.9 |
| 20260507042229 | 55 | 0 | 0.9 | 4.3 | 0.00 | 0.18 | 0.00 | 86 | 1007.1 |
| 20260507042019 | 55 | 360 | 1.7 | 4.3 | 0.00 | 0.18 | 0.00 | 86 | 1007.0 |
| 20260507042000 | 55 | 0 | 0.9 | 5.2 | 0.00 | 0.18 | 0.00 | 86 | 1006.9 |
| 20260507041909 | 55 | 0 | 0.9 | 7.0 | 0.00 | 0.18 | 0.00 | 86 | 1006.9 |
| 20260507041809 | 55 | 0 | 0.9 | 7.0 | 0.00 | 0.18 | 0.00 | 86 | 1006.9 |
| 20260507041708 | 55 | 0 | 0.9 | 7.0 | 0.00 | 0.18 | 0.00 | 86 | 1006.9 |
| 20260507041608 | 55 | 0 | 0.9 | 7.0 | 0.00 | 0.18 | 0.00 | 86 | 1006.9 |
| 20260507041520 | 55 | 360 | 0.0 | 7.0 | 0.00 | 0.18 | 0.00 | 86 | 1007.1 |
| 20260507041508 | 55 | 0 | 1.7 | 7.0 | 0.00 | 0.18 | 0.00 | 86 | 1007.0 |
| 20260507041500 | 55 | 0 | 1.7 | 7.0 | 0.00 | 0.18 | 0.00 | 86 | 1007.0 |
| 20260507041407 | 55 | 0 | 1.7 | 7.0 | 0.00 | 0.18 | 0.00 | 86 | 1006.9 |
| 20260507041307 | 55 | 0 | 1.7 | 7.0 | 0.00 | 0.18 | 0.00 | 86 | 1006.9 |
| 20260507041206 | 55 | 0 | 1.7 | 7.0 | 0.00 | 0.18 | 0.00 | 86 | 1006.9 |
| 20260507041106 | 55 | 0 | 1.7 | 7.0 | 0.00 | 0.18 | 0.00 | 86 | 1006.9 |
| 20260507041019 | 55 | 360 | 4.3 | 7.0 | 0.00 | 0.18 | 0.00 | 86 | 1007.1 |
| 20260507041007 | 55 | 0 | 1.7 | 7.0 | 0.00 | 0.18 | 0.00 | 86 | 1007.0 |
| 20260507041001 | 55 | 0 | 1.7 | 7.0 | 0.00 | 0.18 | 0.00 | 86 | 1007.0 |
| 20260507040902 | 55 | 0 | 1.7 | 5.2 | 0.00 | 0.18 | 0.00 | 86 | 1007.2 |
| 20260507040814 | 55 | 0 | 1.7 | 5.2 | 0.00 | 0.18 | 0.00 | 86 | 1007.3 |
| 20260507040810 | 55 | 0 | 1.7 | 5.2 | 0.00 | 0.18 | 0.00 | 86 | 1007.2 |
| 20260507040600 | 55 | 0 | 1.7 | 5.2 | 0.00 | 0.18 | 0.00 | 86 | 1007.3 |
| 20260507040519 | 55 | 360 | 2.6 | 5.2 | 0.00 | 0.18 | 0.00 | 86 | 1007.3 |
| 20260507040501 | 55 | 0 | 1.7 | 5.2 | 0.00 | 0.18 | 0.00 | 86 | 1007.2 |
| 20260507040359 | 55 | 0 | 0.9 | 5.2 | 0.00 | 0.18 | 0.00 | 86 | 1007.3 |
| 20260507040258 | 55 | 0 | 0.9 | 5.2 | 0.00 | 0.18 | 0.00 | 86 | 1007.4 |
| 20260507040158 | 55 | 0 | 0.9 | 5.2 | 0.00 | 0.18 | 0.00 | 87 | 1007.3 |
| 20260507040112 | 55 | 0 | 0.9 | 4.3 | 0.00 | 0.18 | 0.00 | 87 | 1007.2 |
| 20260507040019 | 55 | 360 | 0.0 | 4.3 | 0.00 | 0.18 | 0.00 | 87 | 1007.3 |
| 20260507035855 | 55 | 0 | 1.7 | 7.0 | 0.00 | 0.18 | 0.18 | 87 | 1007.2 |
| 20260507035806 | 55 | 0 | 1.7 | 7.0 | 0.00 | 0.18 | 0.18 | 87 | 1007.4 |
| 20260507035802 | 55 | 0 | 1.7 | 7.0 | 0.00 | 0.18 | 0.18 | 87 | 1007.3 |
| 20260507035552 | 55 | 0 | 1.7 | 7.0 | 0.00 | 0.18 | 0.18 | 87 | 1007.4 |
| 20260507035534 | 55 | 360 | 0.0 | 7.0 | 0.00 | 0.18 | 0.18 | 87 | 1007.5 |
| 20260507035452 | 55 | 0 | 1.7 | 7.0 | 0.00 | 0.18 | 0.18 | 87 | 1007.4 |
| 20260507035353 | 55 | 0 | 1.7 | 7.0 | 0.00 | 0.18 | 0.18 | 87 | 1007.4 |
| 20260507035252 | 55 | 0 | 1.7 | 7.0 | 0.00 | 0.18 | 0.18 | 87 | 1007.4 |
| 20260507035150 | 55 | 0 | 1.7 | 7.0 | 0.00 | 0.18 | 0.18 | 87 | 1007.4 |
| 20260507035050 | 55 | 0 | 0.9 | 7.0 | 0.00 | 0.18 | 0.18 | 87 | 1007.4 |
| 20260507035020 | 56 | 360 | 4.3 | 7.0 | 0.00 | 0.18 | 0.18 | 87 | 1007.6 |
| 20260507034957 | 55 | 0 | 0.9 | 5.2 | 0.00 | 0.18 | 0.18 | 87 | 1007.5 |
| 20260507034949 | 56 | 0 | 0.9 | 5.2 | 0.00 | 0.18 | 0.18 | 87 | 1007.5 |
| 20260507034849 | 56 | 0 | 0.9 | 4.3 | 0.00 | 0.18 | 0.18 | 87 | 1007.4 |
| 20260507034749 | 56 | 0 | 0.9 | 7.0 | 0.00 | 0.18 | 0.18 | 87 | 1007.3 |
| 20260507034717 | 56 | 0 | 0.9 | 7.0 | 0.00 | 0.18 | 0.18 | 88 | 1007.4 |
| 20260507034647 | 56 | 0 | 0.9 | 7.0 | 0.00 | 0.18 | 0.18 | 87 | 1007.3 |
| 20260507034606 | 56 | 0 | 0.9 | 7.0 | 0.00 | 0.18 | 0.18 | 88 | 1007.2 |
| 20260507034446 | 56 | 0 | 0.9 | 7.0 | 0.00 | 0.18 | 0.18 | 88 | 1007.4 |
| 20260507034344 | 56 | 0 | 0.9 | 7.0 | 0.00 | 0.18 | 0.18 | 88 | 1007.4 |
| 20260507034306 | 56 | 0 | 0.9 | 7.0 | 0.01 | 0.18 | 0.18 | 87 | 1007.3 |
| 20260507034244 | 56 | 0 | 0.9 | 7.0 | 0.00 | 0.18 | 0.18 | 88 | 1007.4 |
| 20260507034212 | 56 | 0 | 0.9 | 7.0 | 0.01 | 0.18 | 0.18 | 87 | 1007.3 |
| 20260507034207 | 56 | 0 | 0.9 | 7.0 | 0.00 | 0.18 | 0.18 | 87 | 1007.3 |
| 20260507034158 | 56 | 0 | 1.7 | 7.0 | 0.01 | 0.18 | 0.18 | 87 | 1007.3 |
| 20260507034020 | 56 | 360 | 0.0 | 7.0 | 0.01 | 0.18 | 0.18 | 87 | 1007.4 |
| 20260507033842 | 56 | 0 | 0.9 | 7.0 | 0.01 | 0.18 | 0.18 | 87 | 1007.2 |
| 20260507033742 | 56 | 0 | 0.9 | 4.3 | 0.01 | 0.18 | 0.18 | 87 | 1007.2 |
| 20260507033641 | 56 | 0 | 0.9 | 4.3 | 0.01 | 0.18 | 0.18 | 87 | 1007.2 |
| 20260507033541 | 56 | 0 | 0.9 | 4.3 | 0.01 | 0.18 | 0.18 | 87 | 1007.3 |
| 20260507033520 | 56 | 360 | 2.6 | 4.3 | 0.01 | 0.18 | 0.18 | 87 | 1007.3 |
| 20260507033459 | 56 | 0 | 0.9 | 4.3 | 0.01 | 0.18 | 0.18 | 87 | 1007.2 |
| 20260507033440 | 56 | 0 | 0.9 | 4.3 | 0.01 | 0.18 | 0.18 | 88 | 1007.2 |
| 20260507033340 | 56 | 0 | 0.9 | 3.5 | 0.01 | 0.18 | 0.18 | 88 | 1007.2 |
| 20260507033240 | 56 | 0 | 0.9 | 3.5 | 0.01 | 0.18 | 0.18 | 88 | 1007.2 |
| 20260507033137 | 56 | 0 | 0.9 | 3.5 | 0.01 | 0.18 | 0.18 | 88 | 1007.2 |
| 20260507033038 | 56 | 0 | 0.9 | 3.5 | 0.01 | 0.18 | 0.18 | 88 | 1007.1 |
| 20260507033020 | 56 | 360 | 0.9 | 3.5 | 0.01 | 0.18 | 0.18 | 88 | 1007.2 |
| 20260507032937 | 56 | 0 | 0.9 | 3.5 | 0.01 | 0.18 | 0.18 | 88 | 1007.1 |
| 20260507032837 | 56 | 0 | 0.9 | 3.5 | 0.01 | 0.18 | 0.18 | 88 | 1006.9 |
| 20260507032734 | 56 | 0 | 0.9 | 3.5 | 0.01 | 0.18 | 0.18 | 88 | 1006.9 |
| 20260507032715 | 56 | 0 | 0.9 | 3.5 | 0.01 | 0.18 | 0.18 | 88 | 1006.9 |
| 20260507032633 | 56 | 0 | 0.9 | 3.5 | 0.01 | 0.18 | 0.18 | 88 | 1006.9 |
| 20260507032615 | 56 | 0 | 0.9 | 3.5 | 0.01 | 0.18 | 0.18 | 87 | 1007.0 |
| 20260507032611 | 56 | 0 | 0.9 | 7.0 | 0.01 | 0.18 | 0.18 | 88 | 1006.9 |
| 20260507032605 | 56 | 0 | 0.9 | 3.5 | 0.01 | 0.18 | 0.18 | 88 | 1006.9 |
| 20260507032519 | 56 | 360 | 1.7 | 3.5 | 0.01 | 0.18 | 0.18 | 88 | 1007.0 |
| 20260507032450 | 56 | 0 | 0.9 | 3.5 | 0.01 | 0.18 | 0.18 | 87 | 1006.9 |
| 20260507032204 | 56 | 0 | 0.9 | 7.0 | 0.01 | 0.18 | 0.18 | 87 | 1006.8 |
| 20260507032200 | 56 | 0 | 0.9 | 7.0 | 0.01 | 0.18 | 0.18 | 87 | 1006.9 |
| 20260507032154 | 56 | 0 | 0.9 | 7.0 | 0.01 | 0.18 | 0.18 | 87 | 1006.9 |
| 20260507032037 | 56 | 0 | 0.9 | 7.0 | 0.01 | 0.18 | 0.18 | 87 | 1006.8 |
| 20260507032019 | 56 | 360 | 0.0 | 7.0 | 0.01 | 0.18 | 0.18 | 87 | 1006.9 |
| 20260507031830 | 56 | 0 | 1.7 | 10.4 | 0.01 | 0.18 | 0.18 | 87 | 1006.9 |
| 20260507031730 | 56 | 0 | 1.7 | 10.4 | 0.01 | 0.18 | 0.18 | 87 | 1007.0 |
| 20260507031630 | 56 | 0 | 1.7 | 10.4 | 0.01 | 0.18 | 0.18 | 87 | 1006.9 |
| 20260507031529 | 56 | 0 | 1.7 | 10.4 | 0.01 | 0.18 | 0.18 | 87 | 1006.9 |
| 20260507031520 | 57 | 360 | 2.6 | 10.4 | 0.01 | 0.18 | 0.18 | 87 | 1006.9 |
| 20260507031428 | 56 | 0 | 1.7 | 10.4 | 0.01 | 0.18 | 0.18 | 87 | 1006.9 |
| 20260507031328 | 57 | 0 | 1.7 | 10.4 | 0.01 | 0.18 | 0.18 | 87 | 1006.9 |
| 20260507031227 | 57 | 0 | 1.7 | 10.4 | 0.01 | 0.18 | 0.18 | 87 | 1006.9 |
| 20260507031127 | 57 | 0 | 1.7 | 10.4 | 0.01 | 0.18 | 0.18 | 87 | 1006.9 |
| 20260507031025 | 57 | 0 | 2.6 | 10.4 | 0.01 | 0.18 | 0.18 | 87 | 1007.0 |
| 20260507031020 | 57 | 360 | 0.0 | 10.4 | 0.01 | 0.18 | 0.18 | 87 | 1007.0 |
| 20260507030939 | 57 | 0 | 2.6 | 8.7 | 0.01 | 0.18 | 0.18 | 87 | 1007.0 |
| 20260507030934 | 57 | 0 | 2.6 | 10.4 | 0.01 | 0.18 | 0.18 | 87 | 1007.0 |
| 20260507030738 | 57 | 0 | 2.6 | 8.7 | 0.01 | 0.18 | 0.18 | 88 | 1006.9 |
| 20260507030733 | 57 | 0 | 2.6 | 8.7 | 0.01 | 0.18 | 0.18 | 87 | 1007.0 |
| 20260507030537 | 57 | 0 | 2.6 | 8.7 | 0.01 | 0.18 | 0.18 | 88 | 1006.9 |
| 20260507030529 | 57 | 0 | 2.6 | 8.7 | 0.01 | 0.18 | 0.18 | 88 | 1006.9 |
| 20260507030520 | 57 | 360 | 0.0 | 8.7 | 0.01 | 0.18 | 0.18 | 88 | 1006.9 |
| 20260507030322 | 57 | 0 | 2.6 | 8.7 | 0.01 | 0.18 | 0.18 | 87 | 1006.9 |
| 20260507030221 | 57 | 0 | 2.6 | 8.7 | 0.01 | 0.18 | 0.18 | 87 | 1006.9 |
| 20260507030120 | 58 | 0 | 2.6 | 7.8 | 0.01 | 0.18 | 0.18 | 87 | 1006.9 |
| 20260507030034 | 58 | 360 | 2.6 | 7.8 | 0.01 | 0.18 | 0.18 | 88 | 1006.7 |
| 20260507030018 | 58 | 0 | 2.6 | 7.8 | 0.01 | 0.18 | 0.18 | 88 | 1006.8 |
| 20260507025954 | 58 | 0 | 2.6 | 7.8 | 0.01 | 0.18 | 0.18 | 88 | 1006.7 |
| 20260507025917 | 58 | 0 | 2.6 | 7.8 | 0.01 | 0.18 | 0.18 | 88 | 1006.7 |
| 20260507025818 | 58 | 0 | 2.6 | 7.8 | 0.02 | 0.18 | 0.18 | 88 | 1006.6 |
| 20260507025718 | 58 | 0 | 2.6 | 10.4 | 0.02 | 0.18 | 0.18 | 88 | 1006.6 |
| 20260507025616 | 58 | 0 | 2.6 | 10.4 | 0.02 | 0.18 | 0.18 | 88 | 1006.6 |
| 20260507025519 | 58 | 360 | 3.5 | 10.4 | 0.02 | 0.18 | 0.18 | 88 | 1006.6 |
| 20260507025516 | 58 | 0 | 2.6 | 10.4 | 0.02 | 0.18 | 0.18 | 88 | 1006.6 |
| 20260507025453 | 58 | 0 | 2.6 | 10.4 | 0.02 | 0.18 | 0.18 | 88 | 1006.6 |
| 20260507025416 | 58 | 0 | 2.6 | 10.4 | 0.02 | 0.18 | 0.18 | 88 | 1006.6 |
| 20260507025316 | 59 | 0 | 2.6 | 10.4 | 0.02 | 0.18 | 0.18 | 88 | 1006.7 |
| 20260507025259 | 59 | 0 | 2.6 | 11.3 | 0.02 | 0.18 | 0.18 | 87 | 1006.5 |
| 20260507025253 | 59 | 0 | 3.5 | 11.3 | 0.02 | 0.18 | 0.18 | 88 | 1006.7 |
| 20260507025139 | 59 | 0 | 2.6 | 11.3 | 0.02 | 0.18 | 0.18 | 87 | 1006.6 |
| 20260507025130 | 59 | 0 | 2.6 | 11.3 | 0.02 | 0.18 | 0.18 | 87 | 1006.5 |
| 20260507025019 | 59 | 360 | 0.0 | 11.3 | 0.02 | 0.18 | 0.18 | 87 | 1006.5 |
| 20260507024815 | 60 | 0 | 1.7 | 11.3 | 0.02 | 0.18 | 0.18 | 87 | 1006.5 |
| 20260507024714 | 60 | 0 | 1.7 | 11.3 | 0.02 | 0.18 | 0.18 | 88 | 1006.5 |
| 20260507024628 | 60 | 0 | 0.9 | 11.3 | 0.02 | 0.18 | 0.18 | 87 | 1006.4 |
| 20260507024623 | 60 | 0 | 1.7 | 11.3 | 0.02 | 0.18 | 0.18 | 87 | 1006.4 |
| 20260507024520 | 60 | 360 | 2.6 | 11.3 | 0.02 | 0.18 | 0.18 | 87 | 1006.4 |
| 20260507024451 | 61 | 0 | 0.9 | 11.3 | 0.02 | 0.18 | 0.18 | 87 | 1006.4 |
| 20260507024413 | 61 | 0 | 0.9 | 11.3 | 0.02 | 0.18 | 0.18 | 87 | 1006.3 |
| 20260507024313 | 61 | 0 | 0.0 | 11.3 | 0.02 | 0.18 | 0.18 | 88 | 1006.3 |
| 20260507024212 | 62 | 0 | 0.0 | 11.3 | 0.02 | 0.18 | 0.18 | 89 | 1006.4 |
| 20260507024111 | 63 | 0 | 0.0 | 0.9 | 0.02 | 0.18 | 0.18 | 91 | 1006.4 |
| 20260507024020 | 63 | 360 | 0.0 | 0.0 | 0.01 | 0.17 | 0.17 | 92 | 1006.3 |
| 20260507024011 | 63 | 0 | 0.0 | 0.0 | 0.01 | 0.17 | 0.17 | 92 | 1006.3 |
| 20260507023950 | 63 | 0 | 0.0 | 0.0 | 0.01 | 0.17 | 0.17 | 92 | 1006.3 |
| 20260507023925 | 63 | 0 | 0.0 | 0.0 | 0.01 | 0.17 | 0.17 | 92 | 1006.4 |
| 20260507023920 | 63 | 0 | 0.0 | 0.0 | 0.01 | 0.17 | 0.17 | 92 | 1006.4 |
| 20260507023732 | 63 | 0 | 0.0 | 0.0 | 0.01 | 0.17 | 0.17 | 92 | 1006.4 |
| 20260507023727 | 63 | 0 | 0.0 | 0.0 | 0.01 | 0.17 | 0.17 | 92 | 1006.4 |
| 20260507023722 | 63 | 0 | 0.0 | 0.0 | 0.01 | 0.17 | 0.17 | 92 | 1006.4 |
| 20260507023713 | 63 | 0 | 0.0 | 0.0 | 0.01 | 0.17 | 0.17 | 92 | 1006.4 |
| 20260507023535 | 63 | 360 | 0.0 | 0.0 | 0.01 | 0.17 | 0.17 | 93 | 1006.4 |
| 20260507023452 | 63 | 0 | 0.0 | 0.0 | 0.01 | 0.17 | 0.17 | 92 | 1006.4 |
| 20260507023444 | 63 | 0 | 0.0 | 0.0 | 0.01 | 0.17 | 0.17 | 93 | 1006.3 |
| 20260507023331 | 63 | 0 | 0.0 | 0.0 | 0.01 | 0.17 | 0.17 | 92 | 1006.3 |
| 20260507023218 | 63 | 0 | 0.0 | 0.0 | 0.01 | 0.17 | 0.17 | 92 | 1006.3 |
| 20260507023209 | 63 | 0 | 0.0 | 0.0 | 0.01 | 0.17 | 0.17 | 92 | 1006.4 |
| 20260507023159 | 63 | 0 | 0.0 | 0.0 | 0.01 | 0.17 | 0.17 | 92 | 1006.4 |
| 20260507023019 | 63 | 360 | 0.0 | 0.0 | 0.01 | 0.17 | 0.17 | 92 | 1006.4 |
| 20260507022940 | 63 | 0 | 0.0 | 0.0 | 0.01 | 0.17 | 0.17 | 92 | 1006.4 |
| 20260507022520 | 63 | 360 | 0.0 | 0.0 | 0.01 | 0.17 | 0.17 | 92 | 1006.5 |
| 20260507022448 | 63 | 0 | 0.0 | 0.0 | 0.01 | 0.17 | 0.17 | 92 | 1006.5 |
| 20260507022402 | 63 | 0 | 0.0 | 0.0 | 0.01 | 0.17 | 0.17 | 92 | 1006.4 |
| 20260507022301 | 63 | 0 | 0.0 | 0.0 | 0.01 | 0.17 | 0.17 | 92 | 1006.4 |
| 20260507022215 | 63 | 0 | 0.0 | 0.0 | 0.01 | 0.17 | 0.17 | 92 | 1006.2 |
| 20260507022201 | 63 | 0 | 0.0 | 0.0 | 0.01 | 0.17 | 0.17 | 92 | 1006.3 |
| 20260507022118 | 63 | 0 | 0.0 | 0.0 | 0.01 | 0.17 | 0.17 | 92 | 1006.3 |
| 20260507022113 | 63 | 0 | 0.0 | 0.0 | 0.01 | 0.17 | 0.17 | 92 | 1006.3 |
| 20260507022108 | 63 | 0 | 0.0 | 0.0 | 0.01 | 0.17 | 0.17 | 92 | 1006.3 |
| 20260507022104 | 63 | 0 | 0.0 | 0.0 | 0.01 | 0.17 | 0.17 | 92 | 1006.3 |
| 20260507022055 | 63 | 0 | 0.0 | 0.0 | 0.01 | 0.17 | 0.17 | 92 | 1006.2 |
| 20260507022050 | 63 | 360 | 0.0 | 0.0 | 0.01 | 0.17 | 0.17 | 92 | 1006.2 |
| 20260507021942 | 64 | 0 | 0.0 | 0.0 | 0.01 | 0.17 | 0.17 | 92 | 1006.4 |
| 20260507021936 | 63 | 0 | 0.0 | 0.0 | 0.01 | 0.17 | 0.17 | 92 | 1006.3 |
| 20260507021520 | 64 | 360 | 0.0 | 0.0 | 0.01 | 0.17 | 0.17 | 92 | 1006.4 |
| 20260507021446 | 64 | 0 | 0.0 | 0.0 | 0.01 | 0.17 | 0.17 | 92 | 1006.4 |
| 20260507021359 | 64 | 0 | 0.0 | 0.0 | 0.01 | 0.17 | 0.17 | 92 | 1006.4 |
| 20260507021259 | 64 | 0 | 0.0 | 0.0 | 0.01 | 0.17 | 0.17 | 92 | 1006.4 |
| 20260507021158 | 64 | 0 | 0.0 | 0.0 | 0.01 | 0.17 | 0.17 | 92 | 1006.4 |
| 20260507021058 | 64 | 0 | 0.0 | 0.0 | 0.02 | 0.17 | 0.17 | 92 | 1006.4 |
| 20260507021019 | 64 | 360 | 0.0 | 0.0 | 0.02 | 0.17 | 0.17 | 92 | 1006.3 |
| 20260507020944 | 64 | 0 | 0.0 | 0.0 | 0.02 | 0.17 | 0.17 | 92 | 1006.3 |
| 20260507020857 | 64 | 0 | 0.0 | 0.0 | 0.02 | 0.17 | 0.17 | 92 | 1006.3 |
| 20260507020810 | 64 | 0 | 0.0 | 0.0 | 0.03 | 0.17 | 0.17 | 92 | 1006.4 |
| 20260507020804 | 64 | 0 | 0.0 | 0.0 | 0.02 | 0.17 | 0.17 | 92 | 1006.4 |
| 20260507020555 | 64 | 0 | 0.0 | 0.0 | 0.03 | 0.17 | 0.17 | 92 | 1006.4 |
| 20260507020549 | 64 | 360 | 0.0 | 0.0 | 0.03 | 0.17 | 0.17 | 92 | 1006.4 |
| 20260507020444 | 64 | 0 | 0.0 | 0.0 | 0.03 | 0.17 | 0.17 | 92 | 1006.4 |
| 20260507020355 | 64 | 0 | 0.0 | 0.0 | 0.03 | 0.17 | 0.17 | 92 | 1006.4 |
| 20260507020254 | 64 | 0 | 0.0 | 0.0 | 0.03 | 0.17 | 0.17 | 92 | 1006.4 |
| 20260507020154 | 64 | 0 | 0.0 | 0.0 | 0.03 | 0.17 | 0.17 | 92 | 1006.4 |
| 20260507020053 | 64 | 0 | 0.0 | 0.0 | 0.03 | 0.17 | 0.17 | 91 | 1006.4 |
| 20260507020019 | 64 | 360 | 0.0 | 0.0 | 0.03 | 0.17 | 0.17 | 91 | 1006.5 |
| 20260507015944 | 64 | 0 | 0.0 | 0.0 | 0.03 | 0.17 | 0.17 | 91 | 1006.5 |
| 20260507015851 | 64 | 0 | 0.0 | 0.0 | 0.02 | 0.16 | 0.16 | 91 | 1006.5 |
| 20260507015750 | 64 | 0 | 0.0 | 0.0 | 0.02 | 0.16 | 0.16 | 91 | 1006.5 |
| 20260507015704 | 64 | 0 | 0.0 | 0.0 | 0.02 | 0.16 | 0.16 | 91 | 1006.5 |
| 20260507015659 | 64 | 0 | 0.0 | 0.0 | 0.02 | 0.16 | 0.16 | 91 | 1006.5 |
| 20260507015535 | 64 | 360 | 0.0 | 0.0 | 0.02 | 0.16 | 0.16 | 91 | 1006.6 |
| 20260507015441 | 64 | 0 | 0.0 | 0.0 | 0.02 | 0.16 | 0.16 | 91 | 1006.6 |
| 20260507015349 | 64 | 0 | 0.0 | 0.0 | 0.02 | 0.16 | 0.16 | 91 | 1006.6 |
| 20260507015314 | 64 | 0 | 0.0 | 0.0 | 0.02 | 0.16 | 0.16 | 91 | 1006.4 |
| 20260507015148 | 64 | 0 | 0.0 | 0.0 | 0.02 | 0.16 | 0.16 | 91 | 1006.4 |
| 20260507015058 | 64 | 0 | 0.0 | 0.0 | 0.02 | 0.16 | 0.16 | 91 | 1006.4 |
| 20260507015049 | 64 | 0 | 0.0 | 0.0 | 0.02 | 0.16 | 0.16 | 91 | 1006.5 |
| 20260507015034 | 64 | 360 | 0.0 | 0.0 | 0.02 | 0.16 | 0.16 | 90 | 1006.5 |
| 20260507014846 | 64 | 0 | 0.0 | 0.0 | 0.02 | 0.16 | 0.16 | 90 | 1006.6 |
| 20260507014746 | 64 | 0 | 0.0 | 0.0 | 0.02 | 0.16 | 0.16 | 90 | 1006.6 |
| 20260507014646 | 64 | 0 | 0.0 | 0.0 | 0.02 | 0.16 | 0.16 | 90 | 1006.5 |
| 20260507014545 | 64 | 0 | 0.0 | 0.0 | 0.02 | 0.16 | 0.16 | 90 | 1006.5 |
| 20260507014520 | 64 | 360 | 0.0 | 0.0 | 0.02 | 0.16 | 0.16 | 90 | 1006.5 |
| 20260507014440 | 64 | 0 | 0.0 | 0.0 | 0.02 | 0.16 | 0.16 | 90 | 1006.5 |
| 20260507014409 | 64 | 0 | 0.0 | 0.0 | 0.02 | 0.16 | 0.16 | 90 | 1006.4 |
| 20260507014405 | 64 | 0 | 0.0 | 0.0 | 0.02 | 0.16 | 0.16 | 90 | 1006.3 |
| 20260507014400 | 64 | 0 | 0.0 | 0.0 | 0.02 | 0.16 | 0.16 | 90 | 1006.5 |
| 20260507014041 | 64 | 0 | 0.0 | 0.0 | 0.02 | 0.16 | 0.16 | 89 | 1006.3 |
| 20260507014035 | 64 | 360 | 0.0 | 0.0 | 0.02 | 0.16 | 0.16 | 89 | 1006.3 |
| 20260507013942 | 64 | 0 | 0.0 | 0.0 | 0.02 | 0.16 | 0.16 | 89 | 1006.3 |
| 20260507013840 | 64 | 0 | 0.0 | 0.0 | 0.02 | 0.16 | 0.16 | 89 | 1006.2 |
| 20260507013818 | 65 | 0 | 0.0 | 0.0 | 0.02 | 0.16 | 0.16 | 89 | 1006.2 |
| 20260507013706 | 65 | 0 | 0.0 | 0.0 | 0.02 | 0.16 | 0.16 | 89 | 1006.3 |
| 20260507013700 | 65 | 0 | 0.0 | 0.0 | 0.02 | 0.16 | 0.16 | 89 | 1006.3 |
| 20260507013542 | 65 | 0 | 0.0 | 0.0 | 0.02 | 0.16 | 0.16 | 89 | 1006.3 |
| 20260507013535 | 65 | 360 | 0.0 | 0.0 | 0.02 | 0.16 | 0.16 | 89 | 1006.3 |
| 20260507013350 | 65 | 0 | 0.0 | 0.0 | 0.02 | 0.16 | 0.16 | 88 | 1006.3 |
| 20260507013345 | 65 | 0 | 0.0 | 0.0 | 0.02 | 0.16 | 0.16 | 89 | 1006.3 |
| 20260507013158 | 65 | 0 | 0.0 | 0.0 | 0.02 | 0.16 | 0.16 | 88 | 1006.3 |
| 20260507013135 | 65 | 0 | 0.0 | 0.0 | 0.02 | 0.16 | 0.16 | 88 | 1006.3 |
| 20260507013049 | 65 | 0 | 0.0 | 0.0 | 0.02 | 0.16 | 0.16 | 88 | 1006.3 |
| 20260507013021 | 65 | 360 | 0.0 | 0.0 | 0.02 | 0.16 | 0.16 | 88 | 1006.3 |
| 20260507012934 | 65 | 0 | 0.0 | 0.0 | 0.02 | 0.16 | 0.16 | 88 | 1006.3 |
| 20260507012834 | 65 | 0 | 0.0 | 0.0 | 0.02 | 0.16 | 0.16 | 88 | 1006.2 |
| 20260507012734 | 65 | 0 | 0.0 | 0.0 | 0.02 | 0.16 | 0.16 | 88 | 1006.2 |
| 20260507012633 | 65 | 0 | 0.0 | 0.0 | 0.02 | 0.16 | 0.16 | 88 | 1006.2 |
| 20260507012533 | 65 | 0 | 0.0 | 0.0 | 0.02 | 0.16 | 0.16 | 87 | 1006.2 |
| 20260507012519 | 65 | 360 | 0.0 | 0.0 | 0.02 | 0.16 | 0.16 | 87 | 1006.2 |
| 20260507012452 | 65 | 0 | 0.0 | 0.0 | 0.02 | 0.16 | 0.16 | 87 | 1006.2 |
| 20260507012441 | 65 | 0 | 0.0 | 0.0 | 0.02 | 0.16 | 0.16 | 87 | 1006.2 |
| 20260507012232 | 65 | 0 | 0.0 | 0.0 | 0.02 | 0.16 | 0.16 | 87 | 1006.2 |
| 20260507012132 | 65 | 0 | 0.0 | 0.0 | 0.02 | 0.16 | 0.16 | 86 | 1006.2 |
| 20260507012030 | 65 | 0 | 0.0 | 0.0 | 0.02 | 0.16 | 0.16 | 86 | 1006.2 |
| 20260507012020 | 66 | 360 | 0.0 | 0.0 | 0.02 | 0.16 | 0.16 | 86 | 1006.1 |
| 20260507011931 | 66 | 0 | 0.0 | 0.0 | 0.02 | 0.16 | 0.16 | 86 | 1006.1 |
| 20260507011829 | 66 | 0 | 0.0 | 0.0 | 0.02 | 0.16 | 0.16 | 86 | 1006.1 |
| 20260507011729 | 66 | 0 | 0.0 | 0.0 | 0.02 | 0.16 | 0.16 | 86 | 1006.1 |
| 20260507011700 | 66 | 0 | 0.0 | 0.0 | 0.02 | 0.16 | 0.16 | 85 | 1006.0 |
| 20260507011656 | 66 | 0 | 0.0 | 0.0 | 0.02 | 0.16 | 0.16 | 85 | 1006.0 |
| 20260507011650 | 66 | 0 | 0.0 | 0.0 | 0.02 | 0.16 | 0.16 | 85 | 1006.1 |
| 20260507011534 | 66 | 360 | 0.0 | 0.0 | 0.02 | 0.16 | 0.16 | 85 | 1006.0 |
| 20260507011532 | 66 | 0 | 0.0 | 0.0 | 0.02 | 0.16 | 0.16 | 85 | 1006.0 |
| 20260507011327 | 66 | 0 | 0.0 | 0.0 | 0.02 | 0.16 | 0.16 | 85 | 1006.0 |
| 20260507011242 | 66 | 0 | 0.0 | 0.0 | 0.01 | 0.15 | 0.16 | 85 | 1006.0 |
| 20260507011237 | 66 | 0 | 0.0 | 0.0 | 0.02 | 0.16 | 0.16 | 85 | 1006.0 |
| 20260507011102 | 66 | 0 | 0.0 | 0.0 | 0.01 | 0.15 | 0.15 | 84 | 1005.8 |
| 20260507011020 | 66 | 360 | 0.0 | 0.0 | 0.01 | 0.15 | 0.15 | 84 | 1005.9 |
| 20260507010932 | 66 | 0 | 0.0 | 0.0 | 0.01 | 0.15 | 0.15 | 84 | 1005.9 |
| 20260507010826 | 66 | 0 | 0.0 | 0.0 | 0.01 | 0.15 | 0.15 | 84 | 1005.9 |
| 20260507010726 | 66 | 0 | 0.0 | 0.0 | 0.00 | 0.14 | 0.15 | 84 | 1006.0 |
| 20260507010625 | 66 | 0 | 0.0 | 0.0 | 0.00 | 0.14 | 0.14 | 84 | 1006.0 |
| 20260507010534 | 66 | 360 | 0.0 | 0.0 | 0.00 | 0.14 | 0.14 | 83 | 1006.0 |
| 20260507010525 | 66 | 0 | 0.0 | 0.0 | 0.00 | 0.14 | 0.14 | 83 | 1006.1 |
| 20260507010424 | 66 | 0 | 0.0 | 0.0 | 0.00 | 0.14 | 0.14 | 83 | 1006.0 |
| 20260507010325 | 66 | 0 | 0.0 | 0.0 | 0.00 | 0.14 | 0.14 | 83 | 1005.9 |
| 20260507010225 | 66 | 0 | 0.0 | 0.0 | 0.00 | 0.14 | 0.14 | 82 | 1005.8 |
| 20260507010124 | 66 | 0 | 0.0 | 0.0 | 0.00 | 0.14 | 0.14 | 82 | 1005.8 |
| 20260507010024 | 66 | 0 | 0.0 | 0.0 | 0.00 | 0.14 | 0.14 | 82 | 1005.8 |
| 20260507010020 | 66 | 360 | 0.0 | 0.0 | 0.00 | 0.14 | 0.14 | 82 | 1005.8 |
| 20260507005923 | 66 | 0 | 0.0 | 0.0 | 0.00 | 0.14 | 0.14 | 82 | 1005.8 |
| 20260507005821 | 66 | 0 | 0.0 | 0.0 | 0.00 | 0.14 | 0.14 | 82 | 1005.8 |
| 20260507005722 | 66 | 0 | 0.0 | 0.0 | 0.00 | 0.14 | 0.14 | 82 | 1005.8 |
| 20260507005621 | 66 | 0 | 0.0 | 0.0 | 0.00 | 0.14 | 0.14 | 82 | 1005.7 |
| 20260507005520 | 66 | 0 | 0.0 | 0.0 | 0.00 | 0.14 | 0.14 | 82 | 1005.7 |
| 20260507005420 | 66 | 0 | 0.0 | 0.0 | 0.00 | 0.14 | 0.14 | 82 | 1005.9 |
| 20260507005320 | 66 | 0 | 0.0 | 0.0 | 0.00 | 0.14 | 0.14 | 82 | 1005.9 |
| 20260507005219 | 66 | 0 | 0.0 | 0.0 | 0.00 | 0.14 | 0.14 | 82 | 1006.0 |
| 20260507005119 | 66 | 0 | 0.0 | 0.0 | 0.00 | 0.14 | 0.14 | 82 | 1006.0 |
| 20260507005050 | 66 | 360 | 0.0 | 0.0 | 0.00 | 0.14 | 0.14 | 82 | 1005.9 |
| 20260507005018 | 66 | 0 | 0.0 | 0.0 | 0.00 | 0.14 | 0.14 | 82 | 1005.9 |
| 20260507004959 | 66 | 0 | 0.0 | 0.0 | 0.00 | 0.14 | 0.14 | 82 | 1005.9 |
| 20260507004948 | 66 | 0 | 0.0 | 0.0 | 0.00 | 0.14 | 0.14 | 82 | 1005.9 |
| 20260507004725 | 66 | 0 | 0.0 | 0.0 | 0.00 | 0.14 | 0.14 | 82 | 1005.8 |
| 20260507004520 | 66 | 360 | 0.0 | 0.0 | 0.00 | 0.14 | 0.14 | 82 | 1005.6 |
| 20260507004516 | 66 | 0 | 0.0 | 0.0 | 0.00 | 0.14 | 0.14 | 82 | 1005.6 |
| 20260507004417 | 66 | 0 | 0.0 | 0.0 | 0.00 | 0.14 | 0.14 | 82 | 1005.6 |
| 20260507004316 | 66 | 0 | 0.0 | 0.0 | 0.00 | 0.14 | 0.14 | 82 | 1005.6 |
| 20260507004215 | 66 | 0 | 0.0 | 2.6 | 0.00 | 0.14 | 0.14 | 82 | 1005.6 |
| 20260507004114 | 66 | 0 | 0.0 | 3.5 | 0.00 | 0.14 | 0.14 | 82 | 1005.6 |
| 20260507004020 | 66 | 360 | 0.0 | 3.5 | 0.00 | 0.14 | 0.14 | 82 | 1005.6 |
| 20260507004014 | 66 | 0 | 0.0 | 3.5 | 0.00 | 0.14 | 0.14 | 82 | 1005.6 |
| 20260507003914 | 66 | 0 | 0.0 | 3.5 | 0.00 | 0.14 | 0.14 | 82 | 1005.6 |
| 20260507003813 | 66 | 0 | 0.0 | 3.5 | 0.00 | 0.14 | 0.14 | 82 | 1005.5 |
| 20260507003713 | 66 | 0 | 0.0 | 3.5 | 0.00 | 0.14 | 0.14 | 82 | 1005.4 |
| 20260507003640 | 66 | 0 | 0.0 | 3.5 | 0.00 | 0.14 | 0.14 | 82 | 1005.4 |
| 20260507003612 | 66 | 0 | 0.0 | 3.5 | 0.00 | 0.14 | 0.14 | 82 | 1005.4 |
| 20260507003550 | 66 | 360 | 0.0 | 3.5 | 0.00 | 0.14 | 0.14 | 82 | 1005.4 |
| 20260507003529 | 66 | 0 | 0.0 | 3.5 | 0.00 | 0.14 | 0.14 | 82 | 1005.4 |
| 20260507003411 | 66 | 0 | 0.0 | 3.5 | 0.00 | 0.14 | 0.14 | 82 | 1005.5 |
| 20260507003311 | 66 | 0 | 0.0 | 3.5 | 0.00 | 0.14 | 0.14 | 82 | 1005.4 |
| 20260507003211 | 66 | 0 | 0.0 | 3.5 | 0.00 | 0.14 | 0.14 | 82 | 1005.4 |
| 20260507003138 | 66 | 0 | 0.0 | 1.7 | 0.00 | 0.14 | 0.14 | 82 | 1005.1 |
| 20260507003110 | 66 | 0 | 0.0 | 1.7 | 0.00 | 0.14 | 0.14 | 82 | 1005.2 |
| 20260507003027 | 66 | 0 | 0.0 | 1.7 | 0.00 | 0.14 | 0.14 | 82 | 1005.1 |
| 20260507003020 | 66 | 360 | 0.0 | 1.7 | 0.00 | 0.14 | 0.14 | 82 | 1005.2 |
| 20260507002909 | 66 | 0 | 0.0 | 1.7 | 0.00 | 0.14 | 0.14 | 82 | 1005.1 |
| 20260507002809 | 66 | 0 | 0.0 | 1.7 | 0.00 | 0.14 | 0.14 | 82 | 1005.1 |
| 20260507002709 | 66 | 0 | 0.0 | 1.7 | 0.00 | 0.14 | 0.14 | 82 | 1005.0 |
| 20260507002608 | 66 | 0 | 0.0 | 1.7 | 0.00 | 0.14 | 0.14 | 82 | 1005.1 |
| 20260507002520 | 66 | 360 | 0.0 | 0.9 | 0.00 | 0.14 | 0.14 | 82 | 1005.2 |
| 20260507002508 | 66 | 0 | 0.0 | 0.9 | 0.00 | 0.14 | 0.14 | 82 | 1005.1 |
| 20260507002416 | 66 | 0 | 0.0 | 0.9 | 0.00 | 0.14 | 0.14 | 82 | 1005.1 |
| 20260507002408 | 67 | 0 | 0.0 | 0.0 | 0.00 | 0.14 | 0.14 | 82 | 1005.1 |
| 20260507002307 | 67 | 0 | 0.0 | 0.0 | 0.00 | 0.14 | 0.14 | 82 | 1005.1 |
| 20260507002221 | 67 | 0 | 0.0 | 0.0 | 0.00 | 0.14 | 0.14 | 82 | 1005.2 |
| 20260507002215 | 67 | 0 | 0.0 | 0.0 | 0.00 | 0.14 | 0.14 | 82 | 1005.1 |
| 20260507002020 | 67 | 360 | 0.0 | 0.0 | 0.00 | 0.14 | 0.14 | 82 | 1005.2 |
| 20260507002005 | 67 | 0 | 0.0 | 0.0 | 0.00 | 0.14 | 0.14 | 82 | 1005.1 |
| 20260507001906 | 67 | 0 | 0.0 | 0.0 | 0.00 | 0.14 | 0.14 | 82 | 1005.1 |
| 20260507001805 | 67 | 0 | 0.0 | 2.6 | 0.00 | 0.14 | 0.14 | 82 | 1005.2 |
| 20260507001757 | 67 | 0 | 0.0 | 2.6 | 0.00 | 0.14 | 0.14 | 82 | 1005.2 |
| 20260507001753 | 67 | 0 | 0.0 | 2.6 | 0.00 | 0.14 | 0.14 | 81 | 1005.2 |
| 20260507001749 | 67 | 0 | 0.0 | 2.6 | 0.00 | 0.14 | 0.14 | 81 | 1005.2 |
| 20260507001743 | 67 | 0 | 0.0 | 2.6 | 0.00 | 0.14 | 0.14 | 82 | 1005.2 |
| 20260507001534 | 67 | 360 | 0.0 | 2.6 | 0.00 | 0.14 | 0.14 | 82 | 1005.3 |
| 20260507001404 | 67 | 0 | 0.0 | 2.6 | 0.00 | 0.14 | 0.14 | 81 | 1005.2 |
| 20260507001304 | 67 | 0 | 0.0 | 2.6 | 0.00 | 0.14 | 0.14 | 81 | 1005.1 |
| 20260507001204 | 67 | 0 | 0.0 | 2.6 | 0.00 | 0.14 | 0.14 | 81 | 1005.1 |
| 20260507001103 | 67 | 0 | 0.0 | 4.3 | 0.00 | 0.14 | 0.14 | 81 | 1005.2 |
| 20260507001022 | 67 | 0 | 0.0 | 4.3 | 0.00 | 0.14 | 0.14 | 81 | 1005.2 |
| 20260507001020 | 67 | 360 | 0.0 | 2.6 | 0.00 | 0.14 | 0.14 | 81 | 1005.2 |
| 20260507001009 | 67 | 0 | 0.0 | 4.3 | 0.00 | 0.14 | 0.14 | 81 | 1005.1 |
| 20260507000823 | 67 | 0 | 0.0 | 4.3 | 0.00 | 0.14 | 0.14 | 81 | 1005.1 |
| 20260507000709 | 67 | 0 | 0.9 | 4.3 | 0.00 | 0.14 | 0.14 | 81 | 1005.1 |
| 20260507000520 | 67 | 360 | 0.0 | 2.6 | 0.00 | 0.14 | 0.14 | 81 | 1005.2 |
| 20260507000457 | 67 | 0 | 0.9 | 4.3 | 0.00 | 0.14 | 0.14 | 81 | 1005.1 |
| 20260507000414 | 67 | 0 | 0.9 | 4.3 | 0.00 | 0.14 | 0.14 | 81 | 1005.1 |
| 20260507000357 | 67 | 0 | 0.9 | 4.3 | 0.00 | 0.14 | 0.14 | 81 | 1005.1 |
| 20260507000258 | 67 | 0 | 0.9 | 4.3 | 0.00 | 0.14 | 0.14 | 81 | 1005.1 |
| 20260507000155 | 67 | 0 | 0.9 | 4.3 | 0.00 | 0.14 | 0.14 | 81 | 1005.1 |
| 20260507000055 | 67 | 0 | 0.9 | 3.5 | 0.00 | 0.14 | 0.14 | 81 | 1005.1 |
| 20260507000035 | 67 | 360 | 0.0 | 3.5 | 0.00 | 0.14 | 0.14 | 81 | 1005.1 |
| 20260506235955 | 67 | 0 | 0.9 | 3.5 | 0.00 | 0.14 | 0.14 | 81 | 1005.0 |
| 20260506235913 | 67 | 0 | 0.9 | 3.5 | 0.00 | 0.14 | 0.14 | 81 | 1005.1 |
| 20260506235907 | 67 | 0 | 0.0 | 3.5 | 0.00 | 0.14 | 0.14 | 81 | 1004.9 |
| 20260506235902 | 67 | 0 | 0.9 | 3.5 | 0.00 | 0.14 | 0.14 | 81 | 1005.1 |
| 20260506235653 | 67 | 0 | 0.0 | 3.5 | 0.00 | 0.14 | 0.14 | 81 | 1004.9 |
| 20260506235551 | 67 | 0 | 0.0 | 3.5 | 0.00 | 0.14 | 0.14 | 81 | 1004.9 |
| 20260506235538 | 67 | 0 | 0.0 | 3.5 | 0.00 | 0.14 | 0.14 | 81 | 1004.9 |
| 20260506235534 | 67 | 0 | 0.0 | 0.0 | 0.00 | 0.14 | 0.14 | 81 | 1004.9 |
| 20260506235529 | 67 | 0 | 0.0 | 0.0 | 0.00 | 0.14 | 0.14 | 81 | 1004.9 |
| 20260506235520 | 67 | 360 | 0.0 | 3.5 | 0.00 | 0.14 | 0.14 | 81 | 1005.0 |
| 20260506235515 | 67 | 0 | 0.0 | 3.5 | 0.00 | 0.14 | 0.14 | 81 | 1004.9 |
| 20260506235050 | 67 | 0 | 0.0 | 0.0 | 0.00 | 0.14 | 0.14 | 81 | 1004.9 |
| 20260506235020 | 67 | 360 | 0.0 | 4.3 | 0.00 | 0.14 | 0.14 | 81 | 1005.0 |
| 20260506234950 | 67 | 0 | 0.0 | 4.3 | 0.00 | 0.14 | 0.14 | 81 | 1004.9 |
| 20260506234912 | 67 | 0 | 0.0 | 4.3 | 0.00 | 0.14 | 0.14 | 81 | 1004.9 |
| 20260506234849 | 67 | 0 | 0.0 | 4.3 | 0.00 | 0.14 | 0.14 | 81 | 1004.9 |
| 20260506234749 | 67 | 0 | 0.0 | 4.3 | 0.00 | 0.14 | 0.14 | 81 | 1004.9 |
| 20260506234649 | 67 | 0 | 0.0 | 4.3 | 0.00 | 0.14 | 0.14 | 81 | 1004.9 |
| 20260506234635 | 67 | 0 | 0.0 | 4.3 | 0.00 | 0.14 | 0.14 | 81 | 1004.9 |
| 20260506234628 | 67 | 0 | 0.0 | 4.3 | 0.00 | 0.14 | 0.14 | 81 | 1004.8 |
| 20260506234520 | 67 | 360 | 0.0 | 4.3 | 0.00 | 0.14 | 0.14 | 81 | 1005.0 |
| 20260506234347 | 67 | 0 | 0.0 | 4.3 | 0.00 | 0.14 | 0.14 | 81 | 1004.9 |
| 20260506234247 | 67 | 0 | 0.0 | 4.3 | 0.00 | 0.14 | 0.14 | 81 | 1004.9 |
| 20260506234146 | 67 | 0 | 0.0 | 4.3 | 0.00 | 0.14 | 0.14 | 81 | 1005.0 |
| 20260506234133 | 67 | 0 | 0.0 | 0.9 | 0.00 | 0.14 | 0.14 | 81 | 1005.0 |
| 20260506234045 | 67 | 0 | 0.0 | 4.3 | 0.00 | 0.14 | 0.14 | 81 | 1005.0 |
| 20260506234020 | 67 | 360 | 0.0 | 1.7 | 0.00 | 0.14 | 0.14 | 81 | 1005.1 |
| 20260506233843 | 67 | 0 | 0.0 | 0.0 | 0.00 | 0.14 | 0.14 | 81 | 1005.0 |
| 20260506233744 | 67 | 0 | 0.0 | 0.0 | 0.00 | 0.14 | 0.14 | 81 | 1004.9 |
| 20260506233644 | 67 | 0 | 0.0 | 0.9 | 0.00 | 0.14 | 0.14 | 81 | 1004.9 |
| 20260506233543 | 67 | 0 | 0.0 | 0.9 | 0.00 | 0.14 | 0.14 | 81 | 1004.9 |
| 20260506233520 | 67 | 360 | 0.0 | 0.9 | 0.00 | 0.14 | 0.14 | 81 | 1005.0 |
| 20260506233502 | 67 | 0 | 0.0 | 0.9 | 0.00 | 0.14 | 0.14 | 81 | 1004.8 |
| 20260506233457 | 67 | 0 | 0.0 | 0.9 | 0.00 | 0.14 | 0.14 | 81 | 1004.9 |
| 20260506233449 | 67 | 0 | 0.0 | 0.9 | 0.00 | 0.14 | 0.14 | 81 | 1004.8 |
| 20260506233247 | 67 | 0 | 0.0 | 0.9 | 0.00 | 0.14 | 0.14 | 81 | 1004.9 |
| 20260506233243 | 67 | 0 | 0.0 | 0.9 | 0.00 | 0.14 | 0.14 | 81 | 1004.9 |
| 20260506233236 | 67 | 0 | 0.0 | 0.9 | 0.00 | 0.14 | 0.14 | 81 | 1004.8 |
| 20260506233232 | 67 | 0 | 0.0 | 0.9 | 0.00 | 0.14 | 0.14 | 81 | 1004.8 |
| 20260506233228 | 67 | 0 | 0.0 | 0.9 | 0.00 | 0.14 | 0.14 | 81 | 1004.8 |
| 20260506233222 | 67 | 0 | 0.0 | 0.9 | 0.00 | 0.14 | 0.14 | 81 | 1004.9 |
| 20260506233103 | 67 | 0 | 0.0 | 0.9 | 0.00 | 0.14 | 0.14 | 81 | 1004.8 |
| 20260506233020 | 67 | 360 | 0.0 | 0.9 | 0.00 | 0.14 | 0.14 | 81 | 1004.9 |
| 20260506232655 | 67 | 0 | 0.0 | 0.0 | 0.00 | 0.14 | 0.14 | 81 | 1004.8 |
| 20260506232650 | 67 | 0 | 0.0 | 0.0 | 0.00 | 0.14 | 0.14 | 81 | 1004.8 |
| 20260506232604 | 67 | 360 | 0.0 | 0.0 | 0.00 | 0.14 | 0.14 | 81 | 1004.9 |
| 20260506232438 | 67 | 0 | 0.0 | 0.0 | 0.00 | 0.14 | 0.14 | 81 | 1004.8 |
| 20260506232406 | 67 | 0 | 0.0 | 0.0 | 0.00 | 0.14 | 0.14 | 81 | 1004.8 |
| 20260506232338 | 67 | 0 | 0.0 | 0.0 | 0.00 | 0.14 | 0.14 | 81 | 1004.8 |
| 20260506232237 | 67 | 0 | 0.0 | 0.0 | 0.00 | 0.14 | 0.14 | 80 | 1004.8 |
| 20260506232137 | 67 | 0 | 0.0 | 0.0 | 0.00 | 0.14 | 0.14 | 80 | 1004.9 |
| 20260506232037 | 67 | 0 | 0.0 | 0.0 | 0.00 | 0.14 | 0.14 | 80 | 1004.9 |
| 20260506232035 | 67 | 360 | 0.0 | 0.0 | 0.00 | 0.14 | 0.14 | 80 | 1004.9 |
| 20260506231936 | 67 | 0 | 0.0 | 0.0 | 0.00 | 0.14 | 0.14 | 80 | 1004.9 |
| 20260506231906 | 67 | 0 | 0.0 | 0.0 | 0.00 | 0.14 | 0.14 | 80 | 1004.9 |
| 20260506231836 | 67 | 0 | 0.0 | 0.0 | 0.00 | 0.14 | 0.14 | 80 | 1004.9 |
| 20260506231816 | 67 | 0 | 0.0 | 0.0 | 0.00 | 0.14 | 0.14 | 80 | 1004.9 |
| 20260506231811 | 67 | 0 | 0.0 | 0.0 | 0.00 | 0.14 | 0.14 | 80 | 1004.9 |
| 20260506231807 | 67 | 0 | 0.0 | 0.0 | 0.00 | 0.14 | 0.14 | 80 | 1004.9 |
| 20260506231801 | 67 | 0 | 0.0 | 0.0 | 0.00 | 0.14 | 0.14 | 80 | 1004.9 |
| 20260506231520 | 68 | 360 | 0.0 | 0.0 | 0.00 | 0.14 | 0.14 | 80 | 1004.9 |
| 20260506231406 | 68 | 0 | 0.0 | 0.0 | 0.00 | 0.14 | 0.14 | 80 | 1004.9 |
| 20260506231333 | 68 | 0 | 0.0 | 0.0 | 0.00 | 0.14 | 0.14 | 80 | 1004.9 |
| 20260506231233 | 68 | 0 | 0.0 | 0.0 | 0.00 | 0.14 | 0.14 | 79 | 1004.9 |
| 20260506231132 | 68 | 0 | 0.0 | 0.0 | 0.00 | 0.14 | 0.14 | 79 | 1004.9 |
| 20260506231049 | 68 | 360 | 0.0 | 0.0 | 0.00 | 0.14 | 0.14 | 80 | 1004.8 |
| 20260506231031 | 68 | 0 | 0.0 | 0.0 | 0.00 | 0.14 | 0.14 | 80 | 1004.8 |
| 20260506230931 | 68 | 0 | 0.0 | 0.0 | 0.00 | 0.14 | 0.14 | 80 | 1004.8 |
| 20260506230905 | 68 | 0 | 0.0 | 0.0 | 0.00 | 0.14 | 0.14 | 79 | 1004.9 |
| 20260506230831 | 68 | 0 | 0.0 | 0.0 | 0.00 | 0.14 | 0.14 | 79 | 1004.9 |
| 20260506230731 | 68 | 0 | 0.0 | 0.0 | 0.00 | 0.14 | 0.14 | 79 | 1005.0 |
| 20260506230631 | 68 | 0 | 0.0 | 0.0 | 0.00 | 0.14 | 0.14 | 79 | 1005.0 |
| 20260506230611 | 68 | 0 | 0.0 | 0.0 | 0.00 | 0.14 | 0.14 | 79 | 1004.9 |
| 20260506230519 | 68 | 360 | 0.0 | 0.0 | 0.00 | 0.14 | 0.14 | 79 | 1005.0 |
| 20260506230459 | 68 | 0 | 0.0 | 0.0 | 0.00 | 0.14 | 0.14 | 79 | 1005.0 |
| 20260506230445 | 68 | 0 | 0.0 | 0.0 | 0.00 | 0.14 | 0.14 | 79 | 1005.0 |
| 20260506230134 | 68 | 0 | 0.0 | 0.0 | 0.00 | 0.14 | 0.14 | 79 | 1004.9 |
| 20260506230130 | 68 | 0 | 0.0 | 0.0 | 0.00 | 0.14 | 0.14 | 79 | 1004.9 |
| 20260506230123 | 68 | 0 | 0.0 | 0.0 | 0.00 | 0.14 | 0.14 | 79 | 1004.9 |
| 20260506230119 | 68 | 0 | 0.0 | 0.0 | 0.00 | 0.14 | 0.14 | 79 | 1004.9 |
| 20260506230114 | 68 | 0 | 0.0 | 0.0 | 0.00 | 0.14 | 0.14 | 79 | 1004.9 |
| 20260506230110 | 68 | 0 | 0.0 | 0.0 | 0.00 | 0.14 | 0.14 | 78 | 1004.9 |
| 20260506230105 | 68 | 0 | 0.0 | 2.6 | 0.00 | 0.14 | 0.14 | 78 | 1004.9 |
| 20260506230100 | 68 | 0 | 0.0 | 0.0 | 0.00 | 0.14 | 0.14 | 79 | 1005.0 |
| 20260506230050 | 68 | 0 | 0.0 | 0.0 | 0.00 | 0.14 | 0.14 | 79 | 1005.0 |
| 20260506230043 | 68 | 0 | 0.0 | 0.0 | 0.00 | 0.14 | 0.14 | 79 | 1004.9 |
| 20260506230019 | 68 | 360 | 0.0 | 0.0 | 0.00 | 0.14 | 0.14 | 79 | 1005.0 |
| 20260506225519 | 68 | 360 | 0.0 | 0.0 | 0.00 | 0.14 | 0.14 | 79 | 1004.9 |
| 20260506225451 | 68 | 0 | 0.0 | 2.6 | 0.00 | 0.14 | 0.14 | 78 | 1004.9 |
| 20260506225340 | 68 | 0 | 0.0 | 2.6 | 0.00 | 0.14 | 0.14 | 78 | 1004.9 |
| 20260506225037 | 68 | 0 | 0.0 | 2.6 | 0.00 | 0.14 | 0.14 | 78 | 1004.7 |
| 20260506225031 | 68 | 0 | 0.0 | 2.6 | 0.00 | 0.14 | 0.14 | 78 | 1004.8 |
| 20260506225019 | 68 | 360 | 0.0 | 2.6 | 0.00 | 0.14 | 0.14 | 78 | 1004.7 |
| 20260506224902 | 68 | 0 | 0.0 | 2.6 | 0.00 | 0.14 | 0.14 | 78 | 1004.7 |
| 20260506224837 | 68 | 0 | 0.0 | 2.6 | 0.00 | 0.14 | 0.14 | 78 | 1004.8 |
| 20260506224831 | 68 | 0 | 0.0 | 2.6 | 0.00 | 0.14 | 0.14 | 78 | 1004.7 |
| 20260506224622 | 68 | 0 | 0.0 | 2.6 | 0.00 | 0.14 | 0.14 | 78 | 1004.8 |
| 20260506224522 | 68 | 0 | 0.0 | 8.7 | 0.00 | 0.14 | 0.14 | 78 | 1004.8 |
| 20260506224520 | 68 | 360 | 0.0 | 8.7 | 0.00 | 0.14 | 0.14 | 78 | 1004.8 |
| 20260506224421 | 68 | 0 | 0.0 | 8.7 | 0.00 | 0.14 | 0.14 | 78 | 1004.8 |
| 20260506224400 | 68 | 0 | 0.0 | 8.7 | 0.00 | 0.14 | 0.14 | 78 | 1004.8 |
| 20260506224320 | 68 | 0 | 0.0 | 8.7 | 0.00 | 0.14 | 0.14 | 78 | 1004.8 |
| 20260506224220 | 68 | 0 | 0.0 | 8.7 | 0.00 | 0.14 | 0.14 | 78 | 1004.8 |
| 20260506224119 | 68 | 0 | 0.0 | 8.7 | 0.00 | 0.14 | 0.14 | 78 | 1004.8 |
| 20260506224050 | 69 | 360 | 0.0 | 8.7 | 0.00 | 0.14 | 0.14 | 77 | 1004.8 |
| 20260506224019 | 69 | 0 | 0.9 | 8.7 | 0.00 | 0.14 | 0.14 | 78 | 1004.7 |
| 20260506223918 | 69 | 0 | 0.9 | 8.7 | 0.00 | 0.14 | 0.14 | 78 | 1004.8 |
| 20260506223859 | 69 | 0 | 0.9 | 8.7 | 0.00 | 0.14 | 0.14 | 78 | 1004.7 |
| 20260506223818 | 69 | 215 | 0.9 | 8.7 | 0.00 | 0.14 | 0.14 | 78 | 1004.7 |
| 20260506223718 | 69 | 223 | 0.9 | 8.7 | 0.00 | 0.14 | 0.14 | 77 | 1004.7 |
| 20260506223618 | 69 | 240 | 0.9 | 8.7 | 0.00 | 0.14 | 0.14 | 77 | 1004.7 |
| 20260506223520 | 69 | 231 | 0.0 | 8.7 | 0.00 | 0.14 | 0.14 | 77 | 1004.8 |
| 20260506223517 | 69 | 230 | 0.9 | 8.7 | 0.00 | 0.14 | 0.14 | 77 | 1004.7 |
| 20260506223417 | 69 | 205 | 0.9 | 8.7 | 0.00 | 0.14 | 0.14 | 77 | 1004.8 |
| 20260506223357 | 69 | 218 | 1.7 | 8.7 | 0.00 | 0.14 | 0.14 | 77 | 1004.8 |
| 20260506223316 | 69 | 184 | 1.7 | 8.7 | 0.00 | 0.14 | 0.14 | 77 | 1004.8 |
| 20260506223216 | 69 | 205 | 1.7 | 8.7 | 0.00 | 0.14 | 0.14 | 77 | 1004.8 |
| 20260506223116 | 69 | 213 | 1.7 | 8.7 | 0.00 | 0.14 | 0.14 | 78 | 1004.7 |
| 20260506223050 | 69 | 223 | 0.0 | 7.0 | 0.00 | 0.14 | 0.14 | 78 | 1004.7 |
| 20260506223015 | 69 | 223 | 1.7 | 7.0 | 0.00 | 0.14 | 0.14 | 78 | 1004.7 |
| 20260506222914 | 69 | 210 | 1.7 | 7.0 | 0.00 | 0.14 | 0.14 | 79 | 1004.7 |
| 20260506222858 | 69 | 231 | 1.7 | 7.0 | 0.00 | 0.14 | 0.14 | 78 | 1004.7 |
| 20260506222813 | 69 | 193 | 1.7 | 7.0 | 0.00 | 0.14 | 0.14 | 78 | 1004.7 |
| 20260506222712 | 69 | 193 | 1.7 | 7.0 | 0.00 | 0.14 | 0.14 | 78 | 1004.6 |
| 20260506222611 | 69 | 223 | 1.7 | 7.0 | 0.00 | 0.14 | 0.14 | 78 | 1004.6 |
| 20260506222519 | 69 | 219 | 4.3 | 7.0 | 0.00 | 0.14 | 0.14 | 79 | 1004.5 |
| 20260506222511 | 69 | 219 | 1.7 | 7.0 | 0.00 | 0.14 | 0.14 | 79 | 1004.5 |
| 20260506222411 | 68 | 207 | 1.7 | 6.1 | 0.00 | 0.14 | 0.14 | 79 | 1004.5 |
| 20260506222358 | 68 | 182 | 1.7 | 6.1 | 0.00 | 0.14 | 0.14 | 79 | 1004.5 |
| 20260506222310 | 68 | 245 | 1.7 | 5.2 | 0.00 | 0.14 | 0.14 | 79 | 1004.5 |
| 20260506222209 | 68 | 206 | 1.7 | 5.2 | 0.00 | 0.14 | 0.14 | 79 | 1004.4 |
| 20260506222109 | 68 | 198 | 1.7 | 5.2 | 0.00 | 0.14 | 0.14 | 79 | 1004.4 |
| 20260506222020 | 68 | 360 | 0.0 | 5.2 | 0.00 | 0.14 | 0.14 | 79 | 1004.4 |
| 20260506222007 | 68 | 0 | 1.7 | 5.2 | 0.00 | 0.14 | 0.14 | 79 | 1004.4 |
| 20260506221907 | 68 | 0 | 1.7 | 5.2 | 0.00 | 0.14 | 0.14 | 79 | 1004.5 |
| 20260506221857 | 68 | 0 | 1.7 | 5.2 | 0.00 | 0.14 | 0.14 | 79 | 1004.5 |
| 20260506221806 | 68 | 0 | 2.6 | 5.2 | 0.00 | 0.14 | 0.14 | 79 | 1004.5 |
| 20260506221706 | 68 | 0 | 2.6 | 5.2 | 0.00 | 0.14 | 0.14 | 79 | 1004.5 |
| 20260506221606 | 68 | 0 | 2.6 | 5.2 | 0.00 | 0.14 | 0.14 | 79 | 1004.5 |
| 20260506221506 | 68 | 0 | 2.6 | 5.2 | 0.00 | 0.14 | 0.14 | 79 | 1004.4 |
| 20260506221405 | 68 | 0 | 1.7 | 5.2 | 0.00 | 0.14 | 0.14 | 79 | 1004.4 |
| 20260506221354 | 68 | 0 | 1.7 | 5.2 | 0.00 | 0.14 | 0.14 | 79 | 1004.4 |
| 20260506221305 | 68 | 0 | 1.7 | 4.3 | 0.00 | 0.14 | 0.14 | 79 | 1004.5 |
| 20260506221204 | 68 | 0 | 1.7 | 4.3 | 0.00 | 0.14 | 0.14 | 79 | 1004.5 |
| 20260506221103 | 68 | 0 | 1.7 | 4.3 | 0.00 | 0.14 | 0.14 | 79 | 1004.6 |
| 20260506221020 | 68 | 360 | 1.7 | 4.3 | 0.00 | 0.14 | 0.14 | 79 | 1004.6 |
| 20260506221004 | 68 | 0 | 1.7 | 4.3 | 0.00 | 0.14 | 0.14 | 79 | 1004.6 |
| 20260506220901 | 68 | 0 | 1.7 | 4.3 | 0.00 | 0.14 | 0.14 | 79 | 1004.6 |
| 20260506220853 | 68 | 0 | 1.7 | 4.3 | 0.00 | 0.14 | 0.14 | 79 | 1004.6 |
| 20260506220801 | 68 | 0 | 1.7 | 4.3 | 0.00 | 0.14 | 0.14 | 79 | 1004.6 |
| 20260506220715 | 68 | 0 | 1.7 | 4.3 | 0.00 | 0.14 | 0.14 | 80 | 1004.6 |
| 20260506220709 | 68 | 0 | 1.7 | 4.3 | 0.00 | 0.14 | 0.14 | 79 | 1004.6 |
| 20260506220520 | 68 | 360 | 0.9 | 4.3 | 0.00 | 0.14 | 0.14 | 80 | 1004.6 |
| 20260506220500 | 68 | 220 | 1.7 | 4.3 | 0.00 | 0.14 | 0.14 | 80 | 1004.6 |
| 20260506220418 | 68 | 0 | 2.6 | 7.0 | 0.00 | 0.14 | 0.14 | 80 | 1004.8 |
| 20260506220409 | 68 | 0 | 2.6 | 7.0 | 0.00 | 0.14 | 0.14 | 79 | 1004.8 |
| 20260506220404 | 68 | 226 | 1.7 | 7.0 | 0.00 | 0.14 | 0.14 | 80 | 1004.6 |
| 20260506220358 | 68 | 226 | 1.7 | 7.0 | 0.00 | 0.14 | 0.14 | 80 | 1004.6 |
| 20260506220350 | 68 | 232 | 2.6 | 7.0 | 0.00 | 0.14 | 0.14 | 80 | 1004.6 |
| 20260506220236 | 68 | 232 | 2.6 | 7.0 | 0.00 | 0.14 | 0.14 | 80 | 1004.7 |
| 20260506220118 | 68 | 0 | 2.6 | 7.0 | 0.00 | 0.14 | 0.14 | 80 | 1004.8 |
| 20260506220035 | 68 | 360 | 1.7 | 7.0 | 0.00 | 0.14 | 0.14 | 80 | 1004.8 |
| 20260506215711 | 68 | 0 | 2.6 | 8.7 | 0.00 | 0.14 | 0.14 | 79 | 1004.8 |
| 20260506215707 | 68 | 257 | 2.6 | 8.7 | 0.00 | 0.14 | 0.14 | 79 | 1004.7 |
| 20260506215701 | 68 | 254 | 2.6 | 8.7 | 0.00 | 0.14 | 0.14 | 79 | 1004.8 |
| 20260506215520 | 68 | 360 | 1.7 | 8.7 | 0.00 | 0.14 | 0.14 | 79 | 1004.7 |
| 20260506215507 | 68 | 0 | 2.6 | 8.7 | 0.00 | 0.14 | 0.14 | 79 | 1004.7 |
| 20260506215352 | 68 | 248 | 2.6 | 8.7 | 0.00 | 0.14 | 0.14 | 79 | 1004.7 |
| 20260506215250 | 68 | 220 | 1.7 | 8.7 | 0.00 | 0.14 | 0.14 | 80 | 1004.7 |
| 20260506215207 | 68 | 240 | 1.7 | 8.7 | 0.00 | 0.14 | 0.14 | 80 | 1004.5 |
| 20260506215202 | 68 | 211 | 1.7 | 8.7 | 0.00 | 0.14 | 0.14 | 80 | 1004.6 |
| 20260506215020 | 68 | 200 | 2.6 | 8.7 | 0.00 | 0.14 | 0.14 | 80 | 1004.5 |
| 20260506214950 | 68 | 200 | 1.7 | 8.7 | 0.00 | 0.14 | 0.14 | 80 | 1004.5 |
| 20260506214855 | 68 | 204 | 1.7 | 8.7 | 0.00 | 0.14 | 0.14 | 81 | 1004.6 |
| 20260506214850 | 68 | 206 | 1.7 | 8.7 | 0.00 | 0.14 | 0.14 | 81 | 1004.6 |
| 20260506214749 | 68 | 207 | 1.7 | 5.2 | 0.00 | 0.14 | 0.14 | 81 | 1004.5 |
| 20260506214649 | 68 | 209 | 1.7 | 7.0 | 0.00 | 0.14 | 0.14 | 80 | 1004.5 |
| 20260506214548 | 68 | 257 | 1.7 | 7.0 | 0.00 | 0.14 | 0.14 | 80 | 1004.5 |
| 20260506214520 | 68 | 257 | 0.9 | 7.0 | 0.00 | 0.14 | 0.14 | 81 | 1004.4 |
| 20260506214448 | 68 | 257 | 1.7 | 7.0 | 0.00 | 0.14 | 0.14 | 81 | 1004.4 |
| 20260506214347 | 68 | 256 | 1.7 | 7.0 | 0.00 | 0.14 | 0.14 | 81 | 1004.4 |
| 20260506214246 | 68 | 259 | 1.7 | 7.0 | 0.00 | 0.14 | 0.14 | 81 | 1004.4 |
| 20260506214146 | 68 | 210 | 1.7 | 7.0 | 0.00 | 0.14 | 0.14 | 81 | 1004.4 |
| 20260506214045 | 68 | 210 | 1.7 | 7.0 | 0.00 | 0.14 | 0.14 | 80 | 1004.4 |
| 20260506214019 | 68 | 211 | 1.7 | 7.0 | 0.00 | 0.14 | 0.14 | 80 | 1004.5 |
| 20260506213945 | 68 | 196 | 1.7 | 7.0 | 0.00 | 0.14 | 0.14 | 80 | 1004.5 |
| 20260506213852 | 67 | 211 | 1.7 | 7.0 | 0.00 | 0.14 | 0.14 | 80 | 1004.5 |
| 20260506213845 | 68 | 211 | 1.7 | 7.0 | 0.00 | 0.14 | 0.14 | 80 | 1004.5 |
| 20260506213744 | 67 | 230 | 1.7 | 7.0 | 0.00 | 0.14 | 0.14 | 81 | 1004.5 |
| 20260506213643 | 67 | 215 | 1.7 | 7.0 | 0.00 | 0.14 | 0.14 | 81 | 1004.5 |
| 20260506213543 | 67 | 202 | 1.7 | 4.3 | 0.00 | 0.14 | 0.14 | 81 | 1004.5 |
| 20260506213520 | 67 | 246 | 1.7 | 4.3 | 0.00 | 0.14 | 0.14 | 81 | 1004.5 |
| 20260506213443 | 67 | 240 | 1.7 | 4.3 | 0.00 | 0.14 | 0.14 | 81 | 1004.5 |
| 20260506213350 | 67 | 240 | 1.7 | 4.3 | 0.00 | 0.14 | 0.14 | 81 | 1004.4 |
| 20260506213342 | 67 | 0 | 1.7 | 4.3 | 0.00 | 0.14 | 0.14 | 81 | 1004.4 |
| 20260506213242 | 67 | 238 | 1.7 | 4.3 | 0.00 | 0.14 | 0.14 | 81 | 1004.4 |
| 20260506213142 | 67 | 0 | 1.7 | 4.3 | 0.00 | 0.14 | 0.14 | 82 | 1004.5 |
| 20260506213050 | 67 | 360 | 1.7 | 5.2 | 0.00 | 0.14 | 0.14 | 81 | 1004.5 |
| 20260506213040 | 67 | 0 | 1.7 | 5.2 | 0.00 | 0.14 | 0.14 | 81 | 1004.4 |
| 20260506213023 | 67 | 0 | 2.6 | 7.0 | 0.00 | 0.14 | 0.14 | 81 | 1004.3 |
| 20260506213019 | 67 | 227 | 1.7 | 7.0 | 0.00 | 0.14 | 0.14 | 82 | 1004.2 |
| 20260506213012 | 67 | 0 | 1.7 | 5.2 | 0.00 | 0.14 | 0.14 | 81 | 1004.5 |
| 20260506213004 | 67 | 0 | 1.7 | 7.0 | 0.00 | 0.14 | 0.14 | 81 | 1004.4 |
| 20260506212540 | 67 | 202 | 1.7 | 7.0 | 0.00 | 0.14 | 0.14 | 81 | 1004.1 |
| 20260506212520 | 67 | 202 | 2.6 | 7.0 | 0.00 | 0.14 | 0.14 | 81 | 1004.2 |
| 20260506212439 | 67 | 190 | 1.7 | 7.0 | 0.00 | 0.14 | 0.14 | 81 | 1004.1 |
| 20260506212350 | 67 | 216 | 1.7 | 7.0 | 0.00 | 0.14 | 0.14 | 82 | 1004.1 |
| 20260506212339 | 67 | 225 | 1.7 | 7.0 | 0.00 | 0.14 | 0.14 | 82 | 1004.1 |
| 20260506212238 | 67 | 0 | 1.7 | 7.0 | 0.00 | 0.14 | 0.14 | 82 | 1004.1 |
| 20260506212137 | 67 | 0 | 1.7 | 7.0 | 0.00 | 0.14 | 0.14 | 82 | 1004.1 |
| 20260506212037 | 67 | 0 | 1.7 | 7.0 | 0.00 | 0.14 | 0.14 | 82 | 1004.1 |
| 20260506212020 | 67 | 360 | 2.6 | 7.0 | 0.00 | 0.14 | 0.14 | 82 | 1004.1 |
| 20260506211937 | 67 | 0 | 1.7 | 7.0 | 0.00 | 0.14 | 0.14 | 82 | 1004.0 |
| 20260506211849 | 67 | 0 | 1.7 | 5.2 | 0.00 | 0.14 | 0.14 | 82 | 1004.1 |
| 20260506211836 | 67 | 0 | 1.7 | 5.2 | 0.00 | 0.14 | 0.14 | 82 | 1004.1 |
| 20260506211736 | 67 | 0 | 1.7 | 5.2 | 0.00 | 0.14 | 0.14 | 82 | 1004.1 |
| 20260506211636 | 66 | 0 | 1.7 | 5.2 | 0.00 | 0.14 | 0.14 | 82 | 1004.2 |
| 20260506211535 | 66 | 0 | 1.7 | 5.2 | 0.00 | 0.14 | 0.14 | 82 | 1004.2 |
| 20260506211519 | 66 | 360 | 1.7 | 5.2 | 0.00 | 0.14 | 0.14 | 82 | 1004.3 |
| 20260506211502 | 66 | 0 | 1.7 | 5.2 | 0.00 | 0.14 | 0.14 | 82 | 1004.2 |
| 20260506211343 | 66 | 0 | 1.7 | 5.2 | 0.00 | 0.14 | 0.14 | 82 | 1004.2 |
| 20260506211133 | 66 | 0 | 2.6 | 7.0 | 0.00 | 0.14 | 0.14 | 82 | 1004.2 |
| 20260506211033 | 66 | 0 | 2.6 | 7.0 | 0.00 | 0.14 | 0.14 | 82 | 1004.1 |
| 20260506211020 | 66 | 360 | 1.7 | 7.0 | 0.00 | 0.14 | 0.14 | 82 | 1004.3 |
| 20260506210932 | 66 | 0 | 2.6 | 7.0 | 0.00 | 0.14 | 0.14 | 82 | 1004.2 |
| 20260506210834 | 66 | 0 | 2.6 | 7.0 | 0.00 | 0.14 | 0.14 | 82 | 1004.2 |
| 20260506210733 | 66 | 0 | 2.6 | 7.0 | 0.00 | 0.14 | 0.14 | 82 | 1004.2 |
| 20260506210655 | 66 | 0 | 2.6 | 7.0 | 0.00 | 0.14 | 0.14 | 82 | 1004.2 |
| 20260506210542 | 66 | 0 | 2.6 | 7.0 | 0.00 | 0.14 | 0.14 | 82 | 1004.2 |
| 20260506210520 | 66 | 360 | 2.6 | 7.0 | 0.00 | 0.14 | 0.14 | 82 | 1004.3 |
| 20260506210332 | 66 | 0 | 2.6 | 7.0 | 0.00 | 0.14 | 0.14 | 82 | 1004.2 |
| 20260506210232 | 66 | 0 | 2.6 | 5.2 | 0.00 | 0.14 | 0.14 | 83 | 1004.2 |
| 20260506210213 | 66 | 0 | 2.6 | 5.2 | 0.00 | 0.14 | 0.14 | 83 | 1004.1 |
| 20260506210031 | 66 | 0 | 2.6 | 5.2 | 0.00 | 0.14 | 0.14 | 83 | 1004.1 |
| 20260506210020 | 66 | 360 | 2.6 | 5.2 | 0.00 | 0.14 | 0.14 | 83 | 1004.2 |
| 20260506205953 | 66 | 0 | 2.6 | 7.0 | 0.00 | 0.14 | 0.14 | 83 | 1004.1 |
| 20260506205828 | 66 | 0 | 2.6 | 7.0 | 0.00 | 0.14 | 0.14 | 83 | 1004.2 |
| 20260506205727 | 66 | 0 | 2.6 | 7.0 | 0.00 | 0.14 | 0.14 | 83 | 1004.2 |
| 20260506205706 | 66 | 0 | 2.6 | 7.0 | 0.00 | 0.14 | 0.14 | 83 | 1004.3 |
| 20260506205554 | 66 | 0 | 2.6 | 8.7 | 0.00 | 0.14 | 0.14 | 82 | 1004.3 |
| 20260506205549 | 66 | 0 | 2.6 | 8.7 | 0.00 | 0.14 | 0.14 | 83 | 1004.2 |
| 20260506205520 | 66 | 360 | 1.7 | 7.0 | 0.00 | 0.14 | 0.14 | 82 | 1004.4 |
| 20260506205431 | 66 | 0 | 2.6 | 8.7 | 0.00 | 0.14 | 0.14 | 82 | 1004.3 |
| 20260506205222 | 66 | 0 | 2.6 | 8.7 | 0.00 | 0.14 | 0.14 | 82 | 1004.4 |
| 20260506205135 | 66 | 0 | 2.6 | 8.7 | 0.00 | 0.14 | 0.14 | 82 | 1004.3 |
| 20260506205131 | 66 | 0 | 2.6 | 8.7 | 0.00 | 0.14 | 0.14 | 82 | 1004.3 |
| 20260506205020 | 66 | 360 | 2.6 | 7.0 | 0.00 | 0.14 | 0.14 | 82 | 1004.4 |
| 20260506204949 | 66 | 0 | 2.6 | 8.7 | 0.00 | 0.14 | 0.14 | 82 | 1004.3 |
| 20260506204940 | 66 | 0 | 2.6 | 8.7 | 0.00 | 0.14 | 0.14 | 82 | 1004.3 |
| 20260506204830 | 66 | 0 | 2.6 | 8.7 | 0.00 | 0.14 | 0.14 | 83 | 1004.3 |
| 20260506204621 | 66 | 0 | 2.6 | 8.7 | 0.00 | 0.14 | 0.14 | 83 | 1004.3 |
| 20260506204520 | 66 | 360 | 2.6 | 10.4 | 0.00 | 0.14 | 0.14 | 83 | 1004.3 |
| 20260506204437 | 66 | 0 | 3.5 | 10.4 | 0.00 | 0.14 | 0.14 | 83 | 1004.1 |
| 20260506204433 | 66 | 0 | 2.6 | 10.4 | 0.00 | 0.14 | 0.14 | 83 | 1004.2 |
| 20260506204424 | 66 | 0 | 3.5 | 10.4 | 0.00 | 0.14 | 0.14 | 83 | 1004.1 |
| 20260506204218 | 66 | 0 | 3.5 | 10.4 | 0.00 | 0.14 | 0.14 | 82 | 1004.1 |
| 20260506204118 | 66 | 0 | 3.5 | 10.4 | 0.00 | 0.14 | 0.14 | 82 | 1004.1 |
| 20260506204028 | 66 | 0 | 3.5 | 10.4 | 0.00 | 0.14 | 0.14 | 82 | 1004.2 |
| 20260506204024 | 66 | 0 | 3.5 | 10.4 | 0.00 | 0.14 | 0.14 | 82 | 1004.1 |
| 20260506204020 | 66 | 360 | 2.6 | 10.4 | 0.00 | 0.14 | 0.14 | 82 | 1004.3 |
| 20260506203842 | 66 | 0 | 3.5 | 10.4 | 0.00 | 0.14 | 0.14 | 82 | 1004.2 |
| 20260506203816 | 66 | 0 | 3.5 | 10.4 | 0.00 | 0.14 | 0.14 | 82 | 1004.2 |
| 20260506203716 | 66 | 0 | 2.6 | 10.4 | 0.00 | 0.14 | 0.14 | 82 | 1004.1 |
| 20260506203614 | 66 | 0 | 3.5 | 10.4 | 0.00 | 0.14 | 0.14 | 82 | 1004.0 |
| 20260506203520 | 66 | 360 | 3.5 | 8.7 | 0.00 | 0.14 | 0.14 | 82 | 1004.1 |
| 20260506203514 | 66 | 0 | 3.5 | 8.7 | 0.00 | 0.14 | 0.14 | 82 | 1004.0 |
| 20260506203414 | 66 | 0 | 3.5 | 9.6 | 0.00 | 0.14 | 0.14 | 83 | 1004.0 |